<?xml version="1.0" encoding="UTF-8" standalone="no" ?>
<gpx xmlns="http://www.topografix.com/GPX/1/1" xmlns:xsi="http://www.w3.org/2001/XMLSchema-instance" xsi:schemaLocation="http://www.topografix.com/GPX/1/1 http://www.topografix.com/GPX/1/1/gpx.xsd" version="1.1" creator="VisuGPX - https://www.visugpx.com">
  <metadata>
    <name>Rambouillet-Est c'est plat</name>
    <desc><![CDATA[21km faciles]]></desc>
  </metadata>
  <trk>
    <name><![CDATA[20190915-Rambouillet]]></name>
    <trkseg>
      <trkpt lat="48.64386" lon="1.83205">
        <ele>197.15431129575</ele>
        <time>2019-09-15T07:43:28Z</time>
      </trkpt>
      <trkpt lat="48.64382" lon="1.83201">
        <ele>185.52063634668</ele>
        <time>2019-09-15T07:44:55Z</time>
      </trkpt>
      <trkpt lat="48.64384" lon="1.83189">
        <ele>172.33313104254</ele>
        <time>2019-09-15T07:45:18Z</time>
      </trkpt>
      <trkpt lat="48.64379" lon="1.83179">
        <ele>171.11184604188</ele>
        <time>2019-09-15T07:45:45Z</time>
      </trkpt>
      <trkpt lat="48.64374" lon="1.83168">
        <ele>170.12853086449</ele>
        <time>2019-09-15T07:45:57Z</time>
      </trkpt>
      <trkpt lat="48.64374" lon="1.83156">
        <ele>169.4803737452</ele>
        <time>2019-09-15T07:46:07Z</time>
      </trkpt>
      <trkpt lat="48.64375" lon="1.83144">
        <ele>169.01716827739</ele>
        <time>2019-09-15T07:46:12Z</time>
      </trkpt>
      <trkpt lat="48.64372" lon="1.83132">
        <ele>168.08663195535</ele>
        <time>2019-09-15T07:46:22Z</time>
      </trkpt>
      <trkpt lat="48.64366" lon="1.83123">
        <ele>167.18501335025</ele>
        <time>2019-09-15T07:46:34Z</time>
      </trkpt>
      <trkpt lat="48.6436" lon="1.83113">
        <ele>166.40902207754</ele>
        <time>2019-09-15T07:46:43Z</time>
      </trkpt>
      <trkpt lat="48.64353" lon="1.83106">
        <ele>165.67574349432</ele>
        <time>2019-09-15T07:46:52Z</time>
      </trkpt>
      <trkpt lat="48.64346" lon="1.83098">
        <ele>164.99383855611</ele>
        <time>2019-09-15T07:47:01Z</time>
      </trkpt>
      <trkpt lat="48.64341" lon="1.83087">
        <ele>164.4262439951</ele>
        <time>2019-09-15T07:47:09Z</time>
      </trkpt>
      <trkpt lat="48.64335" lon="1.83077">
        <ele>163.79821808144</ele>
        <time>2019-09-15T07:47:18Z</time>
      </trkpt>
      <trkpt lat="48.64329" lon="1.83068">
        <ele>163.30044286084</ele>
        <time>2019-09-15T07:47:25Z</time>
      </trkpt>
      <trkpt lat="48.64324" lon="1.83058">
        <ele>162.73027907662</ele>
        <time>2019-09-15T07:47:33Z</time>
      </trkpt>
      <trkpt lat="48.6432" lon="1.83047">
        <ele>162.25878828219</ele>
        <time>2019-09-15T07:47:40Z</time>
      </trkpt>
      <trkpt lat="48.64313" lon="1.83038">
        <ele>161.75604913131</ele>
        <time>2019-09-15T07:47:47Z</time>
      </trkpt>
      <trkpt lat="48.64307" lon="1.8303">
        <ele>161.07801352785</ele>
        <time>2019-09-15T07:47:55Z</time>
      </trkpt>
      <trkpt lat="48.64299" lon="1.83025">
        <ele>160.37309002485</ele>
        <time>2019-09-15T07:48:02Z</time>
      </trkpt>
      <trkpt lat="48.64292" lon="1.8302">
        <ele>159.59158553843</ele>
        <time>2019-09-15T07:48:09Z</time>
      </trkpt>
      <trkpt lat="48.64283" lon="1.83016">
        <ele>159.00092528082</ele>
        <time>2019-09-15T07:48:14Z</time>
      </trkpt>
      <trkpt lat="48.64276" lon="1.83014">
        <ele>158.5301483013</ele>
        <time>2019-09-15T07:48:18Z</time>
      </trkpt>
      <trkpt lat="48.6427" lon="1.83023">
        <ele>157.97873083846</ele>
        <time>2019-09-15T07:48:24Z</time>
      </trkpt>
      <trkpt lat="48.64265" lon="1.83035">
        <ele>155.93823514208</ele>
        <time>2019-09-15T07:48:55Z</time>
      </trkpt>
      <trkpt lat="48.64266" lon="1.83047">
        <ele>155.13916967064</ele>
        <time>2019-09-15T07:49:03Z</time>
      </trkpt>
      <trkpt lat="48.64265" lon="1.8306">
        <ele>154.37144918293</ele>
        <time>2019-09-15T07:49:12Z</time>
      </trkpt>
      <trkpt lat="48.6426" lon="1.8307">
        <ele>154.05985323393</ele>
        <time>2019-09-15T07:49:16Z</time>
      </trkpt>
      <trkpt lat="48.64254" lon="1.83079">
        <ele>153.76267772684</ele>
        <time>2019-09-15T07:49:20Z</time>
      </trkpt>
      <trkpt lat="48.64244" lon="1.8308">
        <ele>153.47721250859</ele>
        <time>2019-09-15T07:49:25Z</time>
      </trkpt>
      <trkpt lat="48.64236" lon="1.83084">
        <ele>152.92205035914</ele>
        <time>2019-09-15T07:49:34Z</time>
      </trkpt>
      <trkpt lat="48.64229" lon="1.83092">
        <ele>152.50417945726</ele>
        <time>2019-09-15T07:49:42Z</time>
      </trkpt>
      <trkpt lat="48.64221" lon="1.83099">
        <ele>152.02000079797</ele>
        <time>2019-09-15T07:49:53Z</time>
      </trkpt>
      <trkpt lat="48.64214" lon="1.83107">
        <ele>151.72844125536</ele>
        <time>2019-09-15T07:50:01Z</time>
      </trkpt>
      <trkpt lat="48.64208" lon="1.83115">
        <ele>151.52769766537</ele>
        <time>2019-09-15T07:50:07Z</time>
      </trkpt>
      <trkpt lat="48.64201" lon="1.83122">
        <ele>151.33692356846</ele>
        <time>2019-09-15T07:50:13Z</time>
      </trkpt>
      <trkpt lat="48.64197" lon="1.83132">
        <ele>151.13945399344</ele>
        <time>2019-09-15T07:50:20Z</time>
      </trkpt>
      <trkpt lat="48.64192" lon="1.83143">
        <ele>150.93854159166</ele>
        <time>2019-09-15T07:50:28Z</time>
      </trkpt>
      <trkpt lat="48.64187" lon="1.83154">
        <ele>150.76550893224</ele>
        <time>2019-09-15T07:50:36Z</time>
      </trkpt>
      <trkpt lat="48.64182" lon="1.83164">
        <ele>150.59607633717</ele>
        <time>2019-09-15T07:50:45Z</time>
      </trkpt>
      <trkpt lat="48.64176" lon="1.83171">
        <ele>150.49293616611</ele>
        <time>2019-09-15T07:50:51Z</time>
      </trkpt>
      <trkpt lat="48.64167" lon="1.83181">
        <ele>150.40554079707</ele>
        <time>2019-09-15T07:50:56Z</time>
      </trkpt>
      <trkpt lat="48.64161" lon="1.83188">
        <ele>150.28090969465</ele>
        <time>2019-09-15T07:51:03Z</time>
      </trkpt>
      <trkpt lat="48.64156" lon="1.83198">
        <ele>150.14359571644</ele>
        <time>2019-09-15T07:51:10Z</time>
      </trkpt>
      <trkpt lat="48.6415" lon="1.83208">
        <ele>150.01639714824</ele>
        <time>2019-09-15T07:51:15Z</time>
      </trkpt>
      <trkpt lat="48.64146" lon="1.83219">
        <ele>149.82381083607</ele>
        <time>2019-09-15T07:51:22Z</time>
      </trkpt>
      <trkpt lat="48.6414" lon="1.83228">
        <ele>149.59965858102</ele>
        <time>2019-09-15T07:51:31Z</time>
      </trkpt>
      <trkpt lat="48.64134" lon="1.83237">
        <ele>149.38364311878</ele>
        <time>2019-09-15T07:51:40Z</time>
      </trkpt>
      <trkpt lat="48.6413" lon="1.83247">
        <ele>149.2540487575</ele>
        <time>2019-09-15T07:51:46Z</time>
      </trkpt>
      <trkpt lat="48.64124" lon="1.83257">
        <ele>149.13192096168</ele>
        <time>2019-09-15T07:51:52Z</time>
      </trkpt>
      <trkpt lat="48.64118" lon="1.83266">
        <ele>149.01816527464</ele>
        <time>2019-09-15T07:51:58Z</time>
      </trkpt>
      <trkpt lat="48.64112" lon="1.83275">
        <ele>148.90017063456</ele>
        <time>2019-09-15T07:52:05Z</time>
      </trkpt>
      <trkpt lat="48.64107" lon="1.83284">
        <ele>148.80897028027</ele>
        <time>2019-09-15T07:52:11Z</time>
      </trkpt>
      <trkpt lat="48.64102" lon="1.83295">
        <ele>148.72493953661</ele>
        <time>2019-09-15T07:52:18Z</time>
      </trkpt>
      <trkpt lat="48.64096" lon="1.83306">
        <ele>148.633517568</ele>
        <time>2019-09-15T07:52:26Z</time>
      </trkpt>
      <trkpt lat="48.64091" lon="1.83314">
        <ele>148.55811163643</ele>
        <time>2019-09-15T07:52:33Z</time>
      </trkpt>
      <trkpt lat="48.64085" lon="1.83323">
        <ele>148.46497656763</ele>
        <time>2019-09-15T07:52:41Z</time>
      </trkpt>
      <trkpt lat="48.64079" lon="1.83332">
        <ele>148.39148031417</ele>
        <time>2019-09-15T07:52:47Z</time>
      </trkpt>
      <trkpt lat="48.64073" lon="1.83341">
        <ele>148.32373832137</ele>
        <time>2019-09-15T07:52:53Z</time>
      </trkpt>
      <trkpt lat="48.64067" lon="1.83351">
        <ele>148.26045866358</ele>
        <time>2019-09-15T07:52:59Z</time>
      </trkpt>
      <trkpt lat="48.64062" lon="1.83359">
        <ele>148.21353418981</ele>
        <time>2019-09-15T07:53:04Z</time>
      </trkpt>
      <trkpt lat="48.64056" lon="1.8337">
        <ele>148.15168383031</ele>
        <time>2019-09-15T07:53:11Z</time>
      </trkpt>
      <trkpt lat="48.64051" lon="1.83379">
        <ele>148.09194950695</ele>
        <time>2019-09-15T07:53:20Z</time>
      </trkpt>
      <trkpt lat="48.64046" lon="1.8339">
        <ele>148.0623607081</ele>
        <time>2019-09-15T07:53:27Z</time>
      </trkpt>
      <trkpt lat="48.6404" lon="1.83399">
        <ele>148.02986761913</ele>
        <time>2019-09-15T07:53:35Z</time>
      </trkpt>
      <trkpt lat="48.64035" lon="1.83409">
        <ele>148.00142518964</ele>
        <time>2019-09-15T07:53:41Z</time>
      </trkpt>
      <trkpt lat="48.64029" lon="1.83418">
        <ele>147.99341952017</ele>
        <time>2019-09-15T07:53:49Z</time>
      </trkpt>
      <trkpt lat="48.64022" lon="1.83422">
        <ele>147.98423640492</ele>
        <time>2019-09-15T07:53:56Z</time>
      </trkpt>
      <trkpt lat="48.64013" lon="1.83432">
        <ele>147.97816230729</ele>
        <time>2019-09-15T07:54:00Z</time>
      </trkpt>
      <trkpt lat="48.64007" lon="1.8344">
        <ele>147.97788052669</ele>
        <time>2019-09-15T07:54:08Z</time>
      </trkpt>
      <trkpt lat="48.63999" lon="1.83447">
        <ele>147.97547907565</ele>
        <time>2019-09-15T07:54:17Z</time>
      </trkpt>
      <trkpt lat="48.63994" lon="1.83453">
        <ele>147.96612578554</ele>
        <time>2019-09-15T07:54:22Z</time>
      </trkpt>
      <trkpt lat="48.63988" lon="1.83463">
        <ele>147.95825808005</ele>
        <time>2019-09-15T07:54:27Z</time>
      </trkpt>
      <trkpt lat="48.63981" lon="1.8347">
        <ele>147.94222783859</ele>
        <time>2019-09-15T07:54:33Z</time>
      </trkpt>
      <trkpt lat="48.63977" lon="1.8348">
        <ele>147.9223933374</ele>
        <time>2019-09-15T07:54:39Z</time>
      </trkpt>
      <trkpt lat="48.63972" lon="1.83492">
        <ele>147.91355686631</ele>
        <time>2019-09-15T07:54:44Z</time>
      </trkpt>
      <trkpt lat="48.63967" lon="1.83502">
        <ele>147.90690914523</ele>
        <time>2019-09-15T07:54:49Z</time>
      </trkpt>
      <trkpt lat="48.6396" lon="1.8351">
        <ele>147.91431591803</ele>
        <time>2019-09-15T07:55:00Z</time>
      </trkpt>
      <trkpt lat="48.63953" lon="1.83517">
        <ele>147.93668076257</ele>
        <time>2019-09-15T07:55:06Z</time>
      </trkpt>
      <trkpt lat="48.63946" lon="1.83525">
        <ele>147.98374533029</ele>
        <time>2019-09-15T07:55:14Z</time>
      </trkpt>
      <trkpt lat="48.63942" lon="1.83535">
        <ele>148.02154738957</ele>
        <time>2019-09-15T07:55:20Z</time>
      </trkpt>
      <trkpt lat="48.63936" lon="1.83545">
        <ele>148.07146758359</ele>
        <time>2019-09-15T07:55:27Z</time>
      </trkpt>
      <trkpt lat="48.63929" lon="1.83553">
        <ele>148.12423827849</ele>
        <time>2019-09-15T07:55:33Z</time>
      </trkpt>
      <trkpt lat="48.63922" lon="1.83561">
        <ele>148.1775232128</ele>
        <time>2019-09-15T07:55:40Z</time>
      </trkpt>
      <trkpt lat="48.63916" lon="1.83568">
        <ele>148.22664220566</ele>
        <time>2019-09-15T07:55:45Z</time>
      </trkpt>
      <trkpt lat="48.63908" lon="1.83575">
        <ele>148.26886155371</ele>
        <time>2019-09-15T07:55:50Z</time>
      </trkpt>
      <trkpt lat="48.63901" lon="1.83582">
        <ele>148.30788450358</ele>
        <time>2019-09-15T07:55:56Z</time>
      </trkpt>
      <trkpt lat="48.63895" lon="1.83589">
        <ele>148.33198561522</ele>
        <time>2019-09-15T07:56:01Z</time>
      </trkpt>
      <trkpt lat="48.6389" lon="1.83598">
        <ele>148.35065134263</ele>
        <time>2019-09-15T07:56:07Z</time>
      </trkpt>
      <trkpt lat="48.63885" lon="1.8361">
        <ele>148.38584322936</ele>
        <time>2019-09-15T07:56:15Z</time>
      </trkpt>
      <trkpt lat="48.63882" lon="1.83621">
        <ele>148.38955866858</ele>
        <time>2019-09-15T07:56:22Z</time>
      </trkpt>
      <trkpt lat="48.63878" lon="1.83631">
        <ele>148.36892547201</ele>
        <time>2019-09-15T07:56:28Z</time>
      </trkpt>
      <trkpt lat="48.63872" lon="1.83639">
        <ele>148.34137815328</ele>
        <time>2019-09-15T07:56:34Z</time>
      </trkpt>
      <trkpt lat="48.63867" lon="1.83648">
        <ele>148.32289281552</ele>
        <time>2019-09-15T07:56:39Z</time>
      </trkpt>
      <trkpt lat="48.63862" lon="1.83657">
        <ele>148.30511736802</ele>
        <time>2019-09-15T07:56:45Z</time>
      </trkpt>
      <trkpt lat="48.63858" lon="1.83669">
        <ele>148.26942478092</ele>
        <time>2019-09-15T07:56:51Z</time>
      </trkpt>
      <trkpt lat="48.63853" lon="1.8368">
        <ele>148.20595531454</ele>
        <time>2019-09-15T07:56:57Z</time>
      </trkpt>
      <trkpt lat="48.63849" lon="1.83691">
        <ele>148.09500110627</ele>
        <time>2019-09-15T07:57:06Z</time>
      </trkpt>
      <trkpt lat="48.63844" lon="1.83702">
        <ele>148.03311902707</ele>
        <time>2019-09-15T07:57:12Z</time>
      </trkpt>
      <trkpt lat="48.63839" lon="1.83713">
        <ele>147.98279220856</ele>
        <time>2019-09-15T07:57:19Z</time>
      </trkpt>
      <trkpt lat="48.63834" lon="1.83721">
        <ele>147.9513604662</ele>
        <time>2019-09-15T07:57:24Z</time>
      </trkpt>
      <trkpt lat="48.63828" lon="1.8373">
        <ele>147.91390547422</ele>
        <time>2019-09-15T07:57:29Z</time>
      </trkpt>
      <trkpt lat="48.63823" lon="1.83741">
        <ele>147.84462565908</ele>
        <time>2019-09-15T07:57:37Z</time>
      </trkpt>
      <trkpt lat="48.63818" lon="1.83751">
        <ele>147.76513070709</ele>
        <time>2019-09-15T07:57:45Z</time>
      </trkpt>
      <trkpt lat="48.63813" lon="1.8376">
        <ele>147.72460259049</ele>
        <time>2019-09-15T07:57:50Z</time>
      </trkpt>
      <trkpt lat="48.63807" lon="1.83769">
        <ele>147.67953916344</ele>
        <time>2019-09-15T07:57:56Z</time>
      </trkpt>
      <trkpt lat="48.63804" lon="1.83779">
        <ele>147.64076770212</ele>
        <time>2019-09-15T07:58:02Z</time>
      </trkpt>
      <trkpt lat="48.63802" lon="1.83792">
        <ele>147.64754436758</ele>
        <time>2019-09-15T07:58:07Z</time>
      </trkpt>
      <trkpt lat="48.638" lon="1.83797">
        <ele>147.65609552174</ele>
        <time>2019-09-15T07:58:14Z</time>
      </trkpt>
      <trkpt lat="48.6379" lon="1.83802">
        <ele>147.65662433422</ele>
        <time>2019-09-15T07:58:18Z</time>
      </trkpt>
      <trkpt lat="48.63787" lon="1.83814">
        <ele>147.6535297775</ele>
        <time>2019-09-15T07:58:25Z</time>
      </trkpt>
      <trkpt lat="48.63782" lon="1.83823">
        <ele>147.67792187316</ele>
        <time>2019-09-15T07:58:31Z</time>
      </trkpt>
      <trkpt lat="48.63778" lon="1.83833">
        <ele>147.74373273583</ele>
        <time>2019-09-15T07:58:37Z</time>
      </trkpt>
      <trkpt lat="48.63773" lon="1.83844">
        <ele>147.85641224687</ele>
        <time>2019-09-15T07:58:44Z</time>
      </trkpt>
      <trkpt lat="48.63771" lon="1.83856">
        <ele>148.23240226568</ele>
        <time>2019-09-15T07:59:06Z</time>
      </trkpt>
      <trkpt lat="48.63769" lon="1.83869">
        <ele>148.39309309788</ele>
        <time>2019-09-15T07:59:13Z</time>
      </trkpt>
      <trkpt lat="48.63767" lon="1.83881">
        <ele>148.56860050088</ele>
        <time>2019-09-15T07:59:25Z</time>
      </trkpt>
      <trkpt lat="48.63766" lon="1.83894">
        <ele>148.6313751699</ele>
        <time>2019-09-15T07:59:31Z</time>
      </trkpt>
      <trkpt lat="48.63765" lon="1.83907">
        <ele>148.68265050623</ele>
        <time>2019-09-15T07:59:39Z</time>
      </trkpt>
      <trkpt lat="48.63761" lon="1.8392">
        <ele>148.70715918137</ele>
        <time>2019-09-15T07:59:44Z</time>
      </trkpt>
      <trkpt lat="48.63758" lon="1.83932">
        <ele>148.72320143752</ele>
        <time>2019-09-15T07:59:51Z</time>
      </trkpt>
      <trkpt lat="48.63755" lon="1.83944">
        <ele>148.72696670897</ele>
        <time>2019-09-15T07:59:58Z</time>
      </trkpt>
      <trkpt lat="48.63753" lon="1.83955">
        <ele>148.71276489604</ele>
        <time>2019-09-15T08:00:03Z</time>
      </trkpt>
      <trkpt lat="48.63751" lon="1.83967">
        <ele>148.6805954287</ele>
        <time>2019-09-15T08:00:09Z</time>
      </trkpt>
      <trkpt lat="48.63752" lon="1.8398">
        <ele>148.62225434376</ele>
        <time>2019-09-15T08:00:17Z</time>
      </trkpt>
      <trkpt lat="48.63749" lon="1.83992">
        <ele>148.58417731984</ele>
        <time>2019-09-15T08:00:23Z</time>
      </trkpt>
      <trkpt lat="48.63748" lon="1.84005">
        <ele>148.53046176249</ele>
        <time>2019-09-15T08:00:29Z</time>
      </trkpt>
      <trkpt lat="48.63749" lon="1.84017">
        <ele>148.47853712791</ele>
        <time>2019-09-15T08:00:34Z</time>
      </trkpt>
      <trkpt lat="48.6375" lon="1.84029">
        <ele>148.40356652244</ele>
        <time>2019-09-15T08:00:44Z</time>
      </trkpt>
      <trkpt lat="48.63749" lon="1.8404">
        <ele>148.37142042502</ele>
        <time>2019-09-15T08:00:51Z</time>
      </trkpt>
      <trkpt lat="48.63745" lon="1.84049">
        <ele>148.35733201409</ele>
        <time>2019-09-15T08:00:56Z</time>
      </trkpt>
      <trkpt lat="48.63742" lon="1.84061">
        <ele>148.34329999905</ele>
        <time>2019-09-15T08:01:01Z</time>
      </trkpt>
      <trkpt lat="48.63738" lon="1.84073">
        <ele>148.32594110905</ele>
        <time>2019-09-15T08:01:06Z</time>
      </trkpt>
      <trkpt lat="48.63736" lon="1.84085">
        <ele>148.30015768764</ele>
        <time>2019-09-15T08:01:12Z</time>
      </trkpt>
      <trkpt lat="48.63733" lon="1.84097">
        <ele>148.27213967026</ele>
        <time>2019-09-15T08:01:19Z</time>
      </trkpt>
      <trkpt lat="48.63731" lon="1.84109">
        <ele>148.2371816383</ele>
        <time>2019-09-15T08:01:27Z</time>
      </trkpt>
      <trkpt lat="48.63725" lon="1.84118">
        <ele>148.20287324572</ele>
        <time>2019-09-15T08:01:34Z</time>
      </trkpt>
      <trkpt lat="48.63721" lon="1.84129">
        <ele>148.16927789688</ele>
        <time>2019-09-15T08:01:40Z</time>
      </trkpt>
      <trkpt lat="48.63716" lon="1.8414">
        <ele>148.12893171198</ele>
        <time>2019-09-15T08:01:47Z</time>
      </trkpt>
      <trkpt lat="48.63709" lon="1.84145">
        <ele>148.09881798258</ele>
        <time>2019-09-15T08:01:52Z</time>
      </trkpt>
      <trkpt lat="48.63705" lon="1.84155">
        <ele>148.038002</ele>
        <time>2019-09-15T08:02:00Z</time>
      </trkpt>
      <trkpt lat="48.63698" lon="1.84164">
        <ele>147.9869050994</ele>
        <time>2019-09-15T08:02:11Z</time>
      </trkpt>
      <trkpt lat="48.63691" lon="1.84171">
        <ele>147.97929245213</ele>
        <time>2019-09-15T08:02:16Z</time>
      </trkpt>
      <trkpt lat="48.63685" lon="1.84178">
        <ele>147.96949792365</ele>
        <time>2019-09-15T08:02:20Z</time>
      </trkpt>
      <trkpt lat="48.63678" lon="1.84187">
        <ele>147.94024254579</ele>
        <time>2019-09-15T08:02:26Z</time>
      </trkpt>
      <trkpt lat="48.63674" lon="1.84197">
        <ele>147.88907812646</ele>
        <time>2019-09-15T08:02:35Z</time>
      </trkpt>
      <trkpt lat="48.63671" lon="1.84208">
        <ele>147.85639291466</ele>
        <time>2019-09-15T08:02:41Z</time>
      </trkpt>
      <trkpt lat="48.63666" lon="1.84218">
        <ele>147.82785093011</ele>
        <time>2019-09-15T08:02:47Z</time>
      </trkpt>
      <trkpt lat="48.63658" lon="1.84223">
        <ele>147.79262045445</ele>
        <time>2019-09-15T08:02:56Z</time>
      </trkpt>
      <trkpt lat="48.63653" lon="1.84213">
        <ele>147.70708609426</ele>
        <time>2019-09-15T08:03:35Z</time>
      </trkpt>
      <trkpt lat="48.63649" lon="1.84202">
        <ele>147.691385491</ele>
        <time>2019-09-15T08:04:05Z</time>
      </trkpt>
      <trkpt lat="48.63641" lon="1.84196">
        <ele>147.68120108383</ele>
        <time>2019-09-15T08:04:17Z</time>
      </trkpt>
      <trkpt lat="48.63635" lon="1.84191">
        <ele>147.67482450558</ele>
        <time>2019-09-15T08:04:24Z</time>
      </trkpt>
      <trkpt lat="48.63626" lon="1.84188">
        <ele>147.67168582706</ele>
        <time>2019-09-15T08:04:29Z</time>
      </trkpt>
      <trkpt lat="48.63618" lon="1.84186">
        <ele>147.66804502879</ele>
        <time>2019-09-15T08:04:37Z</time>
      </trkpt>
      <trkpt lat="48.6361" lon="1.84184">
        <ele>147.66408500347</ele>
        <time>2019-09-15T08:04:45Z</time>
      </trkpt>
      <trkpt lat="48.63601" lon="1.84185">
        <ele>147.65855246883</ele>
        <time>2019-09-15T08:04:53Z</time>
      </trkpt>
      <trkpt lat="48.63593" lon="1.84183">
        <ele>147.65563640792</ele>
        <time>2019-09-15T08:05:03Z</time>
      </trkpt>
      <trkpt lat="48.63589" lon="1.84175">
        <ele>147.65170926302</ele>
        <time>2019-09-15T08:05:14Z</time>
      </trkpt>
      <trkpt lat="48.63579" lon="1.84167">
        <ele>147.64282657961</ele>
        <time>2019-09-15T08:05:19Z</time>
      </trkpt>
      <trkpt lat="48.63571" lon="1.8416">
        <ele>147.63957981181</ele>
        <time>2019-09-15T08:05:29Z</time>
      </trkpt>
      <trkpt lat="48.63565" lon="1.84155">
        <ele>147.64908345857</ele>
        <time>2019-09-15T08:05:37Z</time>
      </trkpt>
      <trkpt lat="48.63558" lon="1.84147">
        <ele>147.65420567994</ele>
        <time>2019-09-15T08:05:42Z</time>
      </trkpt>
      <trkpt lat="48.6355" lon="1.84141">
        <ele>147.66089708293</ele>
        <time>2019-09-15T08:05:47Z</time>
      </trkpt>
      <trkpt lat="48.63544" lon="1.84134">
        <ele>147.66810562115</ele>
        <time>2019-09-15T08:05:53Z</time>
      </trkpt>
      <trkpt lat="48.63537" lon="1.84128">
        <ele>147.68392189891</ele>
        <time>2019-09-15T08:06:03Z</time>
      </trkpt>
      <trkpt lat="48.63529" lon="1.84121">
        <ele>147.68642093154</ele>
        <time>2019-09-15T08:06:14Z</time>
      </trkpt>
      <trkpt lat="48.63527" lon="1.84109">
        <ele>147.67810110483</ele>
        <time>2019-09-15T08:06:29Z</time>
      </trkpt>
      <trkpt lat="48.63522" lon="1.84099">
        <ele>147.6684198679</ele>
        <time>2019-09-15T08:06:34Z</time>
      </trkpt>
      <trkpt lat="48.63518" lon="1.84087">
        <ele>147.65730249547</ele>
        <time>2019-09-15T08:06:39Z</time>
      </trkpt>
      <trkpt lat="48.63514" lon="1.84078">
        <ele>147.64801530026</ele>
        <time>2019-09-15T08:06:44Z</time>
      </trkpt>
      <trkpt lat="48.63508" lon="1.84069">
        <ele>147.64137574091</ele>
        <time>2019-09-15T08:06:48Z</time>
      </trkpt>
      <trkpt lat="48.63501" lon="1.84062">
        <ele>147.63446650308</ele>
        <time>2019-09-15T08:06:53Z</time>
      </trkpt>
      <trkpt lat="48.63494" lon="1.84055">
        <ele>147.62521426824</ele>
        <time>2019-09-15T08:06:58Z</time>
      </trkpt>
      <trkpt lat="48.63486" lon="1.8405">
        <ele>147.6117338778</ele>
        <time>2019-09-15T08:07:06Z</time>
      </trkpt>
      <trkpt lat="48.63479" lon="1.84042">
        <ele>147.57539271541</ele>
        <time>2019-09-15T08:07:18Z</time>
      </trkpt>
      <trkpt lat="48.63474" lon="1.84034">
        <ele>147.55239314963</ele>
        <time>2019-09-15T08:07:25Z</time>
      </trkpt>
      <trkpt lat="48.63469" lon="1.84025">
        <ele>147.53175543927</ele>
        <time>2019-09-15T08:07:31Z</time>
      </trkpt>
      <trkpt lat="48.63465" lon="1.84013">
        <ele>147.50708194488</ele>
        <time>2019-09-15T08:07:38Z</time>
      </trkpt>
      <trkpt lat="48.63459" lon="1.84005">
        <ele>147.47204632242</ele>
        <time>2019-09-15T08:07:48Z</time>
      </trkpt>
      <trkpt lat="48.6345" lon="1.84001">
        <ele>147.45494798789</ele>
        <time>2019-09-15T08:07:53Z</time>
      </trkpt>
      <trkpt lat="48.63443" lon="1.83994">
        <ele>147.4371321424</ele>
        <time>2019-09-15T08:07:59Z</time>
      </trkpt>
      <trkpt lat="48.63438" lon="1.83986">
        <ele>147.42286344376</ele>
        <time>2019-09-15T08:08:03Z</time>
      </trkpt>
      <trkpt lat="48.63432" lon="1.83976">
        <ele>147.38429131059</ele>
        <time>2019-09-15T08:08:16Z</time>
      </trkpt>
      <trkpt lat="48.63426" lon="1.83971">
        <ele>147.36588751627</ele>
        <time>2019-09-15T08:08:21Z</time>
      </trkpt>
      <trkpt lat="48.63417" lon="1.83968">
        <ele>147.35012919347</ele>
        <time>2019-09-15T08:08:26Z</time>
      </trkpt>
      <trkpt lat="48.6341" lon="1.83964">
        <ele>147.33185397148</ele>
        <time>2019-09-15T08:08:32Z</time>
      </trkpt>
      <trkpt lat="48.63399" lon="1.83965">
        <ele>147.32251365874</ele>
        <time>2019-09-15T08:08:37Z</time>
      </trkpt>
      <trkpt lat="48.63391" lon="1.83971">
        <ele>147.3077579937</ele>
        <time>2019-09-15T08:08:45Z</time>
      </trkpt>
      <trkpt lat="48.63383" lon="1.83976">
        <ele>147.29191125396</ele>
        <time>2019-09-15T08:08:55Z</time>
      </trkpt>
      <trkpt lat="48.63374" lon="1.83977">
        <ele>147.28059536199</ele>
        <time>2019-09-15T08:09:03Z</time>
      </trkpt>
      <trkpt lat="48.63366" lon="1.83979">
        <ele>147.27658475982</ele>
        <time>2019-09-15T08:09:07Z</time>
      </trkpt>
      <trkpt lat="48.63359" lon="1.83982">
        <ele>147.27593596868</ele>
        <time>2019-09-15T08:09:11Z</time>
      </trkpt>
      <trkpt lat="48.63352" lon="1.83986">
        <ele>147.27780915868</ele>
        <time>2019-09-15T08:09:18Z</time>
      </trkpt>
      <trkpt lat="48.63343" lon="1.83986">
        <ele>147.28102144984</ele>
        <time>2019-09-15T08:09:27Z</time>
      </trkpt>
      <trkpt lat="48.63334" lon="1.83987">
        <ele>147.28648836321</ele>
        <time>2019-09-15T08:09:32Z</time>
      </trkpt>
      <trkpt lat="48.63326" lon="1.8399">
        <ele>147.28919733674</ele>
        <time>2019-09-15T08:09:39Z</time>
      </trkpt>
      <trkpt lat="48.63318" lon="1.8399">
        <ele>147.28727063544</ele>
        <time>2019-09-15T08:09:44Z</time>
      </trkpt>
      <trkpt lat="48.63309" lon="1.83991">
        <ele>147.28528126779</ele>
        <time>2019-09-15T08:09:50Z</time>
      </trkpt>
      <trkpt lat="48.63301" lon="1.83992">
        <ele>147.28454410238</ele>
        <time>2019-09-15T08:09:55Z</time>
      </trkpt>
      <trkpt lat="48.63294" lon="1.84">
        <ele>147.28504852882</ele>
        <time>2019-09-15T08:10:01Z</time>
      </trkpt>
      <trkpt lat="48.63286" lon="1.84002">
        <ele>147.28611867838</ele>
        <time>2019-09-15T08:10:07Z</time>
      </trkpt>
      <trkpt lat="48.63278" lon="1.84002">
        <ele>147.28651466241</ele>
        <time>2019-09-15T08:10:13Z</time>
      </trkpt>
      <trkpt lat="48.6327" lon="1.84006">
        <ele>147.29108729434</ele>
        <time>2019-09-15T08:10:20Z</time>
      </trkpt>
      <trkpt lat="48.63262" lon="1.8401">
        <ele>147.30453552941</ele>
        <time>2019-09-15T08:10:29Z</time>
      </trkpt>
      <trkpt lat="48.63254" lon="1.84014">
        <ele>147.31975267416</ele>
        <time>2019-09-15T08:10:36Z</time>
      </trkpt>
      <trkpt lat="48.63245" lon="1.84017">
        <ele>147.33777021719</ele>
        <time>2019-09-15T08:10:46Z</time>
      </trkpt>
      <trkpt lat="48.63237" lon="1.84019">
        <ele>147.34504445108</ele>
        <time>2019-09-15T08:10:51Z</time>
      </trkpt>
      <trkpt lat="48.63229" lon="1.8402">
        <ele>147.35337822568</ele>
        <time>2019-09-15T08:10:56Z</time>
      </trkpt>
      <trkpt lat="48.63222" lon="1.84014">
        <ele>147.36757603031</ele>
        <time>2019-09-15T08:11:06Z</time>
      </trkpt>
      <trkpt lat="48.63214" lon="1.8401">
        <ele>147.38807229157</ele>
        <time>2019-09-15T08:11:19Z</time>
      </trkpt>
      <trkpt lat="48.63207" lon="1.84004">
        <ele>147.40006835532</ele>
        <time>2019-09-15T08:11:24Z</time>
      </trkpt>
      <trkpt lat="48.63199" lon="1.84001">
        <ele>147.42345695673</ele>
        <time>2019-09-15T08:11:33Z</time>
      </trkpt>
      <trkpt lat="48.6319" lon="1.84005">
        <ele>147.43272693367</ele>
        <time>2019-09-15T08:11:47Z</time>
      </trkpt>
      <trkpt lat="48.63184" lon="1.83995">
        <ele>147.43691075583</ele>
        <time>2019-09-15T08:11:52Z</time>
      </trkpt>
      <trkpt lat="48.63177" lon="1.83986">
        <ele>147.44919031465</ele>
        <time>2019-09-15T08:12:01Z</time>
      </trkpt>
      <trkpt lat="48.63171" lon="1.83979">
        <ele>147.45463391392</ele>
        <time>2019-09-15T08:12:08Z</time>
      </trkpt>
      <trkpt lat="48.63162" lon="1.83972">
        <ele>147.46170595728</ele>
        <time>2019-09-15T08:12:13Z</time>
      </trkpt>
      <trkpt lat="48.63156" lon="1.83963">
        <ele>147.46731347226</ele>
        <time>2019-09-15T08:12:18Z</time>
      </trkpt>
      <trkpt lat="48.63153" lon="1.83951">
        <ele>147.48183259783</ele>
        <time>2019-09-15T08:12:31Z</time>
      </trkpt>
      <trkpt lat="48.63149" lon="1.83941">
        <ele>147.48602488855</ele>
        <time>2019-09-15T08:12:40Z</time>
      </trkpt>
      <trkpt lat="48.63143" lon="1.83932">
        <ele>147.4885936352</ele>
        <time>2019-09-15T08:12:47Z</time>
      </trkpt>
      <trkpt lat="48.63134" lon="1.8393">
        <ele>147.48353130472</ele>
        <time>2019-09-15T08:13:00Z</time>
      </trkpt>
      <trkpt lat="48.63124" lon="1.83936">
        <ele>147.47821912632</ele>
        <time>2019-09-15T08:13:05Z</time>
      </trkpt>
      <trkpt lat="48.63119" lon="1.83946">
        <ele>147.47696732415</ele>
        <time>2019-09-15T08:13:15Z</time>
      </trkpt>
      <trkpt lat="48.63111" lon="1.83949">
        <ele>147.48937644367</ele>
        <time>2019-09-15T08:13:30Z</time>
      </trkpt>
      <trkpt lat="48.63105" lon="1.83953">
        <ele>147.49939919281</ele>
        <time>2019-09-15T08:13:54Z</time>
      </trkpt>
      <trkpt lat="48.63094" lon="1.83963">
        <ele>147.50212043482</ele>
        <time>2019-09-15T08:13:59Z</time>
      </trkpt>
      <trkpt lat="48.63087" lon="1.8397">
        <ele>147.49299792828</ele>
        <time>2019-09-15T08:14:11Z</time>
      </trkpt>
      <trkpt lat="48.63079" lon="1.83976">
        <ele>147.48080557663</ele>
        <time>2019-09-15T08:14:24Z</time>
      </trkpt>
      <trkpt lat="48.63078" lon="1.83989">
        <ele>147.47663693483</ele>
        <time>2019-09-15T08:14:38Z</time>
      </trkpt>
      <trkpt lat="48.63079" lon="1.84001">
        <ele>147.46731851996</ele>
        <time>2019-09-15T08:14:49Z</time>
      </trkpt>
      <trkpt lat="48.63083" lon="1.84013">
        <ele>147.45785611343</ele>
        <time>2019-09-15T08:14:56Z</time>
      </trkpt>
      <trkpt lat="48.63085" lon="1.84024">
        <ele>147.44998941742</ele>
        <time>2019-09-15T08:15:02Z</time>
      </trkpt>
      <trkpt lat="48.63085" lon="1.84036">
        <ele>147.4405395345</ele>
        <time>2019-09-15T08:15:08Z</time>
      </trkpt>
      <trkpt lat="48.63088" lon="1.84048">
        <ele>147.42319870967</ele>
        <time>2019-09-15T08:15:15Z</time>
      </trkpt>
      <trkpt lat="48.63094" lon="1.84056">
        <ele>147.39256964721</ele>
        <time>2019-09-15T08:15:28Z</time>
      </trkpt>
      <trkpt lat="48.63101" lon="1.84063">
        <ele>147.37422184162</ele>
        <time>2019-09-15T08:15:38Z</time>
      </trkpt>
      <trkpt lat="48.63106" lon="1.84074">
        <ele>147.3458457403</ele>
        <time>2019-09-15T08:15:54Z</time>
      </trkpt>
      <trkpt lat="48.63106" lon="1.84086">
        <ele>147.32054715143</ele>
        <time>2019-09-15T08:16:03Z</time>
      </trkpt>
      <trkpt lat="48.63105" lon="1.84099">
        <ele>147.3211225098</ele>
        <time>2019-09-15T08:16:15Z</time>
      </trkpt>
      <trkpt lat="48.63108" lon="1.84111">
        <ele>147.33024700792</ele>
        <time>2019-09-15T08:16:23Z</time>
      </trkpt>
      <trkpt lat="48.63108" lon="1.84124">
        <ele>147.34517953649</ele>
        <time>2019-09-15T08:16:29Z</time>
      </trkpt>
      <trkpt lat="48.63105" lon="1.84137">
        <ele>147.38293044723</ele>
        <time>2019-09-15T08:16:38Z</time>
      </trkpt>
      <trkpt lat="48.63099" lon="1.84145">
        <ele>147.44291531729</ele>
        <time>2019-09-15T08:16:44Z</time>
      </trkpt>
      <trkpt lat="48.63092" lon="1.84154">
        <ele>147.51757416736</ele>
        <time>2019-09-15T08:16:51Z</time>
      </trkpt>
      <trkpt lat="48.63085" lon="1.84159">
        <ele>147.5869574951</ele>
        <time>2019-09-15T08:16:59Z</time>
      </trkpt>
      <trkpt lat="48.63078" lon="1.84164">
        <ele>147.64658797382</ele>
        <time>2019-09-15T08:17:04Z</time>
      </trkpt>
      <trkpt lat="48.63073" lon="1.84173">
        <ele>147.74564062225</ele>
        <time>2019-09-15T08:17:12Z</time>
      </trkpt>
      <trkpt lat="48.63069" lon="1.84185">
        <ele>147.79896414191</ele>
        <time>2019-09-15T08:17:16Z</time>
      </trkpt>
      <trkpt lat="48.63067" lon="1.84197">
        <ele>147.87741063309</ele>
        <time>2019-09-15T08:17:22Z</time>
      </trkpt>
      <trkpt lat="48.63066" lon="1.84212">
        <ele>147.92542163856</ele>
        <time>2019-09-15T08:17:26Z</time>
      </trkpt>
      <trkpt lat="48.63058" lon="1.84212">
        <ele>148.04115789289</ele>
        <time>2019-09-15T08:17:39Z</time>
      </trkpt>
      <trkpt lat="48.63049" lon="1.84209">
        <ele>148.08287380715</ele>
        <time>2019-09-15T08:17:45Z</time>
      </trkpt>
      <trkpt lat="48.63041" lon="1.84209">
        <ele>148.12724047171</ele>
        <time>2019-09-15T08:17:53Z</time>
      </trkpt>
      <trkpt lat="48.63032" lon="1.84208">
        <ele>148.16105164818</ele>
        <time>2019-09-15T08:18:00Z</time>
      </trkpt>
      <trkpt lat="48.63024" lon="1.84204">
        <ele>148.18505541772</ele>
        <time>2019-09-15T08:18:06Z</time>
      </trkpt>
      <trkpt lat="48.63016" lon="1.84206">
        <ele>148.20520880008</ele>
        <time>2019-09-15T08:18:12Z</time>
      </trkpt>
      <trkpt lat="48.6301" lon="1.84215">
        <ele>148.22927797646</ele>
        <time>2019-09-15T08:18:21Z</time>
      </trkpt>
      <trkpt lat="48.63002" lon="1.84219">
        <ele>148.24248928311</ele>
        <time>2019-09-15T08:18:27Z</time>
      </trkpt>
      <trkpt lat="48.62994" lon="1.84224">
        <ele>148.24689319242</ele>
        <time>2019-09-15T08:18:31Z</time>
      </trkpt>
      <trkpt lat="48.62985" lon="1.84227">
        <ele>148.24983449743</ele>
        <time>2019-09-15T08:18:36Z</time>
      </trkpt>
      <trkpt lat="48.62978" lon="1.84232">
        <ele>148.25044171436</ele>
        <time>2019-09-15T08:18:44Z</time>
      </trkpt>
      <trkpt lat="48.62967" lon="1.84236">
        <ele>148.24435642838</ele>
        <time>2019-09-15T08:18:48Z</time>
      </trkpt>
      <trkpt lat="48.62958" lon="1.84237">
        <ele>148.22667130605</ele>
        <time>2019-09-15T08:18:56Z</time>
      </trkpt>
      <trkpt lat="48.6295" lon="1.84241">
        <ele>148.20808824811</ele>
        <time>2019-09-15T08:19:02Z</time>
      </trkpt>
      <trkpt lat="48.62942" lon="1.84248">
        <ele>148.18607402585</ele>
        <time>2019-09-15T08:19:09Z</time>
      </trkpt>
      <trkpt lat="48.62935" lon="1.84252">
        <ele>148.15522213896</ele>
        <time>2019-09-15T08:19:18Z</time>
      </trkpt>
      <trkpt lat="48.62928" lon="1.84255">
        <ele>148.133539004</ele>
        <time>2019-09-15T08:19:24Z</time>
      </trkpt>
      <trkpt lat="48.62921" lon="1.84259">
        <ele>148.09640650055</ele>
        <time>2019-09-15T08:19:36Z</time>
      </trkpt>
      <trkpt lat="48.62916" lon="1.84267">
        <ele>148.07784740621</ele>
        <time>2019-09-15T08:19:41Z</time>
      </trkpt>
      <trkpt lat="48.62908" lon="1.84276">
        <ele>148.03953355419</ele>
        <time>2019-09-15T08:19:50Z</time>
      </trkpt>
      <trkpt lat="48.62901" lon="1.84281">
        <ele>147.99145905634</ele>
        <time>2019-09-15T08:19:58Z</time>
      </trkpt>
      <trkpt lat="48.62894" lon="1.84287">
        <ele>147.94254133863</ele>
        <time>2019-09-15T08:20:06Z</time>
      </trkpt>
      <trkpt lat="48.62888" lon="1.84291">
        <ele>147.91195668706</ele>
        <time>2019-09-15T08:20:11Z</time>
      </trkpt>
      <trkpt lat="48.62879" lon="1.84293">
        <ele>147.83951519079</ele>
        <time>2019-09-15T08:20:38Z</time>
      </trkpt>
      <trkpt lat="48.62871" lon="1.84297">
        <ele>147.82737440429</ele>
        <time>2019-09-15T08:20:46Z</time>
      </trkpt>
      <trkpt lat="48.62863" lon="1.84302">
        <ele>147.82072793709</ele>
        <time>2019-09-15T08:20:53Z</time>
      </trkpt>
      <trkpt lat="48.62855" lon="1.84303">
        <ele>147.81009340265</ele>
        <time>2019-09-15T08:20:59Z</time>
      </trkpt>
      <trkpt lat="48.62846" lon="1.84298">
        <ele>147.78668115975</ele>
        <time>2019-09-15T08:21:18Z</time>
      </trkpt>
      <trkpt lat="48.62838" lon="1.84296">
        <ele>147.80100381116</ele>
        <time>2019-09-15T08:21:31Z</time>
      </trkpt>
      <trkpt lat="48.62831" lon="1.84289">
        <ele>147.79429368461</ele>
        <time>2019-09-15T08:21:38Z</time>
      </trkpt>
      <trkpt lat="48.62825" lon="1.84284">
        <ele>147.78703574112</ele>
        <time>2019-09-15T08:21:43Z</time>
      </trkpt>
      <trkpt lat="48.62816" lon="1.8428">
        <ele>147.77766122819</ele>
        <time>2019-09-15T08:21:48Z</time>
      </trkpt>
      <trkpt lat="48.62808" lon="1.84277">
        <ele>147.77221368039</ele>
        <time>2019-09-15T08:21:53Z</time>
      </trkpt>
      <trkpt lat="48.628" lon="1.84273">
        <ele>147.76990315043</ele>
        <time>2019-09-15T08:21:58Z</time>
      </trkpt>
      <trkpt lat="48.62791" lon="1.84269">
        <ele>147.77632882877</ele>
        <time>2019-09-15T08:22:05Z</time>
      </trkpt>
      <trkpt lat="48.62784" lon="1.84266">
        <ele>147.7923850252</ele>
        <time>2019-09-15T08:22:12Z</time>
      </trkpt>
      <trkpt lat="48.62776" lon="1.84261">
        <ele>147.8057198877</ele>
        <time>2019-09-15T08:22:16Z</time>
      </trkpt>
      <trkpt lat="48.62767" lon="1.84253">
        <ele>147.82353219407</ele>
        <time>2019-09-15T08:22:20Z</time>
      </trkpt>
      <trkpt lat="48.6276" lon="1.84248">
        <ele>147.86149772898</ele>
        <time>2019-09-15T08:22:27Z</time>
      </trkpt>
      <trkpt lat="48.62752" lon="1.84243">
        <ele>147.91783379541</ele>
        <time>2019-09-15T08:22:37Z</time>
      </trkpt>
      <trkpt lat="48.62744" lon="1.84238">
        <ele>147.96887491423</ele>
        <time>2019-09-15T08:22:47Z</time>
      </trkpt>
      <trkpt lat="48.62736" lon="1.84231">
        <ele>147.99455328332</ele>
        <time>2019-09-15T08:22:53Z</time>
      </trkpt>
      <trkpt lat="48.62733" lon="1.8422">
        <ele>148.01926439889</ele>
        <time>2019-09-15T08:23:02Z</time>
      </trkpt>
      <trkpt lat="48.62726" lon="1.84211">
        <ele>148.03917719413</ele>
        <time>2019-09-15T08:23:07Z</time>
      </trkpt>
      <trkpt lat="48.62721" lon="1.84201">
        <ele>148.07461970593</ele>
        <time>2019-09-15T08:23:12Z</time>
      </trkpt>
      <trkpt lat="48.62717" lon="1.8419">
        <ele>148.11952180572</ele>
        <time>2019-09-15T08:23:17Z</time>
      </trkpt>
      <trkpt lat="48.62712" lon="1.84179">
        <ele>148.18656494929</ele>
        <time>2019-09-15T08:23:23Z</time>
      </trkpt>
      <trkpt lat="48.62708" lon="1.84169">
        <ele>148.25763557072</ele>
        <time>2019-09-15T08:23:29Z</time>
      </trkpt>
      <trkpt lat="48.62702" lon="1.84159">
        <ele>148.3542304433</ele>
        <time>2019-09-15T08:23:37Z</time>
      </trkpt>
      <trkpt lat="48.62694" lon="1.84162">
        <ele>148.44606640626</ele>
        <time>2019-09-15T08:23:46Z</time>
      </trkpt>
      <trkpt lat="48.62688" lon="1.84169">
        <ele>148.49240119403</ele>
        <time>2019-09-15T08:23:52Z</time>
      </trkpt>
      <trkpt lat="48.62683" lon="1.84178">
        <ele>148.52490122096</ele>
        <time>2019-09-15T08:23:59Z</time>
      </trkpt>
      <trkpt lat="48.62681" lon="1.84193">
        <ele>148.52346786073</ele>
        <time>2019-09-15T08:24:04Z</time>
      </trkpt>
      <trkpt lat="48.6268" lon="1.84204">
        <ele>148.49820050376</ele>
        <time>2019-09-15T08:24:10Z</time>
      </trkpt>
      <trkpt lat="48.62677" lon="1.84214">
        <ele>148.46516764657</ele>
        <time>2019-09-15T08:24:16Z</time>
      </trkpt>
      <trkpt lat="48.62674" lon="1.84226">
        <ele>148.42287267861</ele>
        <time>2019-09-15T08:24:27Z</time>
      </trkpt>
      <trkpt lat="48.62669" lon="1.84235">
        <ele>148.39674830528</ele>
        <time>2019-09-15T08:24:33Z</time>
      </trkpt>
      <trkpt lat="48.62668" lon="1.84247">
        <ele>148.36560444555</ele>
        <time>2019-09-15T08:24:38Z</time>
      </trkpt>
      <trkpt lat="48.62665" lon="1.8426">
        <ele>148.30593328722</ele>
        <time>2019-09-15T08:24:45Z</time>
      </trkpt>
      <trkpt lat="48.62662" lon="1.84269">
        <ele>148.25255166298</ele>
        <time>2019-09-15T08:24:50Z</time>
      </trkpt>
      <trkpt lat="48.62658" lon="1.84282">
        <ele>148.18176715658</ele>
        <time>2019-09-15T08:24:56Z</time>
      </trkpt>
      <trkpt lat="48.62652" lon="1.84291">
        <ele>148.08561633085</ele>
        <time>2019-09-15T08:25:03Z</time>
      </trkpt>
      <trkpt lat="48.62649" lon="1.84303">
        <ele>147.97675036217</ele>
        <time>2019-09-15T08:25:11Z</time>
      </trkpt>
      <trkpt lat="48.62647" lon="1.84315">
        <ele>147.90827409175</ele>
        <time>2019-09-15T08:25:16Z</time>
      </trkpt>
      <trkpt lat="48.62644" lon="1.84326">
        <ele>147.81820967416</ele>
        <time>2019-09-15T08:25:22Z</time>
      </trkpt>
      <trkpt lat="48.6264" lon="1.84338">
        <ele>147.72689950963</ele>
        <time>2019-09-15T08:25:28Z</time>
      </trkpt>
      <trkpt lat="48.62635" lon="1.84346">
        <ele>147.65180402285</ele>
        <time>2019-09-15T08:25:33Z</time>
      </trkpt>
      <trkpt lat="48.62631" lon="1.84358">
        <ele>147.54012871615</ele>
        <time>2019-09-15T08:25:40Z</time>
      </trkpt>
      <trkpt lat="48.62629" lon="1.8437">
        <ele>147.43280213703</ele>
        <time>2019-09-15T08:25:47Z</time>
      </trkpt>
      <trkpt lat="48.62629" lon="1.84383">
        <ele>147.33646114465</ele>
        <time>2019-09-15T08:25:53Z</time>
      </trkpt>
      <trkpt lat="48.62637" lon="1.84379">
        <ele>147.16884104999</ele>
        <time>2019-09-15T08:26:06Z</time>
      </trkpt>
      <trkpt lat="48.62645" lon="1.84381">
        <ele>147.11473784299</ele>
        <time>2019-09-15T08:26:12Z</time>
      </trkpt>
      <trkpt lat="48.62654" lon="1.84378">
        <ele>147.07501858414</ele>
        <time>2019-09-15T08:26:17Z</time>
      </trkpt>
      <trkpt lat="48.62661" lon="1.84378">
        <ele>147.02967043069</ele>
        <time>2019-09-15T08:26:24Z</time>
      </trkpt>
      <trkpt lat="48.62669" lon="1.84374">
        <ele>146.93259327725</ele>
        <time>2019-09-15T08:26:43Z</time>
      </trkpt>
      <trkpt lat="48.62682" lon="1.84371">
        <ele>146.9199148332</ele>
        <time>2019-09-15T08:26:47Z</time>
      </trkpt>
      <trkpt lat="48.6269" lon="1.84375">
        <ele>146.90706696814</ele>
        <time>2019-09-15T08:26:55Z</time>
      </trkpt>
      <trkpt lat="48.62697" lon="1.84383">
        <ele>146.90759189164</ele>
        <time>2019-09-15T08:27:07Z</time>
      </trkpt>
      <trkpt lat="48.62705" lon="1.84388">
        <ele>146.92033682178</ele>
        <time>2019-09-15T08:27:13Z</time>
      </trkpt>
      <trkpt lat="48.62712" lon="1.84395">
        <ele>146.95428781903</ele>
        <time>2019-09-15T08:27:38Z</time>
      </trkpt>
      <trkpt lat="48.62719" lon="1.84401">
        <ele>146.98487287554</ele>
        <time>2019-09-15T08:27:47Z</time>
      </trkpt>
      <trkpt lat="48.62726" lon="1.84407">
        <ele>147.01669680665</ele>
        <time>2019-09-15T08:27:55Z</time>
      </trkpt>
      <trkpt lat="48.6273" lon="1.84418">
        <ele>147.03645357711</ele>
        <time>2019-09-15T08:28:02Z</time>
      </trkpt>
      <trkpt lat="48.62737" lon="1.84425">
        <ele>147.07493341099</ele>
        <time>2019-09-15T08:28:14Z</time>
      </trkpt>
      <trkpt lat="48.62745" lon="1.84431">
        <ele>147.09751480811</ele>
        <time>2019-09-15T08:28:20Z</time>
      </trkpt>
      <trkpt lat="48.62753" lon="1.84435">
        <ele>147.14371087321</ele>
        <time>2019-09-15T08:28:32Z</time>
      </trkpt>
      <trkpt lat="48.6276" lon="1.8444">
        <ele>147.17361428704</ele>
        <time>2019-09-15T08:28:38Z</time>
      </trkpt>
      <trkpt lat="48.62767" lon="1.84451">
        <ele>147.1918701156</ele>
        <time>2019-09-15T08:28:43Z</time>
      </trkpt>
      <trkpt lat="48.62775" lon="1.84458">
        <ele>147.19879280095</ele>
        <time>2019-09-15T08:28:49Z</time>
      </trkpt>
      <trkpt lat="48.62779" lon="1.84468">
        <ele>147.20347823324</ele>
        <time>2019-09-15T08:28:56Z</time>
      </trkpt>
      <trkpt lat="48.62783" lon="1.84478">
        <ele>147.20169329712</ele>
        <time>2019-09-15T08:29:03Z</time>
      </trkpt>
      <trkpt lat="48.62789" lon="1.84488">
        <ele>147.203722867</ele>
        <time>2019-09-15T08:29:10Z</time>
      </trkpt>
      <trkpt lat="48.62793" lon="1.84499">
        <ele>147.20335945501</ele>
        <time>2019-09-15T08:29:15Z</time>
      </trkpt>
      <trkpt lat="48.62796" lon="1.84511">
        <ele>147.19579465294</ele>
        <time>2019-09-15T08:29:20Z</time>
      </trkpt>
      <trkpt lat="48.62799" lon="1.84523">
        <ele>147.17994812597</ele>
        <time>2019-09-15T08:29:26Z</time>
      </trkpt>
      <trkpt lat="48.628" lon="1.84537">
        <ele>147.16310449553</ele>
        <time>2019-09-15T08:29:31Z</time>
      </trkpt>
      <trkpt lat="48.62801" lon="1.84549">
        <ele>147.13872519219</ele>
        <time>2019-09-15T08:29:38Z</time>
      </trkpt>
      <trkpt lat="48.62806" lon="1.84557">
        <ele>147.11025134557</ele>
        <time>2019-09-15T08:29:44Z</time>
      </trkpt>
      <trkpt lat="48.6281" lon="1.84568">
        <ele>147.07140067295</ele>
        <time>2019-09-15T08:29:51Z</time>
      </trkpt>
      <trkpt lat="48.62812" lon="1.8458">
        <ele>147.03778843006</ele>
        <time>2019-09-15T08:29:59Z</time>
      </trkpt>
      <trkpt lat="48.62815" lon="1.84591">
        <ele>147.02424116714</ele>
        <time>2019-09-15T08:30:05Z</time>
      </trkpt>
      <trkpt lat="48.62819" lon="1.84603">
        <ele>147.02059939762</ele>
        <time>2019-09-15T08:30:13Z</time>
      </trkpt>
      <trkpt lat="48.62822" lon="1.84615">
        <ele>147.01259009584</ele>
        <time>2019-09-15T08:30:21Z</time>
      </trkpt>
      <trkpt lat="48.62824" lon="1.84627">
        <ele>147.01485107719</ele>
        <time>2019-09-15T08:30:27Z</time>
      </trkpt>
      <trkpt lat="48.62827" lon="1.8464">
        <ele>147.02833099017</ele>
        <time>2019-09-15T08:30:32Z</time>
      </trkpt>
      <trkpt lat="48.6283" lon="1.8465">
        <ele>147.06265626512</ele>
        <time>2019-09-15T08:30:39Z</time>
      </trkpt>
      <trkpt lat="48.62834" lon="1.84661">
        <ele>147.09298018453</ele>
        <time>2019-09-15T08:30:45Z</time>
      </trkpt>
      <trkpt lat="48.62838" lon="1.84671">
        <ele>147.12437660897</ele>
        <time>2019-09-15T08:30:54Z</time>
      </trkpt>
      <trkpt lat="48.62844" lon="1.84679">
        <ele>147.14225594825</ele>
        <time>2019-09-15T08:31:01Z</time>
      </trkpt>
      <trkpt lat="48.6285" lon="1.84688">
        <ele>147.15609372624</ele>
        <time>2019-09-15T08:31:08Z</time>
      </trkpt>
      <trkpt lat="48.62856" lon="1.84697">
        <ele>147.16170136818</ele>
        <time>2019-09-15T08:31:13Z</time>
      </trkpt>
      <trkpt lat="48.62863" lon="1.84706">
        <ele>147.1703826006</ele>
        <time>2019-09-15T08:31:19Z</time>
      </trkpt>
      <trkpt lat="48.62869" lon="1.84715">
        <ele>147.18323586653</ele>
        <time>2019-09-15T08:31:29Z</time>
      </trkpt>
      <trkpt lat="48.62874" lon="1.84725">
        <ele>147.1975243788</ele>
        <time>2019-09-15T08:31:37Z</time>
      </trkpt>
      <trkpt lat="48.62882" lon="1.84731">
        <ele>147.21766022256</ele>
        <time>2019-09-15T08:31:43Z</time>
      </trkpt>
      <trkpt lat="48.6289" lon="1.84738">
        <ele>147.24075668336</ele>
        <time>2019-09-15T08:31:48Z</time>
      </trkpt>
      <trkpt lat="48.62896" lon="1.84745">
        <ele>147.25792555027</ele>
        <time>2019-09-15T08:31:53Z</time>
      </trkpt>
      <trkpt lat="48.62903" lon="1.84753">
        <ele>147.27300445</ele>
        <time>2019-09-15T08:31:59Z</time>
      </trkpt>
      <trkpt lat="48.6291" lon="1.84761">
        <ele>147.29016362297</ele>
        <time>2019-09-15T08:32:05Z</time>
      </trkpt>
      <trkpt lat="48.62917" lon="1.84768">
        <ele>147.31916287327</ele>
        <time>2019-09-15T08:32:13Z</time>
      </trkpt>
      <trkpt lat="48.62923" lon="1.8478">
        <ele>147.34395531829</ele>
        <time>2019-09-15T08:32:18Z</time>
      </trkpt>
      <trkpt lat="48.62928" lon="1.84789">
        <ele>147.38511555073</ele>
        <time>2019-09-15T08:32:26Z</time>
      </trkpt>
      <trkpt lat="48.62933" lon="1.84799">
        <ele>147.41723937241</ele>
        <time>2019-09-15T08:32:32Z</time>
      </trkpt>
      <trkpt lat="48.62939" lon="1.84809">
        <ele>147.46410773903</ele>
        <time>2019-09-15T08:32:39Z</time>
      </trkpt>
      <trkpt lat="48.6294" lon="1.84822">
        <ele>147.5170203067</ele>
        <time>2019-09-15T08:32:47Z</time>
      </trkpt>
      <trkpt lat="48.62942" lon="1.84834">
        <ele>147.54730817563</ele>
        <time>2019-09-15T08:32:52Z</time>
      </trkpt>
      <trkpt lat="48.62948" lon="1.84842">
        <ele>147.57815615389</ele>
        <time>2019-09-15T08:32:57Z</time>
      </trkpt>
      <trkpt lat="48.62953" lon="1.84852">
        <ele>147.61175256616</ele>
        <time>2019-09-15T08:33:02Z</time>
      </trkpt>
      <trkpt lat="48.62958" lon="1.84864">
        <ele>147.66202618994</ele>
        <time>2019-09-15T08:33:09Z</time>
      </trkpt>
      <trkpt lat="48.62961" lon="1.84874">
        <ele>147.69647464756</ele>
        <time>2019-09-15T08:33:14Z</time>
      </trkpt>
      <trkpt lat="48.62964" lon="1.84886">
        <ele>147.72142092535</ele>
        <time>2019-09-15T08:33:19Z</time>
      </trkpt>
      <trkpt lat="48.62968" lon="1.84898">
        <ele>147.75104855267</ele>
        <time>2019-09-15T08:33:26Z</time>
      </trkpt>
      <trkpt lat="48.62969" lon="1.8491">
        <ele>147.78054654091</ele>
        <time>2019-09-15T08:33:32Z</time>
      </trkpt>
      <trkpt lat="48.62975" lon="1.8492">
        <ele>147.8225833433</ele>
        <time>2019-09-15T08:33:39Z</time>
      </trkpt>
      <trkpt lat="48.62977" lon="1.84932">
        <ele>147.86610831401</ele>
        <time>2019-09-15T08:33:46Z</time>
      </trkpt>
      <trkpt lat="48.62979" lon="1.84944">
        <ele>147.92077152253</ele>
        <time>2019-09-15T08:33:53Z</time>
      </trkpt>
      <trkpt lat="48.62983" lon="1.84955">
        <ele>147.98953652697</ele>
        <time>2019-09-15T08:34:00Z</time>
      </trkpt>
      <trkpt lat="48.62987" lon="1.84966">
        <ele>148.04678987107</ele>
        <time>2019-09-15T08:34:05Z</time>
      </trkpt>
      <trkpt lat="48.62989" lon="1.84979">
        <ele>148.13079003349</ele>
        <time>2019-09-15T08:34:12Z</time>
      </trkpt>
      <trkpt lat="48.62991" lon="1.84992">
        <ele>148.19927165856</ele>
        <time>2019-09-15T08:34:18Z</time>
      </trkpt>
      <trkpt lat="48.62993" lon="1.85003">
        <ele>148.25350771166</ele>
        <time>2019-09-15T08:34:24Z</time>
      </trkpt>
      <trkpt lat="48.62998" lon="1.85013">
        <ele>148.3065426729</ele>
        <time>2019-09-15T08:34:30Z</time>
      </trkpt>
      <trkpt lat="48.63004" lon="1.85022">
        <ele>148.36303975969</ele>
        <time>2019-09-15T08:34:36Z</time>
      </trkpt>
      <trkpt lat="48.63009" lon="1.85032">
        <ele>148.41295477955</ele>
        <time>2019-09-15T08:34:42Z</time>
      </trkpt>
      <trkpt lat="48.63015" lon="1.85039">
        <ele>148.47695654093</ele>
        <time>2019-09-15T08:34:49Z</time>
      </trkpt>
      <trkpt lat="48.63022" lon="1.85046">
        <ele>148.58500392952</ele>
        <time>2019-09-15T08:34:58Z</time>
      </trkpt>
      <trkpt lat="48.6303" lon="1.8505">
        <ele>148.639327471</ele>
        <time>2019-09-15T08:35:02Z</time>
      </trkpt>
      <trkpt lat="48.63039" lon="1.85056">
        <ele>148.69742132695</ele>
        <time>2019-09-15T08:35:06Z</time>
      </trkpt>
      <trkpt lat="48.63045" lon="1.85065">
        <ele>148.78032725764</ele>
        <time>2019-09-15T08:35:12Z</time>
      </trkpt>
      <trkpt lat="48.63053" lon="1.85072">
        <ele>148.94966372575</ele>
        <time>2019-09-15T08:35:27Z</time>
      </trkpt>
      <trkpt lat="48.63059" lon="1.85081">
        <ele>149.0164622629</ele>
        <time>2019-09-15T08:35:33Z</time>
      </trkpt>
      <trkpt lat="48.63061" lon="1.85092">
        <ele>149.08759343071</ele>
        <time>2019-09-15T08:35:40Z</time>
      </trkpt>
      <trkpt lat="48.63064" lon="1.85104">
        <ele>149.14949120865</ele>
        <time>2019-09-15T08:35:47Z</time>
      </trkpt>
      <trkpt lat="48.63068" lon="1.85114">
        <ele>149.18074108176</ele>
        <time>2019-09-15T08:35:51Z</time>
      </trkpt>
      <trkpt lat="48.63072" lon="1.85124">
        <ele>149.22594366834</ele>
        <time>2019-09-15T08:35:57Z</time>
      </trkpt>
      <trkpt lat="48.63073" lon="1.85135">
        <ele>149.25923571807</ele>
        <time>2019-09-15T08:36:03Z</time>
      </trkpt>
      <trkpt lat="48.63077" lon="1.85146">
        <ele>149.29453604001</ele>
        <time>2019-09-15T08:36:11Z</time>
      </trkpt>
      <trkpt lat="48.63081" lon="1.85156">
        <ele>149.31990603601</ele>
        <time>2019-09-15T08:36:19Z</time>
      </trkpt>
      <trkpt lat="48.63084" lon="1.85168">
        <ele>149.34167911798</ele>
        <time>2019-09-15T08:36:28Z</time>
      </trkpt>
      <trkpt lat="48.63089" lon="1.85179">
        <ele>149.35695111051</ele>
        <time>2019-09-15T08:36:34Z</time>
      </trkpt>
      <trkpt lat="48.63093" lon="1.8519">
        <ele>149.36783188139</ele>
        <time>2019-09-15T08:36:39Z</time>
      </trkpt>
      <trkpt lat="48.63097" lon="1.852">
        <ele>149.38157401078</ele>
        <time>2019-09-15T08:36:49Z</time>
      </trkpt>
      <trkpt lat="48.63102" lon="1.8521">
        <ele>149.39204466102</ele>
        <time>2019-09-15T08:36:56Z</time>
      </trkpt>
      <trkpt lat="48.63109" lon="1.85218">
        <ele>149.40205053736</ele>
        <time>2019-09-15T08:37:02Z</time>
      </trkpt>
      <trkpt lat="48.63112" lon="1.8523">
        <ele>149.41281864477</ele>
        <time>2019-09-15T08:37:09Z</time>
      </trkpt>
      <trkpt lat="48.63115" lon="1.85241">
        <ele>149.42103412599</ele>
        <time>2019-09-15T08:37:15Z</time>
      </trkpt>
      <trkpt lat="48.63118" lon="1.85252">
        <ele>149.43160395065</ele>
        <time>2019-09-15T08:37:21Z</time>
      </trkpt>
      <trkpt lat="48.63122" lon="1.85263">
        <ele>149.44489935792</ele>
        <time>2019-09-15T08:37:28Z</time>
      </trkpt>
      <trkpt lat="48.63126" lon="1.85274">
        <ele>149.45614973344</ele>
        <time>2019-09-15T08:37:35Z</time>
      </trkpt>
      <trkpt lat="48.6313" lon="1.85286">
        <ele>149.46492935291</ele>
        <time>2019-09-15T08:37:42Z</time>
      </trkpt>
      <trkpt lat="48.63133" lon="1.85298">
        <ele>149.4749808551</ele>
        <time>2019-09-15T08:37:51Z</time>
      </trkpt>
      <trkpt lat="48.63136" lon="1.85309">
        <ele>149.49298764566</ele>
        <time>2019-09-15T08:38:00Z</time>
      </trkpt>
      <trkpt lat="48.63138" lon="1.85322">
        <ele>149.50598345341</ele>
        <time>2019-09-15T08:38:06Z</time>
      </trkpt>
      <trkpt lat="48.6314" lon="1.85334">
        <ele>149.53304201001</ele>
        <time>2019-09-15T08:38:13Z</time>
      </trkpt>
      <trkpt lat="48.63145" lon="1.85342">
        <ele>149.57207906534</ele>
        <time>2019-09-15T08:38:19Z</time>
      </trkpt>
      <trkpt lat="48.63149" lon="1.85353">
        <ele>149.60620648081</ele>
        <time>2019-09-15T08:38:26Z</time>
      </trkpt>
      <trkpt lat="48.63158" lon="1.85364">
        <ele>149.62216255356</ele>
        <time>2019-09-15T08:38:31Z</time>
      </trkpt>
      <trkpt lat="48.63162" lon="1.85373">
        <ele>149.63591349886</ele>
        <time>2019-09-15T08:38:35Z</time>
      </trkpt>
      <trkpt lat="48.63166" lon="1.85384">
        <ele>149.65969995544</ele>
        <time>2019-09-15T08:38:41Z</time>
      </trkpt>
      <trkpt lat="48.6317" lon="1.85395">
        <ele>149.69065250911</ele>
        <time>2019-09-15T08:38:51Z</time>
      </trkpt>
      <trkpt lat="48.63173" lon="1.85406">
        <ele>149.70004234469</ele>
        <time>2019-09-15T08:38:58Z</time>
      </trkpt>
      <trkpt lat="48.6318" lon="1.85413">
        <ele>149.71038785523</ele>
        <time>2019-09-15T08:39:05Z</time>
      </trkpt>
      <trkpt lat="48.63188" lon="1.85418">
        <ele>149.72212491985</ele>
        <time>2019-09-15T08:39:12Z</time>
      </trkpt>
      <trkpt lat="48.63191" lon="1.85431">
        <ele>149.73668319526</ele>
        <time>2019-09-15T08:39:18Z</time>
      </trkpt>
      <trkpt lat="48.63193" lon="1.85441">
        <ele>149.74567000731</ele>
        <time>2019-09-15T08:39:22Z</time>
      </trkpt>
      <trkpt lat="48.63193" lon="1.85453">
        <ele>149.75214990731</ele>
        <time>2019-09-15T08:39:27Z</time>
      </trkpt>
      <trkpt lat="48.63196" lon="1.85463">
        <ele>149.74776845717</ele>
        <time>2019-09-15T08:39:33Z</time>
      </trkpt>
      <trkpt lat="48.632" lon="1.85473">
        <ele>149.72042588672</ele>
        <time>2019-09-15T08:39:40Z</time>
      </trkpt>
      <trkpt lat="48.63203" lon="1.85484">
        <ele>149.69896985098</ele>
        <time>2019-09-15T08:39:45Z</time>
      </trkpt>
      <trkpt lat="48.63209" lon="1.85494">
        <ele>149.65859359841</ele>
        <time>2019-09-15T08:39:56Z</time>
      </trkpt>
      <trkpt lat="48.6322" lon="1.85504">
        <ele>149.64811018409</ele>
        <time>2019-09-15T08:40:01Z</time>
      </trkpt>
      <trkpt lat="48.63226" lon="1.85512">
        <ele>149.6482801125</ele>
        <time>2019-09-15T08:40:07Z</time>
      </trkpt>
      <trkpt lat="48.63232" lon="1.85521">
        <ele>149.64753326907</ele>
        <time>2019-09-15T08:40:15Z</time>
      </trkpt>
      <trkpt lat="48.63238" lon="1.85529">
        <ele>149.65651971481</ele>
        <time>2019-09-15T08:40:22Z</time>
      </trkpt>
      <trkpt lat="48.63244" lon="1.85537">
        <ele>149.68440627927</ele>
        <time>2019-09-15T08:40:29Z</time>
      </trkpt>
      <trkpt lat="48.63251" lon="1.85545">
        <ele>149.71215619222</ele>
        <time>2019-09-15T08:40:36Z</time>
      </trkpt>
      <trkpt lat="48.63256" lon="1.85553">
        <ele>149.72480389827</ele>
        <time>2019-09-15T08:40:43Z</time>
      </trkpt>
      <trkpt lat="48.63262" lon="1.85561">
        <ele>149.72994691292</ele>
        <time>2019-09-15T08:40:50Z</time>
      </trkpt>
      <trkpt lat="48.63267" lon="1.85571">
        <ele>149.7350764558</ele>
        <time>2019-09-15T08:40:55Z</time>
      </trkpt>
      <trkpt lat="48.6327" lon="1.85583">
        <ele>149.74011989647</ele>
        <time>2019-09-15T08:41:06Z</time>
      </trkpt>
      <trkpt lat="48.63271" lon="1.85593">
        <ele>149.73825143862</ele>
        <time>2019-09-15T08:41:11Z</time>
      </trkpt>
      <trkpt lat="48.63278" lon="1.85602">
        <ele>149.73257589033</ele>
        <time>2019-09-15T08:41:18Z</time>
      </trkpt>
      <trkpt lat="48.63284" lon="1.85608">
        <ele>149.71142215318</ele>
        <time>2019-09-15T08:41:26Z</time>
      </trkpt>
      <trkpt lat="48.63295" lon="1.85621">
        <ele>149.68857028046</ele>
        <time>2019-09-15T08:41:31Z</time>
      </trkpt>
      <trkpt lat="48.63299" lon="1.85632">
        <ele>149.6532098841</ele>
        <time>2019-09-15T08:41:37Z</time>
      </trkpt>
      <trkpt lat="48.63303" lon="1.85644">
        <ele>149.62544812993</ele>
        <time>2019-09-15T08:41:42Z</time>
      </trkpt>
      <trkpt lat="48.63308" lon="1.85655">
        <ele>149.61174992762</ele>
        <time>2019-09-15T08:41:50Z</time>
      </trkpt>
      <trkpt lat="48.63312" lon="1.85665">
        <ele>149.65026400122</ele>
        <time>2019-09-15T08:41:57Z</time>
      </trkpt>
      <trkpt lat="48.63316" lon="1.85675">
        <ele>149.70240832651</ele>
        <time>2019-09-15T08:42:03Z</time>
      </trkpt>
      <trkpt lat="48.63324" lon="1.85678">
        <ele>149.77246223083</ele>
        <time>2019-09-15T08:42:10Z</time>
      </trkpt>
      <trkpt lat="48.63333" lon="1.85679">
        <ele>149.83532530179</ele>
        <time>2019-09-15T08:42:16Z</time>
      </trkpt>
      <trkpt lat="48.63341" lon="1.8568">
        <ele>149.89274530332</ele>
        <time>2019-09-15T08:42:23Z</time>
      </trkpt>
      <trkpt lat="48.6335" lon="1.85675">
        <ele>150.01553286814</ele>
        <time>2019-09-15T08:42:31Z</time>
      </trkpt>
      <trkpt lat="48.63358" lon="1.85671">
        <ele>150.14800585563</ele>
        <time>2019-09-15T08:42:39Z</time>
      </trkpt>
      <trkpt lat="48.63366" lon="1.8567">
        <ele>150.30758897374</ele>
        <time>2019-09-15T08:42:49Z</time>
      </trkpt>
      <trkpt lat="48.63373" lon="1.85669">
        <ele>150.36252539237</ele>
        <time>2019-09-15T08:42:53Z</time>
      </trkpt>
      <trkpt lat="48.63382" lon="1.85666">
        <ele>150.41071247216</ele>
        <time>2019-09-15T08:42:57Z</time>
      </trkpt>
      <trkpt lat="48.63389" lon="1.85666">
        <ele>150.46404573713</ele>
        <time>2019-09-15T08:43:02Z</time>
      </trkpt>
      <trkpt lat="48.63397" lon="1.8567">
        <ele>150.53722183731</ele>
        <time>2019-09-15T08:43:09Z</time>
      </trkpt>
      <trkpt lat="48.63406" lon="1.85669">
        <ele>150.59525115337</ele>
        <time>2019-09-15T08:43:15Z</time>
      </trkpt>
      <trkpt lat="48.63413" lon="1.8567">
        <ele>150.64040143229</ele>
        <time>2019-09-15T08:43:20Z</time>
      </trkpt>
      <trkpt lat="48.63421" lon="1.85677">
        <ele>150.68869764959</ele>
        <time>2019-09-15T08:43:26Z</time>
      </trkpt>
      <trkpt lat="48.63428" lon="1.8568">
        <ele>150.74198632563</ele>
        <time>2019-09-15T08:43:35Z</time>
      </trkpt>
      <trkpt lat="48.63436" lon="1.85683">
        <ele>150.77079639745</ele>
        <time>2019-09-15T08:43:40Z</time>
      </trkpt>
      <trkpt lat="48.63445" lon="1.85685">
        <ele>150.80401758821</ele>
        <time>2019-09-15T08:43:45Z</time>
      </trkpt>
      <trkpt lat="48.63453" lon="1.85686">
        <ele>150.84922632102</ele>
        <time>2019-09-15T08:43:51Z</time>
      </trkpt>
      <trkpt lat="48.6346" lon="1.85692">
        <ele>150.89831182297</ele>
        <time>2019-09-15T08:43:57Z</time>
      </trkpt>
      <trkpt lat="48.63468" lon="1.85697">
        <ele>150.95845387675</ele>
        <time>2019-09-15T08:44:05Z</time>
      </trkpt>
      <trkpt lat="48.63475" lon="1.85701">
        <ele>151.00604253494</ele>
        <time>2019-09-15T08:44:12Z</time>
      </trkpt>
      <trkpt lat="48.63482" lon="1.85709">
        <ele>151.04469617042</ele>
        <time>2019-09-15T08:44:19Z</time>
      </trkpt>
      <trkpt lat="48.63488" lon="1.85715">
        <ele>151.07076118952</ele>
        <time>2019-09-15T08:44:27Z</time>
      </trkpt>
      <trkpt lat="48.63496" lon="1.8572">
        <ele>151.08206180823</ele>
        <time>2019-09-15T08:44:32Z</time>
      </trkpt>
      <trkpt lat="48.63504" lon="1.85725">
        <ele>151.09705851631</ele>
        <time>2019-09-15T08:44:38Z</time>
      </trkpt>
      <trkpt lat="48.63513" lon="1.85729">
        <ele>151.12102498195</ele>
        <time>2019-09-15T08:44:45Z</time>
      </trkpt>
      <trkpt lat="48.63521" lon="1.85729">
        <ele>151.14043258086</ele>
        <time>2019-09-15T08:44:50Z</time>
      </trkpt>
      <trkpt lat="48.63529" lon="1.85729">
        <ele>151.16048087235</ele>
        <time>2019-09-15T08:44:55Z</time>
      </trkpt>
      <trkpt lat="48.63537" lon="1.85728">
        <ele>151.1799957983</ele>
        <time>2019-09-15T08:45:00Z</time>
      </trkpt>
      <trkpt lat="48.63546" lon="1.85729">
        <ele>151.21086803909</ele>
        <time>2019-09-15T08:45:07Z</time>
      </trkpt>
      <trkpt lat="48.63555" lon="1.85731">
        <ele>151.25510725422</ele>
        <time>2019-09-15T08:45:17Z</time>
      </trkpt>
      <trkpt lat="48.63563" lon="1.8573">
        <ele>151.28610013345</ele>
        <time>2019-09-15T08:45:22Z</time>
      </trkpt>
      <trkpt lat="48.63571" lon="1.85734">
        <ele>151.34419729362</ele>
        <time>2019-09-15T08:45:31Z</time>
      </trkpt>
      <trkpt lat="48.63578" lon="1.8574">
        <ele>151.3980180695</ele>
        <time>2019-09-15T08:45:42Z</time>
      </trkpt>
      <trkpt lat="48.6358" lon="1.85752">
        <ele>151.42900155081</ele>
        <time>2019-09-15T08:45:51Z</time>
      </trkpt>
      <trkpt lat="48.63588" lon="1.85753">
        <ele>151.44705071195</ele>
        <time>2019-09-15T08:46:00Z</time>
      </trkpt>
      <trkpt lat="48.63596" lon="1.85749">
        <ele>151.46130874631</ele>
        <time>2019-09-15T08:46:09Z</time>
      </trkpt>
      <trkpt lat="48.63605" lon="1.85749">
        <ele>151.46479503689</ele>
        <time>2019-09-15T08:46:14Z</time>
      </trkpt>
      <trkpt lat="48.63613" lon="1.85748">
        <ele>151.46662730541</ele>
        <time>2019-09-15T08:46:19Z</time>
      </trkpt>
      <trkpt lat="48.63625" lon="1.85745">
        <ele>151.47199697562</ele>
        <time>2019-09-15T08:46:23Z</time>
      </trkpt>
      <trkpt lat="48.63633" lon="1.85749">
        <ele>151.49260066871</ele>
        <time>2019-09-15T08:46:30Z</time>
      </trkpt>
      <trkpt lat="48.63641" lon="1.85753">
        <ele>151.52153092638</ele>
        <time>2019-09-15T08:46:36Z</time>
      </trkpt>
      <trkpt lat="48.63649" lon="1.85758">
        <ele>151.55235043963</ele>
        <time>2019-09-15T08:46:42Z</time>
      </trkpt>
      <trkpt lat="48.63657" lon="1.85762">
        <ele>151.60586413863</ele>
        <time>2019-09-15T08:46:52Z</time>
      </trkpt>
      <trkpt lat="48.63666" lon="1.85764">
        <ele>151.64250647812</ele>
        <time>2019-09-15T08:46:59Z</time>
      </trkpt>
      <trkpt lat="48.63673" lon="1.85767">
        <ele>151.66531462819</ele>
        <time>2019-09-15T08:47:05Z</time>
      </trkpt>
      <trkpt lat="48.63684" lon="1.85769">
        <ele>151.6823835668</ele>
        <time>2019-09-15T08:47:10Z</time>
      </trkpt>
      <trkpt lat="48.63691" lon="1.85777">
        <ele>151.70169086058</ele>
        <time>2019-09-15T08:47:21Z</time>
      </trkpt>
      <trkpt lat="48.637" lon="1.85777">
        <ele>151.71777654919</ele>
        <time>2019-09-15T08:47:32Z</time>
      </trkpt>
      <trkpt lat="48.63708" lon="1.85774">
        <ele>151.73842391575</ele>
        <time>2019-09-15T08:47:40Z</time>
      </trkpt>
      <trkpt lat="48.63716" lon="1.85774">
        <ele>151.75168415217</ele>
        <time>2019-09-15T08:47:45Z</time>
      </trkpt>
      <trkpt lat="48.63724" lon="1.85775">
        <ele>151.7625469135</ele>
        <time>2019-09-15T08:47:50Z</time>
      </trkpt>
      <trkpt lat="48.63731" lon="1.85776">
        <ele>151.77576422871</ele>
        <time>2019-09-15T08:47:58Z</time>
      </trkpt>
      <trkpt lat="48.63739" lon="1.85778">
        <ele>151.78406191606</ele>
        <time>2019-09-15T08:48:03Z</time>
      </trkpt>
      <trkpt lat="48.63747" lon="1.85779">
        <ele>151.7912649166</ele>
        <time>2019-09-15T08:48:08Z</time>
      </trkpt>
      <trkpt lat="48.63755" lon="1.85777">
        <ele>151.79786565016</ele>
        <time>2019-09-15T08:48:12Z</time>
      </trkpt>
      <trkpt lat="48.63763" lon="1.8578">
        <ele>151.80895011309</ele>
        <time>2019-09-15T08:48:19Z</time>
      </trkpt>
      <trkpt lat="48.63772" lon="1.85783">
        <ele>151.82656656589</ele>
        <time>2019-09-15T08:48:26Z</time>
      </trkpt>
      <trkpt lat="48.6378" lon="1.85789">
        <ele>151.83584432022</ele>
        <time>2019-09-15T08:48:32Z</time>
      </trkpt>
      <trkpt lat="48.63788" lon="1.85789">
        <ele>151.85035750475</ele>
        <time>2019-09-15T08:48:41Z</time>
      </trkpt>
      <trkpt lat="48.63797" lon="1.85791">
        <ele>151.8893006456</ele>
        <time>2019-09-15T08:48:51Z</time>
      </trkpt>
      <trkpt lat="48.63805" lon="1.85791">
        <ele>151.9059851758</ele>
        <time>2019-09-15T08:48:57Z</time>
      </trkpt>
      <trkpt lat="48.63812" lon="1.85794">
        <ele>151.92122700941</ele>
        <time>2019-09-15T08:49:05Z</time>
      </trkpt>
      <trkpt lat="48.6382" lon="1.85802">
        <ele>151.93662301894</ele>
        <time>2019-09-15T08:49:14Z</time>
      </trkpt>
      <trkpt lat="48.63828" lon="1.85807">
        <ele>151.96259554399</ele>
        <time>2019-09-15T08:49:34Z</time>
      </trkpt>
      <trkpt lat="48.63837" lon="1.8581">
        <ele>151.96999618999</ele>
        <time>2019-09-15T08:49:39Z</time>
      </trkpt>
      <trkpt lat="48.63844" lon="1.85812">
        <ele>151.97718737805</ele>
        <time>2019-09-15T08:49:44Z</time>
      </trkpt>
      <trkpt lat="48.63861" lon="1.85813">
        <ele>151.98570876115</ele>
        <time>2019-09-15T08:49:49Z</time>
      </trkpt>
      <trkpt lat="48.63871" lon="1.85815">
        <ele>151.99158803436</ele>
        <time>2019-09-15T08:49:53Z</time>
      </trkpt>
      <trkpt lat="48.6388" lon="1.85816">
        <ele>151.99904643122</ele>
        <time>2019-09-15T08:49:57Z</time>
      </trkpt>
      <trkpt lat="48.63888" lon="1.85817">
        <ele>152.00649215081</ele>
        <time>2019-09-15T08:50:02Z</time>
      </trkpt>
      <trkpt lat="48.63896" lon="1.85817">
        <ele>152.00901776565</ele>
        <time>2019-09-15T08:50:08Z</time>
      </trkpt>
      <trkpt lat="48.63905" lon="1.85818">
        <ele>152.01273604144</ele>
        <time>2019-09-15T08:50:14Z</time>
      </trkpt>
      <trkpt lat="48.63913" lon="1.85818">
        <ele>152.01806353176</ele>
        <time>2019-09-15T08:50:21Z</time>
      </trkpt>
      <trkpt lat="48.63921" lon="1.85819">
        <ele>152.02092485829</ele>
        <time>2019-09-15T08:50:31Z</time>
      </trkpt>
      <trkpt lat="48.63931" lon="1.85824">
        <ele>152.02434672647</ele>
        <time>2019-09-15T08:50:36Z</time>
      </trkpt>
      <trkpt lat="48.63939" lon="1.85828">
        <ele>152.03283715619</ele>
        <time>2019-09-15T08:50:45Z</time>
      </trkpt>
      <trkpt lat="48.63947" lon="1.8583">
        <ele>152.04552143253</ele>
        <time>2019-09-15T08:50:52Z</time>
      </trkpt>
      <trkpt lat="48.63954" lon="1.85833">
        <ele>152.05646675049</ele>
        <time>2019-09-15T08:50:56Z</time>
      </trkpt>
      <trkpt lat="48.63962" lon="1.85836">
        <ele>152.07107099089</ele>
        <time>2019-09-15T08:51:01Z</time>
      </trkpt>
      <trkpt lat="48.6397" lon="1.8584">
        <ele>152.0855403682</ele>
        <time>2019-09-15T08:51:06Z</time>
      </trkpt>
      <trkpt lat="48.63976" lon="1.85843">
        <ele>152.09980520736</ele>
        <time>2019-09-15T08:51:11Z</time>
      </trkpt>
      <trkpt lat="48.63986" lon="1.85846">
        <ele>152.1144447324</ele>
        <time>2019-09-15T08:51:16Z</time>
      </trkpt>
      <trkpt lat="48.63995" lon="1.85848">
        <ele>152.13496761537</ele>
        <time>2019-09-15T08:51:23Z</time>
      </trkpt>
      <trkpt lat="48.64001" lon="1.85854">
        <ele>152.16978219057</ele>
        <time>2019-09-15T08:51:32Z</time>
      </trkpt>
      <trkpt lat="48.64009" lon="1.85858">
        <ele>152.1993707591</ele>
        <time>2019-09-15T08:51:38Z</time>
      </trkpt>
      <trkpt lat="48.64018" lon="1.85861">
        <ele>152.23527576649</ele>
        <time>2019-09-15T08:51:44Z</time>
      </trkpt>
      <trkpt lat="48.64025" lon="1.85864">
        <ele>152.27211718754</ele>
        <time>2019-09-15T08:51:50Z</time>
      </trkpt>
      <trkpt lat="48.64032" lon="1.85868">
        <ele>152.3036477422</ele>
        <time>2019-09-15T08:51:55Z</time>
      </trkpt>
      <trkpt lat="48.64041" lon="1.85869">
        <ele>152.32917688823</ele>
        <time>2019-09-15T08:51:59Z</time>
      </trkpt>
      <trkpt lat="48.6405" lon="1.85871">
        <ele>152.37672459807</ele>
        <time>2019-09-15T08:52:07Z</time>
      </trkpt>
      <trkpt lat="48.64059" lon="1.85872">
        <ele>152.41988560093</ele>
        <time>2019-09-15T08:52:15Z</time>
      </trkpt>
      <trkpt lat="48.64067" lon="1.85878">
        <ele>152.46765867621</ele>
        <time>2019-09-15T08:52:30Z</time>
      </trkpt>
      <trkpt lat="48.64073" lon="1.85885">
        <ele>152.48518749812</ele>
        <time>2019-09-15T08:52:37Z</time>
      </trkpt>
      <trkpt lat="48.64081" lon="1.85891">
        <ele>152.49658620242</ele>
        <time>2019-09-15T08:52:41Z</time>
      </trkpt>
      <trkpt lat="48.64092" lon="1.85893">
        <ele>152.5103349807</ele>
        <time>2019-09-15T08:52:46Z</time>
      </trkpt>
      <trkpt lat="48.641" lon="1.85896">
        <ele>152.51884245265</ele>
        <time>2019-09-15T08:52:55Z</time>
      </trkpt>
      <trkpt lat="48.64108" lon="1.85902">
        <ele>152.53079112613</ele>
        <time>2019-09-15T08:53:05Z</time>
      </trkpt>
      <trkpt lat="48.64114" lon="1.85907">
        <ele>152.53834875181</ele>
        <time>2019-09-15T08:53:10Z</time>
      </trkpt>
      <trkpt lat="48.64123" lon="1.85912">
        <ele>152.55238483418</ele>
        <time>2019-09-15T08:53:15Z</time>
      </trkpt>
      <trkpt lat="48.64131" lon="1.85916">
        <ele>152.56383395771</ele>
        <time>2019-09-15T08:53:19Z</time>
      </trkpt>
      <trkpt lat="48.64139" lon="1.85922">
        <ele>152.57334180244</ele>
        <time>2019-09-15T08:53:27Z</time>
      </trkpt>
      <trkpt lat="48.64147" lon="1.85925">
        <ele>152.58140708186</ele>
        <time>2019-09-15T08:53:34Z</time>
      </trkpt>
      <trkpt lat="48.64155" lon="1.85918">
        <ele>152.57975889051</ele>
        <time>2019-09-15T08:53:40Z</time>
      </trkpt>
      <trkpt lat="48.64164" lon="1.85919">
        <ele>152.55840011963</ele>
        <time>2019-09-15T08:53:50Z</time>
      </trkpt>
      <trkpt lat="48.64172" lon="1.85918">
        <ele>152.5501455845</ele>
        <time>2019-09-15T08:53:59Z</time>
      </trkpt>
      <trkpt lat="48.64179" lon="1.85921">
        <ele>152.54490151729</ele>
        <time>2019-09-15T08:54:03Z</time>
      </trkpt>
      <trkpt lat="48.64187" lon="1.85927">
        <ele>152.54380598909</ele>
        <time>2019-09-15T08:54:07Z</time>
      </trkpt>
      <trkpt lat="48.64193" lon="1.85933">
        <ele>152.53894183076</ele>
        <time>2019-09-15T08:54:14Z</time>
      </trkpt>
      <trkpt lat="48.64199" lon="1.85942">
        <ele>152.54117835909</ele>
        <time>2019-09-15T08:54:20Z</time>
      </trkpt>
      <trkpt lat="48.64204" lon="1.85953">
        <ele>152.56577319848</ele>
        <time>2019-09-15T08:54:28Z</time>
      </trkpt>
      <trkpt lat="48.64208" lon="1.85963">
        <ele>152.58897480097</ele>
        <time>2019-09-15T08:54:36Z</time>
      </trkpt>
      <trkpt lat="48.64213" lon="1.85974">
        <ele>152.60992109937</ele>
        <time>2019-09-15T08:54:43Z</time>
      </trkpt>
      <trkpt lat="48.64213" lon="1.85987">
        <ele>152.64225390947</ele>
        <time>2019-09-15T08:54:54Z</time>
      </trkpt>
      <trkpt lat="48.64213" lon="1.86">
        <ele>152.67980146533</ele>
        <time>2019-09-15T08:55:04Z</time>
      </trkpt>
      <trkpt lat="48.64209" lon="1.86012">
        <ele>152.72391181397</ele>
        <time>2019-09-15T08:55:18Z</time>
      </trkpt>
      <trkpt lat="48.64207" lon="1.86025">
        <ele>152.83320389032</ele>
        <time>2019-09-15T08:55:38Z</time>
      </trkpt>
      <trkpt lat="48.64204" lon="1.86037">
        <ele>152.91094116622</ele>
        <time>2019-09-15T08:55:45Z</time>
      </trkpt>
      <trkpt lat="48.64203" lon="1.86049">
        <ele>152.97085691177</ele>
        <time>2019-09-15T08:55:51Z</time>
      </trkpt>
      <trkpt lat="48.64205" lon="1.8606">
        <ele>152.99994803458</ele>
        <time>2019-09-15T08:55:55Z</time>
      </trkpt>
      <trkpt lat="48.64209" lon="1.86071">
        <ele>153.04976783723</ele>
        <time>2019-09-15T08:56:04Z</time>
      </trkpt>
      <trkpt lat="48.64217" lon="1.86079">
        <ele>153.06665522017</ele>
        <time>2019-09-15T08:56:12Z</time>
      </trkpt>
      <trkpt lat="48.64219" lon="1.86092">
        <ele>153.07089801148</ele>
        <time>2019-09-15T08:56:17Z</time>
      </trkpt>
      <trkpt lat="48.64223" lon="1.86103">
        <ele>153.0767379176</ele>
        <time>2019-09-15T08:56:24Z</time>
      </trkpt>
      <trkpt lat="48.64226" lon="1.86114">
        <ele>153.0692570344</ele>
        <time>2019-09-15T08:56:30Z</time>
      </trkpt>
      <trkpt lat="48.64228" lon="1.86126">
        <ele>153.05860088697</ele>
        <time>2019-09-15T08:56:35Z</time>
      </trkpt>
      <trkpt lat="48.64231" lon="1.86137">
        <ele>153.0383516711</ele>
        <time>2019-09-15T08:56:43Z</time>
      </trkpt>
      <trkpt lat="48.6423" lon="1.86149">
        <ele>153.01394241007</ele>
        <time>2019-09-15T08:56:48Z</time>
      </trkpt>
      <trkpt lat="48.64233" lon="1.86162">
        <ele>152.94069705402</ele>
        <time>2019-09-15T08:56:57Z</time>
      </trkpt>
      <trkpt lat="48.64238" lon="1.86168">
        <ele>152.88505091999</ele>
        <time>2019-09-15T08:57:03Z</time>
      </trkpt>
      <trkpt lat="48.64249" lon="1.8618">
        <ele>152.84972030108</ele>
        <time>2019-09-15T08:57:07Z</time>
      </trkpt>
      <trkpt lat="48.64257" lon="1.86188">
        <ele>152.81791357317</ele>
        <time>2019-09-15T08:57:11Z</time>
      </trkpt>
      <trkpt lat="48.64263" lon="1.86198">
        <ele>152.77413229067</ele>
        <time>2019-09-15T08:57:16Z</time>
      </trkpt>
      <trkpt lat="48.6427" lon="1.86207">
        <ele>152.70122666963</ele>
        <time>2019-09-15T08:57:25Z</time>
      </trkpt>
      <trkpt lat="48.64274" lon="1.86219">
        <ele>152.5920149843</ele>
        <time>2019-09-15T08:57:36Z</time>
      </trkpt>
      <trkpt lat="48.6428" lon="1.86228">
        <ele>152.49637350766</ele>
        <time>2019-09-15T08:57:45Z</time>
      </trkpt>
      <trkpt lat="48.64286" lon="1.86236">
        <ele>152.4496604897</ele>
        <time>2019-09-15T08:57:50Z</time>
      </trkpt>
      <trkpt lat="48.64292" lon="1.8625">
        <ele>152.40981208515</ele>
        <time>2019-09-15T08:57:55Z</time>
      </trkpt>
      <trkpt lat="48.64296" lon="1.86259">
        <ele>152.36189187867</ele>
        <time>2019-09-15T08:58:02Z</time>
      </trkpt>
      <trkpt lat="48.643" lon="1.86271">
        <ele>152.32348269639</ele>
        <time>2019-09-15T08:58:08Z</time>
      </trkpt>
      <trkpt lat="48.64304" lon="1.86282">
        <ele>152.29251417293</ele>
        <time>2019-09-15T08:58:13Z</time>
      </trkpt>
      <trkpt lat="48.64311" lon="1.86286">
        <ele>152.26802207445</ele>
        <time>2019-09-15T08:58:17Z</time>
      </trkpt>
      <trkpt lat="48.64318" lon="1.86291">
        <ele>152.24319134116</ele>
        <time>2019-09-15T08:58:22Z</time>
      </trkpt>
      <trkpt lat="48.64325" lon="1.86295">
        <ele>152.22558499071</ele>
        <time>2019-09-15T08:58:28Z</time>
      </trkpt>
      <trkpt lat="48.64324" lon="1.86314">
        <ele>152.20962145263</ele>
        <time>2019-09-15T08:58:32Z</time>
      </trkpt>
      <trkpt lat="48.64328" lon="1.86325">
        <ele>152.09092448882</ele>
        <time>2019-09-15T08:58:43Z</time>
      </trkpt>
      <trkpt lat="48.64331" lon="1.86337">
        <ele>151.98319443721</ele>
        <time>2019-09-15T08:58:53Z</time>
      </trkpt>
      <trkpt lat="48.6433" lon="1.8635">
        <ele>151.93227428563</ele>
        <time>2019-09-15T08:58:58Z</time>
      </trkpt>
      <trkpt lat="48.64332" lon="1.86361">
        <ele>151.87232820166</ele>
        <time>2019-09-15T08:59:03Z</time>
      </trkpt>
      <trkpt lat="48.6434" lon="1.86367">
        <ele>151.76606802335</ele>
        <time>2019-09-15T08:59:11Z</time>
      </trkpt>
      <trkpt lat="48.64347" lon="1.86379">
        <ele>151.70522847254</ele>
        <time>2019-09-15T08:59:16Z</time>
      </trkpt>
      <trkpt lat="48.64353" lon="1.86388">
        <ele>151.65187125582</ele>
        <time>2019-09-15T08:59:21Z</time>
      </trkpt>
      <trkpt lat="48.64357" lon="1.86399">
        <ele>151.58451584284</ele>
        <time>2019-09-15T08:59:28Z</time>
      </trkpt>
      <trkpt lat="48.64361" lon="1.8641">
        <ele>151.49998973481</ele>
        <time>2019-09-15T08:59:35Z</time>
      </trkpt>
      <trkpt lat="48.64364" lon="1.86423">
        <ele>151.43395475906</ele>
        <time>2019-09-15T08:59:41Z</time>
      </trkpt>
      <trkpt lat="48.64369" lon="1.86432">
        <ele>151.37670931482</ele>
        <time>2019-09-15T08:59:48Z</time>
      </trkpt>
      <trkpt lat="48.6437" lon="1.86445">
        <ele>151.32165315747</ele>
        <time>2019-09-15T08:59:55Z</time>
      </trkpt>
      <trkpt lat="48.64371" lon="1.86457">
        <ele>151.29070513402</ele>
        <time>2019-09-15T09:00:00Z</time>
      </trkpt>
      <trkpt lat="48.64366" lon="1.86469">
        <ele>151.25983659714</ele>
        <time>2019-09-15T09:00:04Z</time>
      </trkpt>
      <trkpt lat="48.64366" lon="1.86481">
        <ele>151.21442233398</ele>
        <time>2019-09-15T09:00:09Z</time>
      </trkpt>
      <trkpt lat="48.64366" lon="1.86491">
        <ele>151.15212597419</ele>
        <time>2019-09-15T09:00:14Z</time>
      </trkpt>
      <trkpt lat="48.64372" lon="1.865">
        <ele>151.08453934814</ele>
        <time>2019-09-15T09:00:19Z</time>
      </trkpt>
      <trkpt lat="48.64377" lon="1.8651">
        <ele>151.0145890819</ele>
        <time>2019-09-15T09:00:25Z</time>
      </trkpt>
      <trkpt lat="48.64379" lon="1.86522">
        <ele>150.94635500333</ele>
        <time>2019-09-15T09:00:31Z</time>
      </trkpt>
      <trkpt lat="48.64382" lon="1.86534">
        <ele>150.8489705822</ele>
        <time>2019-09-15T09:00:39Z</time>
      </trkpt>
      <trkpt lat="48.64383" lon="1.86545">
        <ele>150.76274298576</ele>
        <time>2019-09-15T09:00:45Z</time>
      </trkpt>
      <trkpt lat="48.64387" lon="1.86556">
        <ele>150.59757923834</ele>
        <time>2019-09-15T09:00:54Z</time>
      </trkpt>
      <trkpt lat="48.64396" lon="1.86559">
        <ele>150.42607323598</ele>
        <time>2019-09-15T09:01:03Z</time>
      </trkpt>
      <trkpt lat="48.64412" lon="1.86551">
        <ele>150.34055027266</ele>
        <time>2019-09-15T09:01:08Z</time>
      </trkpt>
      <trkpt lat="48.64428" lon="1.86551">
        <ele>150.25891230416</ele>
        <time>2019-09-15T09:01:13Z</time>
      </trkpt>
      <trkpt lat="48.64435" lon="1.86558">
        <ele>150.04821874308</ele>
        <time>2019-09-15T09:01:32Z</time>
      </trkpt>
      <trkpt lat="48.64443" lon="1.86556">
        <ele>149.95533060449</ele>
        <time>2019-09-15T09:01:40Z</time>
      </trkpt>
      <trkpt lat="48.64457" lon="1.86546">
        <ele>149.90191066426</ele>
        <time>2019-09-15T09:01:45Z</time>
      </trkpt>
      <trkpt lat="48.64466" lon="1.86549">
        <ele>149.89247971148</ele>
        <time>2019-09-15T09:02:17Z</time>
      </trkpt>
      <trkpt lat="48.64477" lon="1.86545">
        <ele>149.88678569061</ele>
        <time>2019-09-15T09:02:22Z</time>
      </trkpt>
      <trkpt lat="48.6449" lon="1.86525">
        <ele>149.85709355113</ele>
        <time>2019-09-15T09:02:27Z</time>
      </trkpt>
      <trkpt lat="48.64502" lon="1.86515">
        <ele>149.8189710206</ele>
        <time>2019-09-15T09:02:31Z</time>
      </trkpt>
      <trkpt lat="48.64504" lon="1.86528">
        <ele>149.68262628722</ele>
        <time>2019-09-15T09:02:53Z</time>
      </trkpt>
      <trkpt lat="48.64498" lon="1.86538">
        <ele>149.6173403278</ele>
        <time>2019-09-15T09:03:06Z</time>
      </trkpt>
      <trkpt lat="48.6449" lon="1.86541">
        <ele>149.55282625019</ele>
        <time>2019-09-15T09:03:16Z</time>
      </trkpt>
      <trkpt lat="48.64483" lon="1.86541">
        <ele>149.52524510557</ele>
        <time>2019-09-15T09:03:20Z</time>
      </trkpt>
      <trkpt lat="48.64474" lon="1.86539">
        <ele>149.49000495065</ele>
        <time>2019-09-15T09:03:27Z</time>
      </trkpt>
      <trkpt lat="48.64466" lon="1.86536">
        <ele>149.35826858595</ele>
        <time>2019-09-15T09:03:54Z</time>
      </trkpt>
      <trkpt lat="48.64461" lon="1.86548">
        <ele>149.7466907675</ele>
        <time>2019-09-15T09:05:20Z</time>
      </trkpt>
      <trkpt lat="48.64457" lon="1.86558">
        <ele>150.95201848377</ele>
        <time>2019-09-15T09:06:22Z</time>
      </trkpt>
      <trkpt lat="48.64449" lon="1.86562">
        <ele>152.27295829455</ele>
        <time>2019-09-15T09:07:15Z</time>
      </trkpt>
      <trkpt lat="48.64458" lon="1.86561">
        <ele>153.08743811947</ele>
        <time>2019-09-15T09:07:35Z</time>
      </trkpt>
      <trkpt lat="48.64466" lon="1.86561">
        <ele>153.87409542065</ele>
        <time>2019-09-15T09:08:11Z</time>
      </trkpt>
      <trkpt lat="48.64467" lon="1.86547">
        <ele>154.18627957155</ele>
        <time>2019-09-15T09:08:23Z</time>
      </trkpt>
      <trkpt lat="48.64474" lon="1.86554">
        <ele>154.68792063763</ele>
        <time>2019-09-15T09:08:45Z</time>
      </trkpt>
      <trkpt lat="48.64483" lon="1.86554">
        <ele>154.90288608983</ele>
        <time>2019-09-15T09:08:56Z</time>
      </trkpt>
      <trkpt lat="48.64491" lon="1.86557">
        <ele>155.03436441551</ele>
        <time>2019-09-15T09:09:05Z</time>
      </trkpt>
      <trkpt lat="48.64499" lon="1.86558">
        <ele>155.09515620538</ele>
        <time>2019-09-15T09:09:11Z</time>
      </trkpt>
      <trkpt lat="48.64508" lon="1.86557">
        <ele>155.14338339524</ele>
        <time>2019-09-15T09:09:18Z</time>
      </trkpt>
      <trkpt lat="48.64516" lon="1.8656">
        <ele>155.16739882895</ele>
        <time>2019-09-15T09:09:23Z</time>
      </trkpt>
      <trkpt lat="48.64524" lon="1.86563">
        <ele>155.18888797602</ele>
        <time>2019-09-15T09:09:28Z</time>
      </trkpt>
      <trkpt lat="48.64532" lon="1.86569">
        <ele>155.21187423643</ele>
        <time>2019-09-15T09:09:35Z</time>
      </trkpt>
      <trkpt lat="48.6454" lon="1.86572">
        <ele>155.22112867911</ele>
        <time>2019-09-15T09:09:42Z</time>
      </trkpt>
      <trkpt lat="48.64546" lon="1.8658">
        <ele>155.22619361031</ele>
        <time>2019-09-15T09:09:47Z</time>
      </trkpt>
      <trkpt lat="48.64554" lon="1.86583">
        <ele>155.23126014753</ele>
        <time>2019-09-15T09:09:52Z</time>
      </trkpt>
      <trkpt lat="48.64559" lon="1.86594">
        <ele>155.23734153361</ele>
        <time>2019-09-15T09:10:01Z</time>
      </trkpt>
      <trkpt lat="48.64564" lon="1.86603">
        <ele>155.23832226713</ele>
        <time>2019-09-15T09:10:07Z</time>
      </trkpt>
      <trkpt lat="48.6457" lon="1.86613">
        <ele>155.23817815348</ele>
        <time>2019-09-15T09:10:12Z</time>
      </trkpt>
      <trkpt lat="48.64576" lon="1.86621">
        <ele>155.23610043171</ele>
        <time>2019-09-15T09:10:20Z</time>
      </trkpt>
      <trkpt lat="48.6458" lon="1.86633">
        <ele>155.23762775053</ele>
        <time>2019-09-15T09:10:27Z</time>
      </trkpt>
      <trkpt lat="48.64584" lon="1.86643">
        <ele>155.22980994751</ele>
        <time>2019-09-15T09:10:37Z</time>
      </trkpt>
      <trkpt lat="48.64585" lon="1.86654">
        <ele>155.20790973303</ele>
        <time>2019-09-15T09:10:42Z</time>
      </trkpt>
      <trkpt lat="48.64589" lon="1.86667">
        <ele>155.16284805153</ele>
        <time>2019-09-15T09:10:47Z</time>
      </trkpt>
      <trkpt lat="48.64594" lon="1.86675">
        <ele>155.1136770445</ele>
        <time>2019-09-15T09:10:52Z</time>
      </trkpt>
      <trkpt lat="48.64598" lon="1.86685">
        <ele>155.05627784479</ele>
        <time>2019-09-15T09:10:58Z</time>
      </trkpt>
      <trkpt lat="48.64596" lon="1.86698">
        <ele>155.01168136462</ele>
        <time>2019-09-15T09:11:03Z</time>
      </trkpt>
      <trkpt lat="48.64597" lon="1.86712">
        <ele>154.94649303773</ele>
        <time>2019-09-15T09:11:11Z</time>
      </trkpt>
      <trkpt lat="48.64604" lon="1.8672">
        <ele>154.88351383232</ele>
        <time>2019-09-15T09:11:18Z</time>
      </trkpt>
      <trkpt lat="48.64608" lon="1.86728">
        <ele>154.84530201037</ele>
        <time>2019-09-15T09:11:23Z</time>
      </trkpt>
      <trkpt lat="48.64617" lon="1.86736">
        <ele>154.8166623083</ele>
        <time>2019-09-15T09:11:27Z</time>
      </trkpt>
      <trkpt lat="48.64624" lon="1.86743">
        <ele>154.76627570548</ele>
        <time>2019-09-15T09:11:34Z</time>
      </trkpt>
      <trkpt lat="48.64632" lon="1.86747">
        <ele>154.72684038389</ele>
        <time>2019-09-15T09:11:39Z</time>
      </trkpt>
      <trkpt lat="48.64641" lon="1.86751">
        <ele>154.67955861202</ele>
        <time>2019-09-15T09:11:45Z</time>
      </trkpt>
      <trkpt lat="48.64648" lon="1.86753">
        <ele>154.62382103414</ele>
        <time>2019-09-15T09:11:53Z</time>
      </trkpt>
      <trkpt lat="48.64656" lon="1.8676">
        <ele>154.58782870152</ele>
        <time>2019-09-15T09:11:58Z</time>
      </trkpt>
      <trkpt lat="48.64662" lon="1.86768">
        <ele>154.55438283616</ele>
        <time>2019-09-15T09:12:03Z</time>
      </trkpt>
      <trkpt lat="48.64667" lon="1.86778">
        <ele>154.51254343586</ele>
        <time>2019-09-15T09:12:10Z</time>
      </trkpt>
      <trkpt lat="48.64674" lon="1.86783">
        <ele>154.47052660954</ele>
        <time>2019-09-15T09:12:17Z</time>
      </trkpt>
      <trkpt lat="48.64681" lon="1.86789">
        <ele>154.44115210077</ele>
        <time>2019-09-15T09:12:23Z</time>
      </trkpt>
      <trkpt lat="48.64687" lon="1.86797">
        <ele>154.41062737419</ele>
        <time>2019-09-15T09:12:31Z</time>
      </trkpt>
      <trkpt lat="48.64695" lon="1.86802">
        <ele>154.37279380043</ele>
        <time>2019-09-15T09:12:40Z</time>
      </trkpt>
      <trkpt lat="48.64702" lon="1.86811">
        <ele>154.35080598275</ele>
        <time>2019-09-15T09:12:45Z</time>
      </trkpt>
      <trkpt lat="48.6471" lon="1.86811">
        <ele>154.32721561936</ele>
        <time>2019-09-15T09:12:50Z</time>
      </trkpt>
      <trkpt lat="48.64717" lon="1.86817">
        <ele>154.3066080733</ele>
        <time>2019-09-15T09:12:57Z</time>
      </trkpt>
      <trkpt lat="48.64725" lon="1.86824">
        <ele>154.27983538277</ele>
        <time>2019-09-15T09:13:06Z</time>
      </trkpt>
      <trkpt lat="48.64726" lon="1.86837">
        <ele>154.17433046619</ele>
        <time>2019-09-15T09:13:18Z</time>
      </trkpt>
      <trkpt lat="48.64731" lon="1.86848">
        <ele>154.02139584242</ele>
        <time>2019-09-15T09:13:26Z</time>
      </trkpt>
      <trkpt lat="48.64741" lon="1.86856">
        <ele>153.9209190707</ele>
        <time>2019-09-15T09:13:31Z</time>
      </trkpt>
      <trkpt lat="48.64743" lon="1.86869">
        <ele>153.83976998102</ele>
        <time>2019-09-15T09:13:36Z</time>
      </trkpt>
      <trkpt lat="48.64752" lon="1.86872">
        <ele>153.71837808175</ele>
        <time>2019-09-15T09:13:42Z</time>
      </trkpt>
      <trkpt lat="48.64764" lon="1.86873">
        <ele>153.61971069386</ele>
        <time>2019-09-15T09:13:47Z</time>
      </trkpt>
      <trkpt lat="48.64769" lon="1.86883">
        <ele>153.39089553462</ele>
        <time>2019-09-15T09:13:59Z</time>
      </trkpt>
      <trkpt lat="48.64767" lon="1.86895">
        <ele>153.26585705483</ele>
        <time>2019-09-15T09:14:06Z</time>
      </trkpt>
      <trkpt lat="48.6477" lon="1.86906">
        <ele>153.18014803969</ele>
        <time>2019-09-15T09:14:12Z</time>
      </trkpt>
      <trkpt lat="48.64773" lon="1.86918">
        <ele>153.13163716448</ele>
        <time>2019-09-15T09:14:16Z</time>
      </trkpt>
      <trkpt lat="48.64775" lon="1.86929">
        <ele>153.0202996934</ele>
        <time>2019-09-15T09:14:23Z</time>
      </trkpt>
      <trkpt lat="48.64778" lon="1.86941">
        <ele>152.93585208487</ele>
        <time>2019-09-15T09:14:29Z</time>
      </trkpt>
      <trkpt lat="48.64782" lon="1.86954">
        <ele>152.8504540323</ele>
        <time>2019-09-15T09:14:37Z</time>
      </trkpt>
      <trkpt lat="48.6478" lon="1.86967">
        <ele>152.74733971424</ele>
        <time>2019-09-15T09:14:46Z</time>
      </trkpt>
      <trkpt lat="48.64775" lon="1.86978">
        <ele>152.67141041848</ele>
        <time>2019-09-15T09:14:58Z</time>
      </trkpt>
      <trkpt lat="48.64772" lon="1.86989">
        <ele>152.65012207747</ele>
        <time>2019-09-15T09:15:06Z</time>
      </trkpt>
      <trkpt lat="48.64768" lon="1.86999">
        <ele>152.63760749227</ele>
        <time>2019-09-15T09:15:12Z</time>
      </trkpt>
      <trkpt lat="48.64764" lon="1.87008">
        <ele>152.63749085794</ele>
        <time>2019-09-15T09:15:20Z</time>
      </trkpt>
      <trkpt lat="48.64761" lon="1.8702">
        <ele>152.67201231905</ele>
        <time>2019-09-15T09:15:30Z</time>
      </trkpt>
      <trkpt lat="48.64758" lon="1.87031">
        <ele>152.71658608137</ele>
        <time>2019-09-15T09:15:36Z</time>
      </trkpt>
      <trkpt lat="48.64755" lon="1.87042">
        <ele>152.76778704598</ele>
        <time>2019-09-15T09:15:42Z</time>
      </trkpt>
      <trkpt lat="48.64751" lon="1.87054">
        <ele>152.81066007356</ele>
        <time>2019-09-15T09:15:48Z</time>
      </trkpt>
      <trkpt lat="48.64746" lon="1.87063">
        <ele>152.85337141074</ele>
        <time>2019-09-15T09:15:55Z</time>
      </trkpt>
      <trkpt lat="48.6474" lon="1.87072">
        <ele>152.90242547132</ele>
        <time>2019-09-15T09:16:03Z</time>
      </trkpt>
      <trkpt lat="48.64735" lon="1.87084">
        <ele>152.93727026859</ele>
        <time>2019-09-15T09:16:08Z</time>
      </trkpt>
      <trkpt lat="48.64731" lon="1.87094">
        <ele>152.97048517703</ele>
        <time>2019-09-15T09:16:12Z</time>
      </trkpt>
      <trkpt lat="48.64728" lon="1.87106">
        <ele>153.11219264841</ele>
        <time>2019-09-15T09:16:22Z</time>
      </trkpt>
      <trkpt lat="48.64726" lon="1.87118">
        <ele>153.25516018727</ele>
        <time>2019-09-15T09:16:31Z</time>
      </trkpt>
      <trkpt lat="48.64721" lon="1.87128">
        <ele>153.35465436098</ele>
        <time>2019-09-15T09:16:38Z</time>
      </trkpt>
      <trkpt lat="48.64716" lon="1.87139">
        <ele>153.40304676474</ele>
        <time>2019-09-15T09:16:42Z</time>
      </trkpt>
      <trkpt lat="48.64711" lon="1.87149">
        <ele>153.45693342606</ele>
        <time>2019-09-15T09:16:47Z</time>
      </trkpt>
      <trkpt lat="48.64707" lon="1.87159">
        <ele>153.52121304316</ele>
        <time>2019-09-15T09:16:53Z</time>
      </trkpt>
      <trkpt lat="48.64703" lon="1.8717">
        <ele>153.57674075085</ele>
        <time>2019-09-15T09:16:59Z</time>
      </trkpt>
      <trkpt lat="48.64698" lon="1.8718">
        <ele>153.6391452695</ele>
        <time>2019-09-15T09:17:06Z</time>
      </trkpt>
      <trkpt lat="48.64696" lon="1.87192">
        <ele>153.71088805192</ele>
        <time>2019-09-15T09:17:14Z</time>
      </trkpt>
      <trkpt lat="48.64691" lon="1.87201">
        <ele>153.78664213796</ele>
        <time>2019-09-15T09:17:22Z</time>
      </trkpt>
      <trkpt lat="48.64687" lon="1.87213">
        <ele>153.84352302314</ele>
        <time>2019-09-15T09:17:29Z</time>
      </trkpt>
      <trkpt lat="48.64681" lon="1.8722">
        <ele>153.88018658042</ele>
        <time>2019-09-15T09:17:34Z</time>
      </trkpt>
      <trkpt lat="48.64677" lon="1.87231">
        <ele>153.91996630753</ele>
        <time>2019-09-15T09:17:39Z</time>
      </trkpt>
      <trkpt lat="48.64674" lon="1.87243">
        <ele>153.97426411794</ele>
        <time>2019-09-15T09:17:45Z</time>
      </trkpt>
      <trkpt lat="48.64674" lon="1.87256">
        <ele>154.14343956625</ele>
        <time>2019-09-15T09:17:57Z</time>
      </trkpt>
      <trkpt lat="48.64681" lon="1.87264">
        <ele>154.34511620906</ele>
        <time>2019-09-15T09:18:07Z</time>
      </trkpt>
      <trkpt lat="48.64687" lon="1.87272">
        <ele>154.56570045275</ele>
        <time>2019-09-15T09:18:16Z</time>
      </trkpt>
      <trkpt lat="48.64694" lon="1.8728">
        <ele>154.72000036449</ele>
        <time>2019-09-15T09:18:22Z</time>
      </trkpt>
      <trkpt lat="48.64699" lon="1.87287">
        <ele>154.84174872414</ele>
        <time>2019-09-15T09:18:27Z</time>
      </trkpt>
      <trkpt lat="48.64704" lon="1.87298">
        <ele>154.96405889742</ele>
        <time>2019-09-15T09:18:32Z</time>
      </trkpt>
      <trkpt lat="48.64708" lon="1.8731">
        <ele>155.21994201556</ele>
        <time>2019-09-15T09:18:40Z</time>
      </trkpt>
      <trkpt lat="48.64711" lon="1.87324">
        <ele>155.4197058418</ele>
        <time>2019-09-15T09:18:45Z</time>
      </trkpt>
      <trkpt lat="48.64716" lon="1.87336">
        <ele>155.62205370739</ele>
        <time>2019-09-15T09:18:50Z</time>
      </trkpt>
      <trkpt lat="48.6472" lon="1.87346">
        <ele>155.82144795296</ele>
        <time>2019-09-15T09:18:55Z</time>
      </trkpt>
      <trkpt lat="48.64728" lon="1.87353">
        <ele>156.13238532886</ele>
        <time>2019-09-15T09:19:03Z</time>
      </trkpt>
      <trkpt lat="48.64734" lon="1.87361">
        <ele>156.39159690483</ele>
        <time>2019-09-15T09:19:10Z</time>
      </trkpt>
      <trkpt lat="48.64743" lon="1.87369">
        <ele>156.5409192658</ele>
        <time>2019-09-15T09:19:14Z</time>
      </trkpt>
      <trkpt lat="48.64746" lon="1.8738">
        <ele>156.83047900357</ele>
        <time>2019-09-15T09:19:23Z</time>
      </trkpt>
      <trkpt lat="48.64752" lon="1.87389">
        <ele>157.14642358272</ele>
        <time>2019-09-15T09:19:32Z</time>
      </trkpt>
      <trkpt lat="48.64757" lon="1.874">
        <ele>157.37679252613</ele>
        <time>2019-09-15T09:19:39Z</time>
      </trkpt>
      <trkpt lat="48.64762" lon="1.8741">
        <ele>157.53373464322</ele>
        <time>2019-09-15T09:19:44Z</time>
      </trkpt>
      <trkpt lat="48.64767" lon="1.87417">
        <ele>157.73512592554</ele>
        <time>2019-09-15T09:19:51Z</time>
      </trkpt>
      <trkpt lat="48.64779" lon="1.87426">
        <ele>157.84030618391</ele>
        <time>2019-09-15T09:19:55Z</time>
      </trkpt>
      <trkpt lat="48.64788" lon="1.87425">
        <ele>158.02950245723</ele>
        <time>2019-09-15T09:20:03Z</time>
      </trkpt>
      <trkpt lat="48.64794" lon="1.87434">
        <ele>158.18053425743</ele>
        <time>2019-09-15T09:20:10Z</time>
      </trkpt>
      <trkpt lat="48.64799" lon="1.87443">
        <ele>158.3274365323</ele>
        <time>2019-09-15T09:20:17Z</time>
      </trkpt>
      <trkpt lat="48.64805" lon="1.87451">
        <ele>158.44628865283</ele>
        <time>2019-09-15T09:20:22Z</time>
      </trkpt>
      <trkpt lat="48.64812" lon="1.87457">
        <ele>158.56641820651</ele>
        <time>2019-09-15T09:20:28Z</time>
      </trkpt>
      <trkpt lat="48.64819" lon="1.87463">
        <ele>158.79743126942</ele>
        <time>2019-09-15T09:20:39Z</time>
      </trkpt>
      <trkpt lat="48.64824" lon="1.87472">
        <ele>158.91583180033</ele>
        <time>2019-09-15T09:20:45Z</time>
      </trkpt>
      <trkpt lat="48.64829" lon="1.87481">
        <ele>159.0035413146</ele>
        <time>2019-09-15T09:20:50Z</time>
      </trkpt>
      <trkpt lat="48.64833" lon="1.87489">
        <ele>159.07327675757</ele>
        <time>2019-09-15T09:20:55Z</time>
      </trkpt>
      <trkpt lat="48.64845" lon="1.87494">
        <ele>159.15854914636</ele>
        <time>2019-09-15T09:21:00Z</time>
      </trkpt>
      <trkpt lat="48.64852" lon="1.87502">
        <ele>159.25688128206</ele>
        <time>2019-09-15T09:21:06Z</time>
      </trkpt>
      <trkpt lat="48.64859" lon="1.87509">
        <ele>159.39126494734</ele>
        <time>2019-09-15T09:21:15Z</time>
      </trkpt>
      <trkpt lat="48.64867" lon="1.87513">
        <ele>159.46558360823</ele>
        <time>2019-09-15T09:21:20Z</time>
      </trkpt>
      <trkpt lat="48.64874" lon="1.87522">
        <ele>159.53216618818</ele>
        <time>2019-09-15T09:21:25Z</time>
      </trkpt>
      <trkpt lat="48.64882" lon="1.87527">
        <ele>159.61564078592</ele>
        <time>2019-09-15T09:21:33Z</time>
      </trkpt>
      <trkpt lat="48.64889" lon="1.87534">
        <ele>159.64507608384</ele>
        <time>2019-09-15T09:21:37Z</time>
      </trkpt>
      <trkpt lat="48.64897" lon="1.8754">
        <ele>159.6749332289</ele>
        <time>2019-09-15T09:21:42Z</time>
      </trkpt>
      <trkpt lat="48.64905" lon="1.87545">
        <ele>159.72393655781</ele>
        <time>2019-09-15T09:21:51Z</time>
      </trkpt>
      <trkpt lat="48.64912" lon="1.87553">
        <ele>159.75388902022</ele>
        <time>2019-09-15T09:21:59Z</time>
      </trkpt>
      <trkpt lat="48.64916" lon="1.87563">
        <ele>159.77754299447</ele>
        <time>2019-09-15T09:22:08Z</time>
      </trkpt>
      <trkpt lat="48.64924" lon="1.87569">
        <ele>159.79171782374</ele>
        <time>2019-09-15T09:22:15Z</time>
      </trkpt>
      <trkpt lat="48.6493" lon="1.8758">
        <ele>159.821621771</ele>
        <time>2019-09-15T09:22:24Z</time>
      </trkpt>
      <trkpt lat="48.64938" lon="1.8759">
        <ele>159.85564478684</ele>
        <time>2019-09-15T09:22:29Z</time>
      </trkpt>
      <trkpt lat="48.64945" lon="1.87597">
        <ele>159.90346923255</ele>
        <time>2019-09-15T09:22:35Z</time>
      </trkpt>
      <trkpt lat="48.64948" lon="1.87608">
        <ele>159.93969217629</ele>
        <time>2019-09-15T09:22:41Z</time>
      </trkpt>
      <trkpt lat="48.64951" lon="1.87621">
        <ele>159.96507296613</ele>
        <time>2019-09-15T09:22:48Z</time>
      </trkpt>
      <trkpt lat="48.64948" lon="1.87632">
        <ele>159.95778073052</ele>
        <time>2019-09-15T09:22:55Z</time>
      </trkpt>
      <trkpt lat="48.64946" lon="1.87645">
        <ele>159.91691116487</ele>
        <time>2019-09-15T09:23:04Z</time>
      </trkpt>
      <trkpt lat="48.64942" lon="1.87657">
        <ele>159.87881278707</ele>
        <time>2019-09-15T09:23:16Z</time>
      </trkpt>
      <trkpt lat="48.64937" lon="1.87668">
        <ele>159.85961493365</ele>
        <time>2019-09-15T09:23:22Z</time>
      </trkpt>
      <trkpt lat="48.64935" lon="1.8768">
        <ele>159.83277402482</ele>
        <time>2019-09-15T09:23:28Z</time>
      </trkpt>
      <trkpt lat="48.64936" lon="1.87695">
        <ele>159.80747637932</ele>
        <time>2019-09-15T09:23:33Z</time>
      </trkpt>
      <trkpt lat="48.64937" lon="1.87707">
        <ele>159.78061167494</ele>
        <time>2019-09-15T09:23:38Z</time>
      </trkpt>
      <trkpt lat="48.64931" lon="1.87716">
        <ele>159.74494511875</ele>
        <time>2019-09-15T09:23:45Z</time>
      </trkpt>
      <trkpt lat="48.64926" lon="1.87725">
        <ele>159.72004592639</ele>
        <time>2019-09-15T09:23:51Z</time>
      </trkpt>
      <trkpt lat="48.64923" lon="1.8774">
        <ele>159.70240404037</ele>
        <time>2019-09-15T09:23:56Z</time>
      </trkpt>
      <trkpt lat="48.64922" lon="1.87753">
        <ele>159.68605756147</ele>
        <time>2019-09-15T09:24:03Z</time>
      </trkpt>
      <trkpt lat="48.64923" lon="1.87764">
        <ele>159.68184338928</ele>
        <time>2019-09-15T09:24:09Z</time>
      </trkpt>
      <trkpt lat="48.64926" lon="1.87776">
        <ele>159.68510997293</ele>
        <time>2019-09-15T09:24:13Z</time>
      </trkpt>
      <trkpt lat="48.64931" lon="1.87788">
        <ele>159.68989794578</ele>
        <time>2019-09-15T09:24:18Z</time>
      </trkpt>
      <trkpt lat="48.64938" lon="1.87796">
        <ele>159.69369447263</ele>
        <time>2019-09-15T09:24:25Z</time>
      </trkpt>
      <trkpt lat="48.64945" lon="1.87798">
        <ele>159.69256261194</ele>
        <time>2019-09-15T09:24:30Z</time>
      </trkpt>
      <trkpt lat="48.64955" lon="1.87802">
        <ele>159.694465901</ele>
        <time>2019-09-15T09:24:35Z</time>
      </trkpt>
      <trkpt lat="48.64962" lon="1.87806">
        <ele>159.70712657047</ele>
        <time>2019-09-15T09:24:41Z</time>
      </trkpt>
      <trkpt lat="48.6497" lon="1.87811">
        <ele>159.7174797037</ele>
        <time>2019-09-15T09:24:48Z</time>
      </trkpt>
      <trkpt lat="48.64977" lon="1.87818">
        <ele>159.72694074794</ele>
        <time>2019-09-15T09:24:54Z</time>
      </trkpt>
      <trkpt lat="48.64984" lon="1.87826">
        <ele>159.73772543548</ele>
        <time>2019-09-15T09:25:01Z</time>
      </trkpt>
      <trkpt lat="48.6499" lon="1.87832">
        <ele>159.74676510061</ele>
        <time>2019-09-15T09:25:07Z</time>
      </trkpt>
      <trkpt lat="48.64997" lon="1.8784">
        <ele>159.76868015656</ele>
        <time>2019-09-15T09:25:14Z</time>
      </trkpt>
      <trkpt lat="48.65005" lon="1.87842">
        <ele>159.80594756421</ele>
        <time>2019-09-15T09:25:22Z</time>
      </trkpt>
      <trkpt lat="48.65013" lon="1.87849">
        <ele>159.84463680344</ele>
        <time>2019-09-15T09:25:28Z</time>
      </trkpt>
      <trkpt lat="48.65019" lon="1.87857">
        <ele>159.87675560174</ele>
        <time>2019-09-15T09:25:33Z</time>
      </trkpt>
      <trkpt lat="48.65026" lon="1.87862">
        <ele>159.91642339765</ele>
        <time>2019-09-15T09:25:39Z</time>
      </trkpt>
      <trkpt lat="48.65033" lon="1.87868">
        <ele>159.94537836421</ele>
        <time>2019-09-15T09:25:43Z</time>
      </trkpt>
      <trkpt lat="48.65039" lon="1.87876">
        <ele>159.97991956221</ele>
        <time>2019-09-15T09:25:50Z</time>
      </trkpt>
      <trkpt lat="48.65047" lon="1.87881">
        <ele>160.02105746323</ele>
        <time>2019-09-15T09:25:57Z</time>
      </trkpt>
      <trkpt lat="48.65056" lon="1.87879">
        <ele>160.08220115482</ele>
        <time>2019-09-15T09:26:08Z</time>
      </trkpt>
      <trkpt lat="48.65065" lon="1.8788">
        <ele>160.12175382923</ele>
        <time>2019-09-15T09:26:16Z</time>
      </trkpt>
      <trkpt lat="48.65072" lon="1.87886">
        <ele>160.14573761777</ele>
        <time>2019-09-15T09:26:22Z</time>
      </trkpt>
      <trkpt lat="48.6508" lon="1.87887">
        <ele>160.15939791243</ele>
        <time>2019-09-15T09:26:27Z</time>
      </trkpt>
      <trkpt lat="48.65089" lon="1.87891">
        <ele>160.18210344623</ele>
        <time>2019-09-15T09:26:33Z</time>
      </trkpt>
      <trkpt lat="48.65097" lon="1.87893">
        <ele>160.19766586152</ele>
        <time>2019-09-15T09:26:39Z</time>
      </trkpt>
      <trkpt lat="48.65105" lon="1.87895">
        <ele>160.21855761143</ele>
        <time>2019-09-15T09:26:47Z</time>
      </trkpt>
      <trkpt lat="48.65112" lon="1.87902">
        <ele>160.24424111242</ele>
        <time>2019-09-15T09:26:56Z</time>
      </trkpt>
      <trkpt lat="48.65118" lon="1.87911">
        <ele>160.25668592887</ele>
        <time>2019-09-15T09:27:00Z</time>
      </trkpt>
      <trkpt lat="48.65126" lon="1.87913">
        <ele>160.26854748176</ele>
        <time>2019-09-15T09:27:05Z</time>
      </trkpt>
      <trkpt lat="48.65135" lon="1.87911">
        <ele>160.28223684023</ele>
        <time>2019-09-15T09:27:12Z</time>
      </trkpt>
      <trkpt lat="48.65144" lon="1.87911">
        <ele>160.30869440836</ele>
        <time>2019-09-15T09:27:18Z</time>
      </trkpt>
      <trkpt lat="48.65151" lon="1.87916">
        <ele>160.3512445979</ele>
        <time>2019-09-15T09:27:27Z</time>
      </trkpt>
      <trkpt lat="48.65159" lon="1.8792">
        <ele>160.36502810039</ele>
        <time>2019-09-15T09:27:32Z</time>
      </trkpt>
      <trkpt lat="48.65166" lon="1.87927">
        <ele>160.36157049851</ele>
        <time>2019-09-15T09:27:36Z</time>
      </trkpt>
      <trkpt lat="48.65173" lon="1.87934">
        <ele>160.33264115564</ele>
        <time>2019-09-15T09:27:41Z</time>
      </trkpt>
      <trkpt lat="48.6518" lon="1.87939">
        <ele>160.24946284511</ele>
        <time>2019-09-15T09:27:49Z</time>
      </trkpt>
      <trkpt lat="48.65189" lon="1.87934">
        <ele>160.18125340158</ele>
        <time>2019-09-15T09:27:54Z</time>
      </trkpt>
      <trkpt lat="48.65196" lon="1.8793">
        <ele>160.10701324047</ele>
        <time>2019-09-15T09:27:59Z</time>
      </trkpt>
      <trkpt lat="48.65205" lon="1.87927">
        <ele>159.97940413111</ele>
        <time>2019-09-15T09:28:08Z</time>
      </trkpt>
      <trkpt lat="48.65213" lon="1.87924">
        <ele>159.87752601644</ele>
        <time>2019-09-15T09:28:16Z</time>
      </trkpt>
      <trkpt lat="48.65218" lon="1.8793">
        <ele>159.84168424239</ele>
        <time>2019-09-15T09:28:20Z</time>
      </trkpt>
      <trkpt lat="48.65227" lon="1.87939">
        <ele>159.78721566517</ele>
        <time>2019-09-15T09:28:25Z</time>
      </trkpt>
      <trkpt lat="48.65235" lon="1.87945">
        <ele>159.72548111778</ele>
        <time>2019-09-15T09:28:31Z</time>
      </trkpt>
      <trkpt lat="48.65243" lon="1.87941">
        <ele>159.63821412016</ele>
        <time>2019-09-15T09:28:42Z</time>
      </trkpt>
      <trkpt lat="48.6525" lon="1.87939">
        <ele>159.58728230037</ele>
        <time>2019-09-15T09:28:48Z</time>
      </trkpt>
      <trkpt lat="48.65258" lon="1.87936">
        <ele>159.5559859934</ele>
        <time>2019-09-15T09:28:53Z</time>
      </trkpt>
      <trkpt lat="48.65266" lon="1.87939">
        <ele>159.50764314664</ele>
        <time>2019-09-15T09:29:04Z</time>
      </trkpt>
      <trkpt lat="48.65273" lon="1.87947">
        <ele>159.45360208511</ele>
        <time>2019-09-15T09:29:13Z</time>
      </trkpt>
      <trkpt lat="48.65279" lon="1.87956">
        <ele>159.41776424691</ele>
        <time>2019-09-15T09:29:20Z</time>
      </trkpt>
      <trkpt lat="48.65284" lon="1.87965">
        <ele>159.40101391802</ele>
        <time>2019-09-15T09:29:26Z</time>
      </trkpt>
      <trkpt lat="48.65291" lon="1.87971">
        <ele>159.37483221369</ele>
        <time>2019-09-15T09:29:33Z</time>
      </trkpt>
      <trkpt lat="48.65298" lon="1.87984">
        <ele>159.37122884152</ele>
        <time>2019-09-15T09:29:37Z</time>
      </trkpt>
      <trkpt lat="48.65302" lon="1.87995">
        <ele>159.36615078911</ele>
        <time>2019-09-15T09:29:44Z</time>
      </trkpt>
      <trkpt lat="48.65307" lon="1.88005">
        <ele>159.3622379177</ele>
        <time>2019-09-15T09:29:50Z</time>
      </trkpt>
      <trkpt lat="48.65314" lon="1.88014">
        <ele>159.35223268655</ele>
        <time>2019-09-15T09:29:56Z</time>
      </trkpt>
      <trkpt lat="48.65319" lon="1.88024">
        <ele>159.30563373733</ele>
        <time>2019-09-15T09:30:07Z</time>
      </trkpt>
      <trkpt lat="48.65325" lon="1.88031">
        <ele>159.28623176186</ele>
        <time>2019-09-15T09:30:14Z</time>
      </trkpt>
      <trkpt lat="48.65333" lon="1.88034">
        <ele>159.27780874463</ele>
        <time>2019-09-15T09:30:19Z</time>
      </trkpt>
      <trkpt lat="48.65341" lon="1.88042">
        <ele>159.2212624179</ele>
        <time>2019-09-15T09:30:28Z</time>
      </trkpt>
      <trkpt lat="48.65347" lon="1.8805">
        <ele>159.17094834506</ele>
        <time>2019-09-15T09:30:34Z</time>
      </trkpt>
      <trkpt lat="48.65355" lon="1.88057">
        <ele>159.14915779367</ele>
        <time>2019-09-15T09:30:45Z</time>
      </trkpt>
      <trkpt lat="48.65361" lon="1.88064">
        <ele>159.14425537023</ele>
        <time>2019-09-15T09:30:52Z</time>
      </trkpt>
      <trkpt lat="48.65368" lon="1.88071">
        <ele>159.14318267901</ele>
        <time>2019-09-15T09:30:57Z</time>
      </trkpt>
      <trkpt lat="48.65374" lon="1.88076">
        <ele>159.13164705154</ele>
        <time>2019-09-15T09:31:01Z</time>
      </trkpt>
      <trkpt lat="48.65381" lon="1.88083">
        <ele>159.09937494448</ele>
        <time>2019-09-15T09:31:05Z</time>
      </trkpt>
      <trkpt lat="48.65387" lon="1.8809">
        <ele>159.0123625515</ele>
        <time>2019-09-15T09:31:13Z</time>
      </trkpt>
      <trkpt lat="48.65393" lon="1.88099">
        <ele>158.90639485071</ele>
        <time>2019-09-15T09:31:23Z</time>
      </trkpt>
      <trkpt lat="48.654" lon="1.88106">
        <ele>158.86371320741</ele>
        <time>2019-09-15T09:31:28Z</time>
      </trkpt>
      <trkpt lat="48.65407" lon="1.88113">
        <ele>158.83039471059</ele>
        <time>2019-09-15T09:31:33Z</time>
      </trkpt>
      <trkpt lat="48.65412" lon="1.88124">
        <ele>158.77349468878</ele>
        <time>2019-09-15T09:31:41Z</time>
      </trkpt>
      <trkpt lat="48.65415" lon="1.88136">
        <ele>158.72994798282</ele>
        <time>2019-09-15T09:31:48Z</time>
      </trkpt>
      <trkpt lat="48.65417" lon="1.88145">
        <ele>158.70148042069</ele>
        <time>2019-09-15T09:31:53Z</time>
      </trkpt>
      <trkpt lat="48.6542" lon="1.88157">
        <ele>158.67735361983</ele>
        <time>2019-09-15T09:32:00Z</time>
      </trkpt>
      <trkpt lat="48.6542" lon="1.8817">
        <ele>158.62417680324</ele>
        <time>2019-09-15T09:32:10Z</time>
      </trkpt>
      <trkpt lat="48.65419" lon="1.88181">
        <ele>158.57978372196</ele>
        <time>2019-09-15T09:32:17Z</time>
      </trkpt>
      <trkpt lat="48.65418" lon="1.88195">
        <ele>158.50700371888</ele>
        <time>2019-09-15T09:32:26Z</time>
      </trkpt>
      <trkpt lat="48.65416" lon="1.88208">
        <ele>158.40001207619</ele>
        <time>2019-09-15T09:32:35Z</time>
      </trkpt>
      <trkpt lat="48.65416" lon="1.88219">
        <ele>158.3140991092</ele>
        <time>2019-09-15T09:32:41Z</time>
      </trkpt>
      <trkpt lat="48.65415" lon="1.88232">
        <ele>158.2366789687</ele>
        <time>2019-09-15T09:32:46Z</time>
      </trkpt>
      <trkpt lat="48.65413" lon="1.88245">
        <ele>158.12225685896</ele>
        <time>2019-09-15T09:32:53Z</time>
      </trkpt>
      <trkpt lat="48.65413" lon="1.88255">
        <ele>158.03599705238</ele>
        <time>2019-09-15T09:32:58Z</time>
      </trkpt>
      <trkpt lat="48.65416" lon="1.88271">
        <ele>157.94697943757</ele>
        <time>2019-09-15T09:33:03Z</time>
      </trkpt>
      <trkpt lat="48.65416" lon="1.88284">
        <ele>157.83891404948</ele>
        <time>2019-09-15T09:33:08Z</time>
      </trkpt>
      <trkpt lat="48.65418" lon="1.88296">
        <ele>157.59285331319</ele>
        <time>2019-09-15T09:33:19Z</time>
      </trkpt>
      <trkpt lat="48.65418" lon="1.88307">
        <ele>157.50159085557</ele>
        <time>2019-09-15T09:33:24Z</time>
      </trkpt>
      <trkpt lat="48.65417" lon="1.88321">
        <ele>157.37035234163</ele>
        <time>2019-09-15T09:33:30Z</time>
      </trkpt>
      <trkpt lat="48.65417" lon="1.88334">
        <ele>157.21436034472</ele>
        <time>2019-09-15T09:33:36Z</time>
      </trkpt>
      <trkpt lat="48.65418" lon="1.88347">
        <ele>157.00708862959</ele>
        <time>2019-09-15T09:33:43Z</time>
      </trkpt>
      <trkpt lat="48.65416" lon="1.8836">
        <ele>156.74294934486</ele>
        <time>2019-09-15T09:33:51Z</time>
      </trkpt>
      <trkpt lat="48.65415" lon="1.88372">
        <ele>156.5022474537</ele>
        <time>2019-09-15T09:33:58Z</time>
      </trkpt>
      <trkpt lat="48.65416" lon="1.88385">
        <ele>156.28999492488</ele>
        <time>2019-09-15T09:34:04Z</time>
      </trkpt>
      <trkpt lat="48.65418" lon="1.88396">
        <ele>156.10361997115</ele>
        <time>2019-09-15T09:34:09Z</time>
      </trkpt>
      <trkpt lat="48.65419" lon="1.88409">
        <ele>155.8264238143</ele>
        <time>2019-09-15T09:34:16Z</time>
      </trkpt>
      <trkpt lat="48.65416" lon="1.8842">
        <ele>155.54639698041</ele>
        <time>2019-09-15T09:34:23Z</time>
      </trkpt>
      <trkpt lat="48.65416" lon="1.88432">
        <ele>155.34813164992</ele>
        <time>2019-09-15T09:34:28Z</time>
      </trkpt>
      <trkpt lat="48.65418" lon="1.88443">
        <ele>155.0684035823</ele>
        <time>2019-09-15T09:34:35Z</time>
      </trkpt>
      <trkpt lat="48.65419" lon="1.88456">
        <ele>154.69567637245</ele>
        <time>2019-09-15T09:34:44Z</time>
      </trkpt>
      <trkpt lat="48.65422" lon="1.88468">
        <ele>154.44275908882</ele>
        <time>2019-09-15T09:34:51Z</time>
      </trkpt>
      <trkpt lat="48.65428" lon="1.88478">
        <ele>154.2271974876</ele>
        <time>2019-09-15T09:34:59Z</time>
      </trkpt>
      <trkpt lat="48.65435" lon="1.88484">
        <ele>154.12372387616</ele>
        <time>2019-09-15T09:35:04Z</time>
      </trkpt>
      <trkpt lat="48.65442" lon="1.88489">
        <ele>154.04341944966</ele>
        <time>2019-09-15T09:35:09Z</time>
      </trkpt>
      <trkpt lat="48.65449" lon="1.88495">
        <ele>153.9693564131</ele>
        <time>2019-09-15T09:35:15Z</time>
      </trkpt>
      <trkpt lat="48.65457" lon="1.88498">
        <ele>153.92275350932</ele>
        <time>2019-09-15T09:35:20Z</time>
      </trkpt>
      <trkpt lat="48.65464" lon="1.88503">
        <ele>153.88262213485</ele>
        <time>2019-09-15T09:35:25Z</time>
      </trkpt>
      <trkpt lat="48.65472" lon="1.88507">
        <ele>153.83454898552</ele>
        <time>2019-09-15T09:35:31Z</time>
      </trkpt>
      <trkpt lat="48.6548" lon="1.88511">
        <ele>153.76747715524</ele>
        <time>2019-09-15T09:35:38Z</time>
      </trkpt>
      <trkpt lat="48.65486" lon="1.88506">
        <ele>153.69519475212</ele>
        <time>2019-09-15T09:35:44Z</time>
      </trkpt>
      <trkpt lat="48.65491" lon="1.88497">
        <ele>153.62178574057</ele>
        <time>2019-09-15T09:35:49Z</time>
      </trkpt>
      <trkpt lat="48.65494" lon="1.88509">
        <ele>153.46725586494</ele>
        <time>2019-09-15T09:36:07Z</time>
      </trkpt>
      <trkpt lat="48.65489" lon="1.88516">
        <ele>153.44779911268</ele>
        <time>2019-09-15T09:37:08Z</time>
      </trkpt>
      <trkpt lat="48.65493" lon="1.88524">
        <ele>153.50627293397</ele>
        <time>2019-09-15T09:37:18Z</time>
      </trkpt>
      <trkpt lat="48.65502" lon="1.88528">
        <ele>153.56114423874</ele>
        <time>2019-09-15T09:37:24Z</time>
      </trkpt>
      <trkpt lat="48.65508" lon="1.88534">
        <ele>153.73298346241</ele>
        <time>2019-09-15T09:37:40Z</time>
      </trkpt>
      <trkpt lat="48.65516" lon="1.8854">
        <ele>153.81163016979</ele>
        <time>2019-09-15T09:37:47Z</time>
      </trkpt>
      <trkpt lat="48.65524" lon="1.88546">
        <ele>153.88100898435</ele>
        <time>2019-09-15T09:37:52Z</time>
      </trkpt>
      <trkpt lat="48.6553" lon="1.88555">
        <ele>154.09127720886</ele>
        <time>2019-09-15T09:38:10Z</time>
      </trkpt>
      <trkpt lat="48.65537" lon="1.8856">
        <ele>154.21247739377</ele>
        <time>2019-09-15T09:38:18Z</time>
      </trkpt>
      <trkpt lat="48.65546" lon="1.88564">
        <ele>154.28420259128</ele>
        <time>2019-09-15T09:38:23Z</time>
      </trkpt>
      <trkpt lat="48.65554" lon="1.88568">
        <ele>154.41315526001</ele>
        <time>2019-09-15T09:38:35Z</time>
      </trkpt>
      <trkpt lat="48.65561" lon="1.88562">
        <ele>154.04660872308</ele>
        <time>2019-09-15T09:41:45Z</time>
      </trkpt>
      <trkpt lat="48.65553" lon="1.88566">
        <ele>154.03984678158</ele>
        <time>2019-09-15T09:45:01Z</time>
      </trkpt>
      <trkpt lat="48.65562" lon="1.88567">
        <ele>154.59176864029</ele>
        <time>2019-09-15T09:51:23Z</time>
      </trkpt>
      <trkpt lat="48.65554" lon="1.8856">
        <ele>158.62164082719</ele>
        <time>2019-09-15T09:58:07Z</time>
      </trkpt>
      <trkpt lat="48.65562" lon="1.88565">
        <ele>161.33901879035</ele>
        <time>2019-09-15T10:02:32Z</time>
      </trkpt>
      <trkpt lat="48.65557" lon="1.88554">
        <ele>161.85969308091</ele>
        <time>2019-09-15T10:04:45Z</time>
      </trkpt>
      <trkpt lat="48.65565" lon="1.88552">
        <ele>167.69364948656</ele>
        <time>2019-09-15T10:35:40Z</time>
      </trkpt>
      <trkpt lat="48.65572" lon="1.88547">
        <ele>167.80505796457</ele>
        <time>2019-09-15T10:35:55Z</time>
      </trkpt>
      <trkpt lat="48.65581" lon="1.88549">
        <ele>167.85506925598</ele>
        <time>2019-09-15T10:36:02Z</time>
      </trkpt>
      <trkpt lat="48.65589" lon="1.88552">
        <ele>167.94319981098</ele>
        <time>2019-09-15T10:36:16Z</time>
      </trkpt>
      <trkpt lat="48.65597" lon="1.88556">
        <ele>168.0160377204</ele>
        <time>2019-09-15T10:36:33Z</time>
      </trkpt>
      <trkpt lat="48.65605" lon="1.88562">
        <ele>168.07508192195</ele>
        <time>2019-09-15T10:36:49Z</time>
      </trkpt>
      <trkpt lat="48.65613" lon="1.88562">
        <ele>168.11523341149</ele>
        <time>2019-09-15T10:36:56Z</time>
      </trkpt>
      <trkpt lat="48.6562" lon="1.88555">
        <ele>168.17540369061</ele>
        <time>2019-09-15T10:37:07Z</time>
      </trkpt>
      <trkpt lat="48.6563" lon="1.88557">
        <ele>168.19599467256</ele>
        <time>2019-09-15T10:37:11Z</time>
      </trkpt>
      <trkpt lat="48.65639" lon="1.8856">
        <ele>168.22756313234</ele>
        <time>2019-09-15T10:37:17Z</time>
      </trkpt>
      <trkpt lat="48.65648" lon="1.88561">
        <ele>168.31672849788</ele>
        <time>2019-09-15T10:37:34Z</time>
      </trkpt>
      <trkpt lat="48.65657" lon="1.88561">
        <ele>168.37283545231</ele>
        <time>2019-09-15T10:37:44Z</time>
      </trkpt>
      <trkpt lat="48.65664" lon="1.88562">
        <ele>168.40323600457</ele>
        <time>2019-09-15T10:37:50Z</time>
      </trkpt>
      <trkpt lat="48.65672" lon="1.88564">
        <ele>168.42962798893</ele>
        <time>2019-09-15T10:37:55Z</time>
      </trkpt>
      <trkpt lat="48.65679" lon="1.88559">
        <ele>168.47845471684</ele>
        <time>2019-09-15T10:38:05Z</time>
      </trkpt>
      <trkpt lat="48.65686" lon="1.88557">
        <ele>168.5017475983</ele>
        <time>2019-09-15T10:38:11Z</time>
      </trkpt>
      <trkpt lat="48.65695" lon="1.88556">
        <ele>168.5215481179</ele>
        <time>2019-09-15T10:38:16Z</time>
      </trkpt>
      <trkpt lat="48.65703" lon="1.88555">
        <ele>168.55195633736</ele>
        <time>2019-09-15T10:38:23Z</time>
      </trkpt>
      <trkpt lat="48.65712" lon="1.88552">
        <ele>168.61148258468</ele>
        <time>2019-09-15T10:38:37Z</time>
      </trkpt>
      <trkpt lat="48.65719" lon="1.88547">
        <ele>168.65493575879</ele>
        <time>2019-09-15T10:38:52Z</time>
      </trkpt>
      <trkpt lat="48.65728" lon="1.88547">
        <ele>168.69940299938</ele>
        <time>2019-09-15T10:39:07Z</time>
      </trkpt>
      <trkpt lat="48.65735" lon="1.88545">
        <ele>168.71885213127</ele>
        <time>2019-09-15T10:39:12Z</time>
      </trkpt>
      <trkpt lat="48.65744" lon="1.88547">
        <ele>168.73425559795</ele>
        <time>2019-09-15T10:39:17Z</time>
      </trkpt>
      <trkpt lat="48.65752" lon="1.88548">
        <ele>168.75400448567</ele>
        <time>2019-09-15T10:39:24Z</time>
      </trkpt>
      <trkpt lat="48.65761" lon="1.8855">
        <ele>168.77339820686</ele>
        <time>2019-09-15T10:39:30Z</time>
      </trkpt>
      <trkpt lat="48.65769" lon="1.88555">
        <ele>168.80185417789</ele>
        <time>2019-09-15T10:39:41Z</time>
      </trkpt>
      <trkpt lat="48.65777" lon="1.8855">
        <ele>168.83455222108</ele>
        <time>2019-09-15T10:39:53Z</time>
      </trkpt>
      <trkpt lat="48.65786" lon="1.88546">
        <ele>168.85319122919</ele>
        <time>2019-09-15T10:40:03Z</time>
      </trkpt>
      <trkpt lat="48.65794" lon="1.88542">
        <ele>168.86784183637</ele>
        <time>2019-09-15T10:40:16Z</time>
      </trkpt>
      <trkpt lat="48.65801" lon="1.88538">
        <ele>168.87782342214</ele>
        <time>2019-09-15T10:40:30Z</time>
      </trkpt>
      <trkpt lat="48.65809" lon="1.88534">
        <ele>168.96470381832</ele>
        <time>2019-09-15T10:40:51Z</time>
      </trkpt>
      <trkpt lat="48.65816" lon="1.88532">
        <ele>169.02889498343</ele>
        <time>2019-09-15T10:40:56Z</time>
      </trkpt>
      <trkpt lat="48.65824" lon="1.88529">
        <ele>169.09920451349</ele>
        <time>2019-09-15T10:41:02Z</time>
      </trkpt>
      <trkpt lat="48.6583" lon="1.88523">
        <ele>169.16232067678</ele>
        <time>2019-09-15T10:41:08Z</time>
      </trkpt>
      <trkpt lat="48.65838" lon="1.88518">
        <ele>169.22839123054</ele>
        <time>2019-09-15T10:41:15Z</time>
      </trkpt>
      <trkpt lat="48.65846" lon="1.88518">
        <ele>169.28825194707</ele>
        <time>2019-09-15T10:41:23Z</time>
      </trkpt>
      <trkpt lat="48.65855" lon="1.88521">
        <ele>169.35678912875</ele>
        <time>2019-09-15T10:41:36Z</time>
      </trkpt>
      <trkpt lat="48.65861" lon="1.88515">
        <ele>169.38932510778</ele>
        <time>2019-09-15T10:41:44Z</time>
      </trkpt>
      <trkpt lat="48.65867" lon="1.88506">
        <ele>169.41245558555</ele>
        <time>2019-09-15T10:41:50Z</time>
      </trkpt>
      <trkpt lat="48.65873" lon="1.88498">
        <ele>169.44292099552</ele>
        <time>2019-09-15T10:41:59Z</time>
      </trkpt>
      <trkpt lat="48.65877" lon="1.88489">
        <ele>169.4654947711</ele>
        <time>2019-09-15T10:42:07Z</time>
      </trkpt>
      <trkpt lat="48.65883" lon="1.8848">
        <ele>169.47947509227</ele>
        <time>2019-09-15T10:42:12Z</time>
      </trkpt>
      <trkpt lat="48.65892" lon="1.88482">
        <ele>169.50804469372</ele>
        <time>2019-09-15T10:42:21Z</time>
      </trkpt>
      <trkpt lat="48.659" lon="1.88485">
        <ele>169.541317279</ele>
        <time>2019-09-15T10:42:30Z</time>
      </trkpt>
      <trkpt lat="48.65908" lon="1.88485">
        <ele>169.5877853773</ele>
        <time>2019-09-15T10:42:36Z</time>
      </trkpt>
      <trkpt lat="48.65916" lon="1.88489">
        <ele>169.63770891664</ele>
        <time>2019-09-15T10:42:43Z</time>
      </trkpt>
      <trkpt lat="48.65922" lon="1.88496">
        <ele>169.7112771262</ele>
        <time>2019-09-15T10:42:52Z</time>
      </trkpt>
      <trkpt lat="48.65928" lon="1.88506">
        <ele>169.75194489613</ele>
        <time>2019-09-15T10:43:00Z</time>
      </trkpt>
      <trkpt lat="48.65934" lon="1.88514">
        <ele>169.76243843299</ele>
        <time>2019-09-15T10:43:05Z</time>
      </trkpt>
      <trkpt lat="48.65942" lon="1.88517">
        <ele>169.76966328047</ele>
        <time>2019-09-15T10:43:14Z</time>
      </trkpt>
      <trkpt lat="48.6595" lon="1.88521">
        <ele>169.78017699173</ele>
        <time>2019-09-15T10:43:21Z</time>
      </trkpt>
      <trkpt lat="48.65958" lon="1.88523">
        <ele>169.82747370557</ele>
        <time>2019-09-15T10:43:34Z</time>
      </trkpt>
      <trkpt lat="48.65965" lon="1.88529">
        <ele>169.85206657567</ele>
        <time>2019-09-15T10:43:42Z</time>
      </trkpt>
      <trkpt lat="48.65973" lon="1.88534">
        <ele>169.8682146569</ele>
        <time>2019-09-15T10:43:49Z</time>
      </trkpt>
      <trkpt lat="48.65981" lon="1.88538">
        <ele>169.87920075303</ele>
        <time>2019-09-15T10:43:55Z</time>
      </trkpt>
      <trkpt lat="48.65988" lon="1.88545">
        <ele>169.91527994912</ele>
        <time>2019-09-15T10:44:05Z</time>
      </trkpt>
      <trkpt lat="48.65995" lon="1.88552">
        <ele>169.95158160557</ele>
        <time>2019-09-15T10:44:11Z</time>
      </trkpt>
      <trkpt lat="48.66003" lon="1.88557">
        <ele>169.99719208262</ele>
        <time>2019-09-15T10:44:20Z</time>
      </trkpt>
      <trkpt lat="48.6601" lon="1.88566">
        <ele>170.03424454531</ele>
        <time>2019-09-15T10:44:28Z</time>
      </trkpt>
      <trkpt lat="48.66018" lon="1.88572">
        <ele>170.05835789256</ele>
        <time>2019-09-15T10:44:34Z</time>
      </trkpt>
      <trkpt lat="48.66025" lon="1.88578">
        <ele>170.08139990356</ele>
        <time>2019-09-15T10:44:40Z</time>
      </trkpt>
      <trkpt lat="48.66031" lon="1.88583">
        <ele>170.09873280889</ele>
        <time>2019-09-15T10:44:45Z</time>
      </trkpt>
      <trkpt lat="48.66037" lon="1.88591">
        <ele>170.12583965508</ele>
        <time>2019-09-15T10:44:54Z</time>
      </trkpt>
      <trkpt lat="48.66043" lon="1.88599">
        <ele>170.16270281779</ele>
        <time>2019-09-15T10:45:02Z</time>
      </trkpt>
      <trkpt lat="48.66049" lon="1.88605">
        <ele>170.20281295843</ele>
        <time>2019-09-15T10:45:09Z</time>
      </trkpt>
      <trkpt lat="48.66057" lon="1.88611">
        <ele>170.24330700085</ele>
        <time>2019-09-15T10:45:17Z</time>
      </trkpt>
      <trkpt lat="48.66064" lon="1.88617">
        <ele>170.2692718009</ele>
        <time>2019-09-15T10:45:23Z</time>
      </trkpt>
      <trkpt lat="48.66071" lon="1.88623">
        <ele>170.29458769161</ele>
        <time>2019-09-15T10:45:31Z</time>
      </trkpt>
      <trkpt lat="48.66078" lon="1.88631">
        <ele>170.32332520916</ele>
        <time>2019-09-15T10:45:39Z</time>
      </trkpt>
      <trkpt lat="48.66086" lon="1.88634">
        <ele>170.32991292346</ele>
        <time>2019-09-15T10:45:49Z</time>
      </trkpt>
      <trkpt lat="48.66093" lon="1.88641">
        <ele>170.31225619668</ele>
        <time>2019-09-15T10:45:55Z</time>
      </trkpt>
      <trkpt lat="48.661" lon="1.88648">
        <ele>170.28047543608</ele>
        <time>2019-09-15T10:46:01Z</time>
      </trkpt>
      <trkpt lat="48.66104" lon="1.88659">
        <ele>170.25807798086</ele>
        <time>2019-09-15T10:46:06Z</time>
      </trkpt>
      <trkpt lat="48.66105" lon="1.88673">
        <ele>170.28848368351</ele>
        <time>2019-09-15T10:46:13Z</time>
      </trkpt>
      <trkpt lat="48.66112" lon="1.88679">
        <ele>170.33890469421</ele>
        <time>2019-09-15T10:46:20Z</time>
      </trkpt>
      <trkpt lat="48.6612" lon="1.88683">
        <ele>170.38634067626</ele>
        <time>2019-09-15T10:46:27Z</time>
      </trkpt>
      <trkpt lat="48.66128" lon="1.88687">
        <ele>170.44784686376</ele>
        <time>2019-09-15T10:46:35Z</time>
      </trkpt>
      <trkpt lat="48.66136" lon="1.88689">
        <ele>170.53938536551</ele>
        <time>2019-09-15T10:46:46Z</time>
      </trkpt>
      <trkpt lat="48.66145" lon="1.88692">
        <ele>170.61053257942</ele>
        <time>2019-09-15T10:46:56Z</time>
      </trkpt>
      <trkpt lat="48.66153" lon="1.88694">
        <ele>170.65092126902</ele>
        <time>2019-09-15T10:47:22Z</time>
      </trkpt>
      <trkpt lat="48.66159" lon="1.88701">
        <ele>170.66643320121</ele>
        <time>2019-09-15T10:47:28Z</time>
      </trkpt>
      <trkpt lat="48.66166" lon="1.88709">
        <ele>170.71347025611</ele>
        <time>2019-09-15T10:47:36Z</time>
      </trkpt>
      <trkpt lat="48.66169" lon="1.88721">
        <ele>170.75945820403</ele>
        <time>2019-09-15T10:47:50Z</time>
      </trkpt>
      <trkpt lat="48.66175" lon="1.8873">
        <ele>170.78353729978</ele>
        <time>2019-09-15T10:47:58Z</time>
      </trkpt>
      <trkpt lat="48.66182" lon="1.88738">
        <ele>170.79862561858</ele>
        <time>2019-09-15T10:48:06Z</time>
      </trkpt>
      <trkpt lat="48.66181" lon="1.88751">
        <ele>170.79144338764</ele>
        <time>2019-09-15T10:48:18Z</time>
      </trkpt>
      <trkpt lat="48.66179" lon="1.88763">
        <ele>170.75591205068</ele>
        <time>2019-09-15T10:48:27Z</time>
      </trkpt>
      <trkpt lat="48.66179" lon="1.88777">
        <ele>170.73101222874</ele>
        <time>2019-09-15T10:48:35Z</time>
      </trkpt>
      <trkpt lat="48.66182" lon="1.88785">
        <ele>170.71351198155</ele>
        <time>2019-09-15T10:48:41Z</time>
      </trkpt>
      <trkpt lat="48.66187" lon="1.88799">
        <ele>170.70301219096</ele>
        <time>2019-09-15T10:48:45Z</time>
      </trkpt>
      <trkpt lat="48.66183" lon="1.8881">
        <ele>170.68229853018</ele>
        <time>2019-09-15T10:48:52Z</time>
      </trkpt>
      <trkpt lat="48.66178" lon="1.8882">
        <ele>170.65238958659</ele>
        <time>2019-09-15T10:49:01Z</time>
      </trkpt>
      <trkpt lat="48.66179" lon="1.88833">
        <ele>170.63848205273</ele>
        <time>2019-09-15T10:49:06Z</time>
      </trkpt>
      <trkpt lat="48.6618" lon="1.88846">
        <ele>170.62199576073</ele>
        <time>2019-09-15T10:49:14Z</time>
      </trkpt>
      <trkpt lat="48.66179" lon="1.88858">
        <ele>170.60839517925</ele>
        <time>2019-09-15T10:49:21Z</time>
      </trkpt>
      <trkpt lat="48.66177" lon="1.88869">
        <ele>170.59804506013</ele>
        <time>2019-09-15T10:49:27Z</time>
      </trkpt>
      <trkpt lat="48.66176" lon="1.88881">
        <ele>170.59028179542</ele>
        <time>2019-09-15T10:49:32Z</time>
      </trkpt>
      <trkpt lat="48.66177" lon="1.88894">
        <ele>170.58515507211</ele>
        <time>2019-09-15T10:49:37Z</time>
      </trkpt>
      <trkpt lat="48.66177" lon="1.88906">
        <ele>170.57937388687</ele>
        <time>2019-09-15T10:49:43Z</time>
      </trkpt>
      <trkpt lat="48.66176" lon="1.88919">
        <ele>170.5712807696</ele>
        <time>2019-09-15T10:49:51Z</time>
      </trkpt>
      <trkpt lat="48.66176" lon="1.88932">
        <ele>170.56206808077</ele>
        <time>2019-09-15T10:49:59Z</time>
      </trkpt>
      <trkpt lat="48.66177" lon="1.88944">
        <ele>170.54472852577</ele>
        <time>2019-09-15T10:50:08Z</time>
      </trkpt>
      <trkpt lat="48.66179" lon="1.88957">
        <ele>170.5297411831</ele>
        <time>2019-09-15T10:50:14Z</time>
      </trkpt>
      <trkpt lat="48.6618" lon="1.88969">
        <ele>170.5030116255</ele>
        <time>2019-09-15T10:50:23Z</time>
      </trkpt>
      <trkpt lat="48.66179" lon="1.88981">
        <ele>170.48668369192</ele>
        <time>2019-09-15T10:50:31Z</time>
      </trkpt>
      <trkpt lat="48.66178" lon="1.88993">
        <ele>170.47589329483</ele>
        <time>2019-09-15T10:50:36Z</time>
      </trkpt>
      <trkpt lat="48.66177" lon="1.89006">
        <ele>170.46520903281</ele>
        <time>2019-09-15T10:50:41Z</time>
      </trkpt>
      <trkpt lat="48.66176" lon="1.89019">
        <ele>170.44897706249</ele>
        <time>2019-09-15T10:50:48Z</time>
      </trkpt>
      <trkpt lat="48.66176" lon="1.89032">
        <ele>170.43330215626</ele>
        <time>2019-09-15T10:50:54Z</time>
      </trkpt>
      <trkpt lat="48.66176" lon="1.89044">
        <ele>170.42707453514</ele>
        <time>2019-09-15T10:51:01Z</time>
      </trkpt>
      <trkpt lat="48.66169" lon="1.89053">
        <ele>170.39764982763</ele>
        <time>2019-09-15T10:51:08Z</time>
      </trkpt>
      <trkpt lat="48.66173" lon="1.89064">
        <ele>170.36450828866</ele>
        <time>2019-09-15T10:51:14Z</time>
      </trkpt>
      <trkpt lat="48.66176" lon="1.89077">
        <ele>170.32762429275</ele>
        <time>2019-09-15T10:51:22Z</time>
      </trkpt>
      <trkpt lat="48.66178" lon="1.89089">
        <ele>170.29470245584</ele>
        <time>2019-09-15T10:51:29Z</time>
      </trkpt>
      <trkpt lat="48.6618" lon="1.89102">
        <ele>170.25173031493</ele>
        <time>2019-09-15T10:51:36Z</time>
      </trkpt>
      <trkpt lat="48.66179" lon="1.89114">
        <ele>170.20879495657</ele>
        <time>2019-09-15T10:51:42Z</time>
      </trkpt>
      <trkpt lat="48.66179" lon="1.89127">
        <ele>170.15980244862</ele>
        <time>2019-09-15T10:51:48Z</time>
      </trkpt>
      <trkpt lat="48.66175" lon="1.89139">
        <ele>170.11199057914</ele>
        <time>2019-09-15T10:51:54Z</time>
      </trkpt>
      <trkpt lat="48.66175" lon="1.8915">
        <ele>170.06907754344</ele>
        <time>2019-09-15T10:52:00Z</time>
      </trkpt>
      <trkpt lat="48.66174" lon="1.89163">
        <ele>170.02229937505</ele>
        <time>2019-09-15T10:52:08Z</time>
      </trkpt>
      <trkpt lat="48.66171" lon="1.89176">
        <ele>169.98304699014</ele>
        <time>2019-09-15T10:52:15Z</time>
      </trkpt>
      <trkpt lat="48.66173" lon="1.89188">
        <ele>169.96043794212</ele>
        <time>2019-09-15T10:52:20Z</time>
      </trkpt>
      <trkpt lat="48.66174" lon="1.892">
        <ele>169.9147777453</ele>
        <time>2019-09-15T10:52:30Z</time>
      </trkpt>
      <trkpt lat="48.66173" lon="1.8921">
        <ele>169.89344707074</ele>
        <time>2019-09-15T10:52:34Z</time>
      </trkpt>
      <trkpt lat="48.66173" lon="1.89223">
        <ele>169.86282589915</ele>
        <time>2019-09-15T10:52:40Z</time>
      </trkpt>
      <trkpt lat="48.66175" lon="1.89234">
        <ele>169.831365519</ele>
        <time>2019-09-15T10:52:46Z</time>
      </trkpt>
      <trkpt lat="48.66182" lon="1.89248">
        <ele>169.81082926676</ele>
        <time>2019-09-15T10:52:51Z</time>
      </trkpt>
      <trkpt lat="48.6618" lon="1.8926">
        <ele>169.77673028524</ele>
        <time>2019-09-15T10:52:59Z</time>
      </trkpt>
      <trkpt lat="48.6618" lon="1.89274">
        <ele>169.7593209844</ele>
        <time>2019-09-15T10:53:03Z</time>
      </trkpt>
      <trkpt lat="48.66178" lon="1.89288">
        <ele>169.68359333019</ele>
        <time>2019-09-15T10:53:14Z</time>
      </trkpt>
      <trkpt lat="48.66178" lon="1.89301">
        <ele>169.63577099808</ele>
        <time>2019-09-15T10:53:21Z</time>
      </trkpt>
      <trkpt lat="48.66174" lon="1.89313">
        <ele>169.55648844747</ele>
        <time>2019-09-15T10:53:30Z</time>
      </trkpt>
      <trkpt lat="48.66175" lon="1.89325">
        <ele>169.48130882241</ele>
        <time>2019-09-15T10:53:37Z</time>
      </trkpt>
      <trkpt lat="48.66181" lon="1.89335">
        <ele>169.41670204916</ele>
        <time>2019-09-15T10:53:43Z</time>
      </trkpt>
      <trkpt lat="48.66173" lon="1.89334">
        <ele>169.14546975404</ele>
        <time>2019-09-15T10:54:22Z</time>
      </trkpt>
      <trkpt lat="48.66165" lon="1.89328">
        <ele>169.0225174708</ele>
        <time>2019-09-15T10:54:30Z</time>
      </trkpt>
      <trkpt lat="48.66173" lon="1.89325">
        <ele>168.87784834927</ele>
        <time>2019-09-15T10:54:46Z</time>
      </trkpt>
      <trkpt lat="48.66173" lon="1.89312">
        <ele>168.79869365064</ele>
        <time>2019-09-15T10:54:55Z</time>
      </trkpt>
      <trkpt lat="48.66172" lon="1.89298">
        <ele>168.71976245591</ele>
        <time>2019-09-15T10:55:17Z</time>
      </trkpt>
      <trkpt lat="48.66163" lon="1.89295">
        <ele>168.75391380745</ele>
        <time>2019-09-15T10:55:59Z</time>
      </trkpt>
      <trkpt lat="48.66164" lon="1.89307">
        <ele>168.78871198612</ele>
        <time>2019-09-15T10:56:06Z</time>
      </trkpt>
      <trkpt lat="48.66164" lon="1.89321">
        <ele>168.86501689705</ele>
        <time>2019-09-15T10:56:21Z</time>
      </trkpt>
      <trkpt lat="48.66168" lon="1.89332">
        <ele>168.90189194607</ele>
        <time>2019-09-15T10:56:26Z</time>
      </trkpt>
      <trkpt lat="48.66175" lon="1.89339">
        <ele>168.93425404535</ele>
        <time>2019-09-15T10:56:31Z</time>
      </trkpt>
      <trkpt lat="48.66182" lon="1.89348">
        <ele>168.96946862473</ele>
        <time>2019-09-15T10:56:37Z</time>
      </trkpt>
      <trkpt lat="48.66183" lon="1.89361">
        <ele>169.00703784238</ele>
        <time>2019-09-15T10:56:44Z</time>
      </trkpt>
      <trkpt lat="48.66176" lon="1.8937">
        <ele>169.08254633888</ele>
        <time>2019-09-15T10:57:00Z</time>
      </trkpt>
      <trkpt lat="48.6617" lon="1.89378">
        <ele>169.12116454343</ele>
        <time>2019-09-15T10:57:08Z</time>
      </trkpt>
      <trkpt lat="48.66162" lon="1.89381">
        <ele>169.15008211532</ele>
        <time>2019-09-15T10:57:15Z</time>
      </trkpt>
      <trkpt lat="48.66154" lon="1.89387">
        <ele>169.1779272227</ele>
        <time>2019-09-15T10:57:23Z</time>
      </trkpt>
      <trkpt lat="48.66148" lon="1.89396">
        <ele>169.19606842677</ele>
        <time>2019-09-15T10:57:29Z</time>
      </trkpt>
      <trkpt lat="48.66141" lon="1.89401">
        <ele>169.20599329889</ele>
        <time>2019-09-15T10:57:35Z</time>
      </trkpt>
      <trkpt lat="48.66132" lon="1.89404">
        <ele>169.19942935753</ele>
        <time>2019-09-15T10:57:42Z</time>
      </trkpt>
      <trkpt lat="48.66125" lon="1.89411">
        <ele>169.17907071096</ele>
        <time>2019-09-15T10:57:56Z</time>
      </trkpt>
      <trkpt lat="48.66118" lon="1.89418">
        <ele>169.12272102182</ele>
        <time>2019-09-15T10:58:16Z</time>
      </trkpt>
      <trkpt lat="48.6611" lon="1.89423">
        <ele>169.09742919704</ele>
        <time>2019-09-15T10:58:26Z</time>
      </trkpt>
      <trkpt lat="48.66102" lon="1.89429">
        <ele>169.09061405836</ele>
        <time>2019-09-15T10:58:58Z</time>
      </trkpt>
      <trkpt lat="48.66094" lon="1.89435">
        <ele>169.04593087612</ele>
        <time>2019-09-15T10:59:45Z</time>
      </trkpt>
      <trkpt lat="48.66089" lon="1.89446">
        <ele>169.04571454754</ele>
        <time>2019-09-15T10:59:58Z</time>
      </trkpt>
      <trkpt lat="48.6608" lon="1.89442">
        <ele>169.04993398995</ele>
        <time>2019-09-15T11:00:02Z</time>
      </trkpt>
      <trkpt lat="48.66073" lon="1.89447">
        <ele>169.04525841997</ele>
        <time>2019-09-15T11:00:06Z</time>
      </trkpt>
      <trkpt lat="48.66068" lon="1.89457">
        <ele>169.03245036332</ele>
        <time>2019-09-15T11:00:23Z</time>
      </trkpt>
      <trkpt lat="48.66063" lon="1.89467">
        <ele>169.17772284381</ele>
        <time>2019-09-15T11:01:06Z</time>
      </trkpt>
      <trkpt lat="48.66055" lon="1.8947">
        <ele>169.35844075983</ele>
        <time>2019-09-15T11:01:16Z</time>
      </trkpt>
      <trkpt lat="48.66047" lon="1.89474">
        <ele>169.49104597474</ele>
        <time>2019-09-15T11:01:25Z</time>
      </trkpt>
      <trkpt lat="48.66039" lon="1.89483">
        <ele>169.55670327926</ele>
        <time>2019-09-15T11:01:30Z</time>
      </trkpt>
      <trkpt lat="48.66031" lon="1.89486">
        <ele>169.65822039301</ele>
        <time>2019-09-15T11:01:38Z</time>
      </trkpt>
      <trkpt lat="48.66025" lon="1.8949">
        <ele>169.75617992612</ele>
        <time>2019-09-15T11:01:45Z</time>
      </trkpt>
      <trkpt lat="48.66015" lon="1.89499">
        <ele>169.81545700415</ele>
        <time>2019-09-15T11:01:49Z</time>
      </trkpt>
      <trkpt lat="48.66008" lon="1.89506">
        <ele>169.93085311463</ele>
        <time>2019-09-15T11:01:58Z</time>
      </trkpt>
      <trkpt lat="48.66" lon="1.89509">
        <ele>169.9862655561</ele>
        <time>2019-09-15T11:02:03Z</time>
      </trkpt>
      <trkpt lat="48.65993" lon="1.89516">
        <ele>170.02860942802</ele>
        <time>2019-09-15T11:02:07Z</time>
      </trkpt>
      <trkpt lat="48.65987" lon="1.89524">
        <ele>170.09455571179</ele>
        <time>2019-09-15T11:02:14Z</time>
      </trkpt>
      <trkpt lat="48.6598" lon="1.89531">
        <ele>170.14472944356</ele>
        <time>2019-09-15T11:02:21Z</time>
      </trkpt>
      <trkpt lat="48.65972" lon="1.89535">
        <ele>170.19095981803</ele>
        <time>2019-09-15T11:02:29Z</time>
      </trkpt>
      <trkpt lat="48.65963" lon="1.89539">
        <ele>170.21858242024</ele>
        <time>2019-09-15T11:02:34Z</time>
      </trkpt>
      <trkpt lat="48.65955" lon="1.89534">
        <ele>170.28688227279</ele>
        <time>2019-09-15T11:02:58Z</time>
      </trkpt>
      <trkpt lat="48.65948" lon="1.8953">
        <ele>170.34350822086</ele>
        <time>2019-09-15T11:03:43Z</time>
      </trkpt>
      <trkpt lat="48.65942" lon="1.89522">
        <ele>170.32564042234</ele>
        <time>2019-09-15T11:03:51Z</time>
      </trkpt>
      <trkpt lat="48.65934" lon="1.89514">
        <ele>170.30577305507</ele>
        <time>2019-09-15T11:03:57Z</time>
      </trkpt>
      <trkpt lat="48.65927" lon="1.89508">
        <ele>170.28467633652</ele>
        <time>2019-09-15T11:04:03Z</time>
      </trkpt>
      <trkpt lat="48.6592" lon="1.89501">
        <ele>170.26266071852</ele>
        <time>2019-09-15T11:04:10Z</time>
      </trkpt>
      <trkpt lat="48.65914" lon="1.89493">
        <ele>170.24621685092</ele>
        <time>2019-09-15T11:04:17Z</time>
      </trkpt>
      <trkpt lat="48.65907" lon="1.89487">
        <ele>170.23717905378</ele>
        <time>2019-09-15T11:04:24Z</time>
      </trkpt>
      <trkpt lat="48.65901" lon="1.8948">
        <ele>170.2371161887</ele>
        <time>2019-09-15T11:04:29Z</time>
      </trkpt>
      <trkpt lat="48.65895" lon="1.89472">
        <ele>170.24535679773</ele>
        <time>2019-09-15T11:04:36Z</time>
      </trkpt>
      <trkpt lat="48.65887" lon="1.89464">
        <ele>170.26454762309</ele>
        <time>2019-09-15T11:04:44Z</time>
      </trkpt>
      <trkpt lat="48.65879" lon="1.89459">
        <ele>170.28242145327</ele>
        <time>2019-09-15T11:04:51Z</time>
      </trkpt>
      <trkpt lat="48.65873" lon="1.89451">
        <ele>170.28161281761</ele>
        <time>2019-09-15T11:04:58Z</time>
      </trkpt>
      <trkpt lat="48.65868" lon="1.89441">
        <ele>170.26650559945</ele>
        <time>2019-09-15T11:05:05Z</time>
      </trkpt>
      <trkpt lat="48.65863" lon="1.8943">
        <ele>170.2469053756</ele>
        <time>2019-09-15T11:05:16Z</time>
      </trkpt>
      <trkpt lat="48.65857" lon="1.89422">
        <ele>170.23509385177</ele>
        <time>2019-09-15T11:05:26Z</time>
      </trkpt>
      <trkpt lat="48.65851" lon="1.89416">
        <ele>170.23151604863</ele>
        <time>2019-09-15T11:05:31Z</time>
      </trkpt>
      <trkpt lat="48.65844" lon="1.89409">
        <ele>170.23034680109</ele>
        <time>2019-09-15T11:05:53Z</time>
      </trkpt>
      <trkpt lat="48.65836" lon="1.89405">
        <ele>170.23401137142</ele>
        <time>2019-09-15T11:06:00Z</time>
      </trkpt>
      <trkpt lat="48.6583" lon="1.89398">
        <ele>170.23874739442</ele>
        <time>2019-09-15T11:06:06Z</time>
      </trkpt>
      <trkpt lat="48.65822" lon="1.89392">
        <ele>170.24572130606</ele>
        <time>2019-09-15T11:06:15Z</time>
      </trkpt>
      <trkpt lat="48.65817" lon="1.89384">
        <ele>170.24995421301</ele>
        <time>2019-09-15T11:06:20Z</time>
      </trkpt>
      <trkpt lat="48.65809" lon="1.89376">
        <ele>170.24926699823</ele>
        <time>2019-09-15T11:06:25Z</time>
      </trkpt>
      <trkpt lat="48.65804" lon="1.89368">
        <ele>170.23728830425</ele>
        <time>2019-09-15T11:06:33Z</time>
      </trkpt>
      <trkpt lat="48.658" lon="1.89355">
        <ele>170.22828035929</ele>
        <time>2019-09-15T11:06:37Z</time>
      </trkpt>
      <trkpt lat="48.65795" lon="1.89352">
        <ele>170.2200282454</ele>
        <time>2019-09-15T11:06:41Z</time>
      </trkpt>
      <trkpt lat="48.65786" lon="1.89345">
        <ele>170.21208255624</ele>
        <time>2019-09-15T11:06:46Z</time>
      </trkpt>
      <trkpt lat="48.65784" lon="1.89333">
        <ele>170.20706328692</ele>
        <time>2019-09-15T11:06:53Z</time>
      </trkpt>
      <trkpt lat="48.65778" lon="1.89324">
        <ele>170.21183057956</ele>
        <time>2019-09-15T11:07:02Z</time>
      </trkpt>
      <trkpt lat="48.65772" lon="1.89316">
        <ele>170.22082976156</ele>
        <time>2019-09-15T11:07:08Z</time>
      </trkpt>
      <trkpt lat="48.65765" lon="1.89308">
        <ele>170.22916622715</ele>
        <time>2019-09-15T11:07:13Z</time>
      </trkpt>
      <trkpt lat="48.65758" lon="1.89301">
        <ele>170.24469646466</ele>
        <time>2019-09-15T11:07:22Z</time>
      </trkpt>
      <trkpt lat="48.65751" lon="1.89298">
        <ele>170.25885121482</ele>
        <time>2019-09-15T11:07:31Z</time>
      </trkpt>
      <trkpt lat="48.65743" lon="1.89294">
        <ele>170.26833595865</ele>
        <time>2019-09-15T11:07:37Z</time>
      </trkpt>
      <trkpt lat="48.65737" lon="1.89286">
        <ele>170.27361413586</ele>
        <time>2019-09-15T11:07:45Z</time>
      </trkpt>
      <trkpt lat="48.6573" lon="1.89279">
        <ele>170.27891914679</ele>
        <time>2019-09-15T11:07:51Z</time>
      </trkpt>
      <trkpt lat="48.65722" lon="1.89274">
        <ele>170.28484317182</ele>
        <time>2019-09-15T11:07:58Z</time>
      </trkpt>
      <trkpt lat="48.65715" lon="1.89267">
        <ele>170.28908833276</ele>
        <time>2019-09-15T11:08:05Z</time>
      </trkpt>
      <trkpt lat="48.65709" lon="1.89259">
        <ele>170.29282340491</ele>
        <time>2019-09-15T11:08:13Z</time>
      </trkpt>
      <trkpt lat="48.65703" lon="1.89254">
        <ele>170.30193804419</ele>
        <time>2019-09-15T11:08:18Z</time>
      </trkpt>
      <trkpt lat="48.65695" lon="1.89249">
        <ele>170.31475189942</ele>
        <time>2019-09-15T11:08:23Z</time>
      </trkpt>
      <trkpt lat="48.65689" lon="1.89241">
        <ele>170.33216265094</ele>
        <time>2019-09-15T11:08:30Z</time>
      </trkpt>
      <trkpt lat="48.65682" lon="1.89233">
        <ele>170.34121514326</ele>
        <time>2019-09-15T11:08:35Z</time>
      </trkpt>
      <trkpt lat="48.65676" lon="1.89224">
        <ele>170.34691851218</ele>
        <time>2019-09-15T11:08:40Z</time>
      </trkpt>
      <trkpt lat="48.65672" lon="1.89216">
        <ele>170.34883973138</ele>
        <time>2019-09-15T11:08:44Z</time>
      </trkpt>
      <trkpt lat="48.65664" lon="1.89209">
        <ele>170.3479536822</ele>
        <time>2019-09-15T11:08:49Z</time>
      </trkpt>
      <trkpt lat="48.65658" lon="1.892">
        <ele>170.34859021116</ele>
        <time>2019-09-15T11:08:57Z</time>
      </trkpt>
      <trkpt lat="48.65652" lon="1.89193">
        <ele>170.34879704572</ele>
        <time>2019-09-15T11:09:03Z</time>
      </trkpt>
      <trkpt lat="48.65647" lon="1.89184">
        <ele>170.34820572597</ele>
        <time>2019-09-15T11:09:07Z</time>
      </trkpt>
      <trkpt lat="48.65642" lon="1.89175">
        <ele>170.34636579334</ele>
        <time>2019-09-15T11:09:12Z</time>
      </trkpt>
      <trkpt lat="48.65637" lon="1.89165">
        <ele>170.34339995275</ele>
        <time>2019-09-15T11:09:17Z</time>
      </trkpt>
      <trkpt lat="48.6563" lon="1.89157">
        <ele>170.3402472938</ele>
        <time>2019-09-15T11:09:25Z</time>
      </trkpt>
      <trkpt lat="48.65623" lon="1.8915">
        <ele>170.31290265828</ele>
        <time>2019-09-15T11:09:54Z</time>
      </trkpt>
      <trkpt lat="48.65616" lon="1.89143">
        <ele>170.26768073277</ele>
        <time>2019-09-15T11:10:07Z</time>
      </trkpt>
      <trkpt lat="48.65607" lon="1.8914">
        <ele>170.23628601572</ele>
        <time>2019-09-15T11:10:16Z</time>
      </trkpt>
      <trkpt lat="48.65603" lon="1.89132">
        <ele>170.18047108338</ele>
        <time>2019-09-15T11:10:29Z</time>
      </trkpt>
      <trkpt lat="48.65595" lon="1.89128">
        <ele>170.15228074847</ele>
        <time>2019-09-15T11:10:33Z</time>
      </trkpt>
      <trkpt lat="48.65589" lon="1.89119">
        <ele>170.10520118944</ele>
        <time>2019-09-15T11:10:39Z</time>
      </trkpt>
      <trkpt lat="48.65584" lon="1.89109">
        <ele>170.06306190736</ele>
        <time>2019-09-15T11:10:44Z</time>
      </trkpt>
      <trkpt lat="48.65576" lon="1.89102">
        <ele>170.01850384946</ele>
        <time>2019-09-15T11:10:50Z</time>
      </trkpt>
      <trkpt lat="48.6557" lon="1.89095">
        <ele>169.98567528108</ele>
        <time>2019-09-15T11:10:55Z</time>
      </trkpt>
      <trkpt lat="48.65563" lon="1.89086">
        <ele>169.93891718821</ele>
        <time>2019-09-15T11:11:03Z</time>
      </trkpt>
      <trkpt lat="48.65559" lon="1.89077">
        <ele>169.90797434373</ele>
        <time>2019-09-15T11:11:09Z</time>
      </trkpt>
      <trkpt lat="48.6555" lon="1.89065">
        <ele>169.8830078377</ele>
        <time>2019-09-15T11:11:14Z</time>
      </trkpt>
      <trkpt lat="48.65542" lon="1.89062">
        <ele>169.83523366043</ele>
        <time>2019-09-15T11:11:23Z</time>
      </trkpt>
      <trkpt lat="48.65535" lon="1.89055">
        <ele>169.79715967359</ele>
        <time>2019-09-15T11:11:30Z</time>
      </trkpt>
      <trkpt lat="48.65529" lon="1.89046">
        <ele>169.76304674553</ele>
        <time>2019-09-15T11:11:37Z</time>
      </trkpt>
      <trkpt lat="48.65524" lon="1.89036">
        <ele>169.74297921853</ele>
        <time>2019-09-15T11:11:42Z</time>
      </trkpt>
      <trkpt lat="48.65518" lon="1.89029">
        <ele>169.71901936382</ele>
        <time>2019-09-15T11:11:49Z</time>
      </trkpt>
      <trkpt lat="48.65511" lon="1.89023">
        <ele>169.70853688441</ele>
        <time>2019-09-15T11:11:53Z</time>
      </trkpt>
      <trkpt lat="48.65503" lon="1.89008">
        <ele>169.6998560935</ele>
        <time>2019-09-15T11:11:58Z</time>
      </trkpt>
      <trkpt lat="48.65495" lon="1.89002">
        <ele>169.68701419113</ele>
        <time>2019-09-15T11:12:05Z</time>
      </trkpt>
      <trkpt lat="48.65489" lon="1.88995">
        <ele>169.67377763085</ele>
        <time>2019-09-15T11:12:12Z</time>
      </trkpt>
      <trkpt lat="48.65482" lon="1.88989">
        <ele>169.66294371304</ele>
        <time>2019-09-15T11:12:18Z</time>
      </trkpt>
      <trkpt lat="48.65475" lon="1.88983">
        <ele>169.65979296352</ele>
        <time>2019-09-15T11:12:23Z</time>
      </trkpt>
      <trkpt lat="48.6547" lon="1.88973">
        <ele>169.67472448437</ele>
        <time>2019-09-15T11:12:32Z</time>
      </trkpt>
      <trkpt lat="48.65463" lon="1.88968">
        <ele>169.67904145862</ele>
        <time>2019-09-15T11:12:38Z</time>
      </trkpt>
      <trkpt lat="48.65455" lon="1.88962">
        <ele>169.67797289696</ele>
        <time>2019-09-15T11:12:48Z</time>
      </trkpt>
      <trkpt lat="48.65449" lon="1.88953">
        <ele>169.67461461251</ele>
        <time>2019-09-15T11:12:53Z</time>
      </trkpt>
      <trkpt lat="48.65444" lon="1.88944">
        <ele>169.67299595959</ele>
        <time>2019-09-15T11:12:58Z</time>
      </trkpt>
      <trkpt lat="48.65438" lon="1.88937">
        <ele>169.67070104171</ele>
        <time>2019-09-15T11:13:03Z</time>
      </trkpt>
      <trkpt lat="48.65432" lon="1.88927">
        <ele>169.66830030744</ele>
        <time>2019-09-15T11:13:09Z</time>
      </trkpt>
      <trkpt lat="48.65425" lon="1.8892">
        <ele>169.66596735528</ele>
        <time>2019-09-15T11:13:15Z</time>
      </trkpt>
      <trkpt lat="48.65419" lon="1.88911">
        <ele>169.66430592266</ele>
        <time>2019-09-15T11:13:20Z</time>
      </trkpt>
      <trkpt lat="48.65413" lon="1.88905">
        <ele>169.66324629193</ele>
        <time>2019-09-15T11:13:26Z</time>
      </trkpt>
      <trkpt lat="48.65405" lon="1.88899">
        <ele>169.66561399459</ele>
        <time>2019-09-15T11:13:32Z</time>
      </trkpt>
      <trkpt lat="48.65401" lon="1.88893">
        <ele>169.66939579798</ele>
        <time>2019-09-15T11:13:37Z</time>
      </trkpt>
      <trkpt lat="48.65392" lon="1.88892">
        <ele>169.80046774061</ele>
        <time>2019-09-15T11:14:49Z</time>
      </trkpt>
      <trkpt lat="48.65385" lon="1.88898">
        <ele>169.83512071117</ele>
        <time>2019-09-15T11:14:57Z</time>
      </trkpt>
      <trkpt lat="48.65379" lon="1.88908">
        <ele>169.87252319871</ele>
        <time>2019-09-15T11:15:05Z</time>
      </trkpt>
      <trkpt lat="48.65376" lon="1.8892">
        <ele>169.91167529526</ele>
        <time>2019-09-15T11:15:14Z</time>
      </trkpt>
      <trkpt lat="48.65376" lon="1.88933">
        <ele>169.94704100768</ele>
        <time>2019-09-15T11:15:22Z</time>
      </trkpt>
      <trkpt lat="48.65376" lon="1.88944">
        <ele>169.98026476111</ele>
        <time>2019-09-15T11:15:30Z</time>
      </trkpt>
      <trkpt lat="48.65374" lon="1.88955">
        <ele>169.99956953454</ele>
        <time>2019-09-15T11:15:37Z</time>
      </trkpt>
      <trkpt lat="48.65374" lon="1.88968">
        <ele>170.01876341179</ele>
        <time>2019-09-15T11:15:44Z</time>
      </trkpt>
      <trkpt lat="48.65373" lon="1.8898">
        <ele>170.04302002939</ele>
        <time>2019-09-15T11:15:51Z</time>
      </trkpt>
      <trkpt lat="48.65369" lon="1.88991">
        <ele>170.06485122047</ele>
        <time>2019-09-15T11:15:57Z</time>
      </trkpt>
      <trkpt lat="48.65367" lon="1.89004">
        <ele>170.08524019383</ele>
        <time>2019-09-15T11:16:06Z</time>
      </trkpt>
      <trkpt lat="48.65366" lon="1.89016">
        <ele>170.09539627354</ele>
        <time>2019-09-15T11:16:12Z</time>
      </trkpt>
      <trkpt lat="48.65365" lon="1.89029">
        <ele>170.09997659153</ele>
        <time>2019-09-15T11:16:20Z</time>
      </trkpt>
      <trkpt lat="48.65364" lon="1.8904">
        <ele>170.10384245556</ele>
        <time>2019-09-15T11:16:25Z</time>
      </trkpt>
      <trkpt lat="48.65367" lon="1.89052">
        <ele>170.11185020834</ele>
        <time>2019-09-15T11:16:30Z</time>
      </trkpt>
      <trkpt lat="48.65364" lon="1.89063">
        <ele>170.1234908776</ele>
        <time>2019-09-15T11:16:36Z</time>
      </trkpt>
      <trkpt lat="48.65361" lon="1.89075">
        <ele>170.13451699445</ele>
        <time>2019-09-15T11:16:41Z</time>
      </trkpt>
      <trkpt lat="48.65359" lon="1.89086">
        <ele>170.15087153562</ele>
        <time>2019-09-15T11:16:48Z</time>
      </trkpt>
      <trkpt lat="48.65358" lon="1.89098">
        <ele>170.1698309504</ele>
        <time>2019-09-15T11:16:54Z</time>
      </trkpt>
      <trkpt lat="48.65357" lon="1.89111">
        <ele>170.18838134821</ele>
        <time>2019-09-15T11:17:00Z</time>
      </trkpt>
      <trkpt lat="48.65355" lon="1.89123">
        <ele>170.19681135204</ele>
        <time>2019-09-15T11:17:06Z</time>
      </trkpt>
      <trkpt lat="48.65352" lon="1.89134">
        <ele>170.1920909323</ele>
        <time>2019-09-15T11:17:14Z</time>
      </trkpt>
      <trkpt lat="48.65348" lon="1.89144">
        <ele>170.18574398346</ele>
        <time>2019-09-15T11:17:19Z</time>
      </trkpt>
      <trkpt lat="48.65348" lon="1.89157">
        <ele>170.16686340218</ele>
        <time>2019-09-15T11:17:26Z</time>
      </trkpt>
      <trkpt lat="48.65344" lon="1.89172">
        <ele>170.15157771188</ele>
        <time>2019-09-15T11:17:31Z</time>
      </trkpt>
      <trkpt lat="48.65343" lon="1.89183">
        <ele>170.1485092272</ele>
        <time>2019-09-15T11:17:39Z</time>
      </trkpt>
      <trkpt lat="48.65341" lon="1.89196">
        <ele>170.15093161227</ele>
        <time>2019-09-15T11:17:44Z</time>
      </trkpt>
      <trkpt lat="48.65338" lon="1.89207">
        <ele>170.15450277223</ele>
        <time>2019-09-15T11:17:50Z</time>
      </trkpt>
      <trkpt lat="48.65337" lon="1.89218">
        <ele>170.1573748922</ele>
        <time>2019-09-15T11:17:55Z</time>
      </trkpt>
      <trkpt lat="48.65335" lon="1.89231">
        <ele>170.1645131933</ele>
        <time>2019-09-15T11:18:01Z</time>
      </trkpt>
      <trkpt lat="48.65333" lon="1.89242">
        <ele>170.17661681788</ele>
        <time>2019-09-15T11:18:06Z</time>
      </trkpt>
      <trkpt lat="48.6533" lon="1.89254">
        <ele>170.19714819288</ele>
        <time>2019-09-15T11:18:12Z</time>
      </trkpt>
      <trkpt lat="48.65326" lon="1.89263">
        <ele>170.22023654692</ele>
        <time>2019-09-15T11:18:17Z</time>
      </trkpt>
      <trkpt lat="48.65324" lon="1.89275">
        <ele>170.24791443665</ele>
        <time>2019-09-15T11:18:22Z</time>
      </trkpt>
      <trkpt lat="48.65321" lon="1.89288">
        <ele>170.27717827593</ele>
        <time>2019-09-15T11:18:28Z</time>
      </trkpt>
      <trkpt lat="48.65319" lon="1.89299">
        <ele>170.30824061917</ele>
        <time>2019-09-15T11:18:34Z</time>
      </trkpt>
      <trkpt lat="48.65318" lon="1.89309">
        <ele>170.33892015139</ele>
        <time>2019-09-15T11:18:40Z</time>
      </trkpt>
      <trkpt lat="48.65318" lon="1.89324">
        <ele>170.36369527167</ele>
        <time>2019-09-15T11:18:45Z</time>
      </trkpt>
      <trkpt lat="48.65316" lon="1.89337">
        <ele>170.4103163765</ele>
        <time>2019-09-15T11:18:54Z</time>
      </trkpt>
      <trkpt lat="48.65314" lon="1.89349">
        <ele>170.46010151128</ele>
        <time>2019-09-15T11:19:01Z</time>
      </trkpt>
      <trkpt lat="48.65312" lon="1.89359">
        <ele>170.49992328241</ele>
        <time>2019-09-15T11:19:07Z</time>
      </trkpt>
      <trkpt lat="48.65311" lon="1.89373">
        <ele>170.53521968945</ele>
        <time>2019-09-15T11:19:13Z</time>
      </trkpt>
      <trkpt lat="48.65313" lon="1.89386">
        <ele>170.56245276467</ele>
        <time>2019-09-15T11:19:17Z</time>
      </trkpt>
      <trkpt lat="48.6531" lon="1.89399">
        <ele>170.62739196608</ele>
        <time>2019-09-15T11:19:24Z</time>
      </trkpt>
      <trkpt lat="48.65307" lon="1.8941">
        <ele>170.70119290227</ele>
        <time>2019-09-15T11:19:30Z</time>
      </trkpt>
      <trkpt lat="48.65301" lon="1.89424">
        <ele>170.74968592784</ele>
        <time>2019-09-15T11:19:34Z</time>
      </trkpt>
      <trkpt lat="48.65298" lon="1.89435">
        <ele>170.86536866739</ele>
        <time>2019-09-15T11:19:51Z</time>
      </trkpt>
      <trkpt lat="48.65295" lon="1.89447">
        <ele>170.94728746541</ele>
        <time>2019-09-15T11:19:58Z</time>
      </trkpt>
      <trkpt lat="48.65294" lon="1.89459">
        <ele>171.09524195201</ele>
        <time>2019-09-15T11:20:08Z</time>
      </trkpt>
      <trkpt lat="48.65293" lon="1.89471">
        <ele>171.18363242595</ele>
        <time>2019-09-15T11:20:13Z</time>
      </trkpt>
      <trkpt lat="48.65292" lon="1.89483">
        <ele>171.33878306402</ele>
        <time>2019-09-15T11:20:22Z</time>
      </trkpt>
      <trkpt lat="48.6529" lon="1.89496">
        <ele>171.56028982739</ele>
        <time>2019-09-15T11:20:37Z</time>
      </trkpt>
      <trkpt lat="48.65291" lon="1.89509">
        <ele>171.61710088843</ele>
        <time>2019-09-15T11:20:42Z</time>
      </trkpt>
      <trkpt lat="48.65287" lon="1.89521">
        <ele>171.68867243617</ele>
        <time>2019-09-15T11:20:51Z</time>
      </trkpt>
      <trkpt lat="48.65287" lon="1.89534">
        <ele>171.80639380309</ele>
        <time>2019-09-15T11:21:07Z</time>
      </trkpt>
      <trkpt lat="48.65286" lon="1.89547">
        <ele>171.88082270215</ele>
        <time>2019-09-15T11:21:18Z</time>
      </trkpt>
      <trkpt lat="48.65283" lon="1.89558">
        <ele>171.91430348091</ele>
        <time>2019-09-15T11:21:24Z</time>
      </trkpt>
      <trkpt lat="48.65279" lon="1.89572">
        <ele>171.93366627907</ele>
        <time>2019-09-15T11:21:28Z</time>
      </trkpt>
      <trkpt lat="48.65276" lon="1.89584">
        <ele>171.96661050227</ele>
        <time>2019-09-15T11:21:34Z</time>
      </trkpt>
      <trkpt lat="48.65276" lon="1.89596">
        <ele>171.99591645577</ele>
        <time>2019-09-15T11:21:39Z</time>
      </trkpt>
      <trkpt lat="48.65272" lon="1.89608">
        <ele>172.0689785863</ele>
        <time>2019-09-15T11:21:50Z</time>
      </trkpt>
      <trkpt lat="48.65268" lon="1.8962">
        <ele>172.12611160025</ele>
        <time>2019-09-15T11:22:10Z</time>
      </trkpt>
      <trkpt lat="48.65266" lon="1.89632">
        <ele>172.16179707214</ele>
        <time>2019-09-15T11:22:17Z</time>
      </trkpt>
      <trkpt lat="48.65265" lon="1.89644">
        <ele>172.19288498579</ele>
        <time>2019-09-15T11:22:22Z</time>
      </trkpt>
      <trkpt lat="48.65258" lon="1.89652">
        <ele>172.27611692253</ele>
        <time>2019-09-15T11:22:56Z</time>
      </trkpt>
      <trkpt lat="48.65258" lon="1.89665">
        <ele>172.38306762874</ele>
        <time>2019-09-15T11:23:14Z</time>
      </trkpt>
      <trkpt lat="48.65256" lon="1.89677">
        <ele>172.50002229803</ele>
        <time>2019-09-15T11:23:22Z</time>
      </trkpt>
      <trkpt lat="48.65255" lon="1.89689">
        <ele>172.59543847115</ele>
        <time>2019-09-15T11:23:29Z</time>
      </trkpt>
      <trkpt lat="48.65253" lon="1.89702">
        <ele>172.65664816231</ele>
        <time>2019-09-15T11:23:34Z</time>
      </trkpt>
      <trkpt lat="48.65252" lon="1.89715">
        <ele>172.75474308859</ele>
        <time>2019-09-15T11:23:42Z</time>
      </trkpt>
      <trkpt lat="48.65249" lon="1.89726">
        <ele>172.8116169851</ele>
        <time>2019-09-15T11:23:47Z</time>
      </trkpt>
      <trkpt lat="48.65248" lon="1.89738">
        <ele>172.88941252578</ele>
        <time>2019-09-15T11:23:54Z</time>
      </trkpt>
      <trkpt lat="48.65248" lon="1.89749">
        <ele>172.94367067506</ele>
        <time>2019-09-15T11:23:59Z</time>
      </trkpt>
      <trkpt lat="48.65248" lon="1.89763">
        <ele>173.00554879972</ele>
        <time>2019-09-15T11:24:05Z</time>
      </trkpt>
      <trkpt lat="48.65246" lon="1.89776">
        <ele>173.09380720001</ele>
        <time>2019-09-15T11:24:14Z</time>
      </trkpt>
      <trkpt lat="48.65245" lon="1.89786">
        <ele>173.13151600259</ele>
        <time>2019-09-15T11:24:18Z</time>
      </trkpt>
      <trkpt lat="48.65244" lon="1.89798">
        <ele>173.17573085233</ele>
        <time>2019-09-15T11:24:23Z</time>
      </trkpt>
      <trkpt lat="48.65242" lon="1.89811">
        <ele>173.23276736275</ele>
        <time>2019-09-15T11:24:30Z</time>
      </trkpt>
      <trkpt lat="48.6524" lon="1.89822">
        <ele>173.28363933705</ele>
        <time>2019-09-15T11:24:36Z</time>
      </trkpt>
      <trkpt lat="48.65231" lon="1.89827">
        <ele>173.32306977087</ele>
        <time>2019-09-15T11:24:41Z</time>
      </trkpt>
      <trkpt lat="48.65224" lon="1.89823">
        <ele>173.35613826319</ele>
        <time>2019-09-15T11:24:45Z</time>
      </trkpt>
      <trkpt lat="48.65216" lon="1.89819">
        <ele>173.4250176114</ele>
        <time>2019-09-15T11:25:11Z</time>
      </trkpt>
      <trkpt lat="48.6521" lon="1.8981">
        <ele>173.57262143495</ele>
        <time>2019-09-15T11:25:21Z</time>
      </trkpt>
      <trkpt lat="48.65204" lon="1.89801">
        <ele>173.68605977256</ele>
        <time>2019-09-15T11:25:29Z</time>
      </trkpt>
      <trkpt lat="48.65197" lon="1.89793">
        <ele>173.82162234976</ele>
        <time>2019-09-15T11:25:46Z</time>
      </trkpt>
      <trkpt lat="48.65192" lon="1.89783">
        <ele>173.9085389234</ele>
        <time>2019-09-15T11:25:53Z</time>
      </trkpt>
      <trkpt lat="48.65186" lon="1.89774">
        <ele>173.97301952453</ele>
        <time>2019-09-15T11:25:59Z</time>
      </trkpt>
      <trkpt lat="48.65179" lon="1.89766">
        <ele>174.02146508403</ele>
        <time>2019-09-15T11:26:04Z</time>
      </trkpt>
      <trkpt lat="48.65171" lon="1.89759">
        <ele>174.10771017257</ele>
        <time>2019-09-15T11:26:12Z</time>
      </trkpt>
      <trkpt lat="48.65165" lon="1.89754">
        <ele>174.17040064157</ele>
        <time>2019-09-15T11:26:18Z</time>
      </trkpt>
      <trkpt lat="48.65156" lon="1.89751">
        <ele>174.23274208719</ele>
        <time>2019-09-15T11:26:24Z</time>
      </trkpt>
      <trkpt lat="48.6515" lon="1.89744">
        <ele>174.30227992785</ele>
        <time>2019-09-15T11:26:31Z</time>
      </trkpt>
      <trkpt lat="48.65143" lon="1.89735">
        <ele>174.36599809845</ele>
        <time>2019-09-15T11:26:38Z</time>
      </trkpt>
      <trkpt lat="48.65137" lon="1.89727">
        <ele>174.42638250689</ele>
        <time>2019-09-15T11:26:45Z</time>
      </trkpt>
      <trkpt lat="48.65128" lon="1.8972">
        <ele>174.46899560429</ele>
        <time>2019-09-15T11:26:50Z</time>
      </trkpt>
      <trkpt lat="48.65121" lon="1.89712">
        <ele>174.51631065261</ele>
        <time>2019-09-15T11:26:55Z</time>
      </trkpt>
      <trkpt lat="48.65114" lon="1.89703">
        <ele>174.61071961673</ele>
        <time>2019-09-15T11:27:02Z</time>
      </trkpt>
      <trkpt lat="48.65107" lon="1.89696">
        <ele>174.69734075362</ele>
        <time>2019-09-15T11:27:09Z</time>
      </trkpt>
      <trkpt lat="48.65101" lon="1.8969">
        <ele>174.73966212475</ele>
        <time>2019-09-15T11:27:13Z</time>
      </trkpt>
      <trkpt lat="48.65095" lon="1.89681">
        <ele>174.79841300455</ele>
        <time>2019-09-15T11:27:19Z</time>
      </trkpt>
      <trkpt lat="48.65089" lon="1.89672">
        <ele>174.86743380696</ele>
        <time>2019-09-15T11:27:26Z</time>
      </trkpt>
      <trkpt lat="48.65084" lon="1.89662">
        <ele>174.91840107239</ele>
        <time>2019-09-15T11:27:31Z</time>
      </trkpt>
      <trkpt lat="48.65077" lon="1.89653">
        <ele>174.96555642462</ele>
        <time>2019-09-15T11:27:36Z</time>
      </trkpt>
      <trkpt lat="48.6507" lon="1.89646">
        <ele>175.01716962821</ele>
        <time>2019-09-15T11:27:42Z</time>
      </trkpt>
      <trkpt lat="48.65063" lon="1.89642">
        <ele>175.0677946672</ele>
        <time>2019-09-15T11:27:48Z</time>
      </trkpt>
      <trkpt lat="48.65056" lon="1.89635">
        <ele>175.12178509491</ele>
        <time>2019-09-15T11:27:54Z</time>
      </trkpt>
      <trkpt lat="48.65048" lon="1.89629">
        <ele>175.17372275676</ele>
        <time>2019-09-15T11:28:01Z</time>
      </trkpt>
      <trkpt lat="48.65042" lon="1.89622">
        <ele>175.20232349002</ele>
        <time>2019-09-15T11:28:07Z</time>
      </trkpt>
      <trkpt lat="48.65035" lon="1.89614">
        <ele>175.2239549292</ele>
        <time>2019-09-15T11:28:14Z</time>
      </trkpt>
      <trkpt lat="48.65028" lon="1.89607">
        <ele>175.22995951795</ele>
        <time>2019-09-15T11:28:20Z</time>
      </trkpt>
      <trkpt lat="48.65021" lon="1.89599">
        <ele>175.23208998034</ele>
        <time>2019-09-15T11:28:28Z</time>
      </trkpt>
      <trkpt lat="48.65014" lon="1.89593">
        <ele>175.23679212425</ele>
        <time>2019-09-15T11:28:33Z</time>
      </trkpt>
      <trkpt lat="48.65007" lon="1.89587">
        <ele>175.23727969397</ele>
        <time>2019-09-15T11:28:38Z</time>
      </trkpt>
      <trkpt lat="48.65" lon="1.89581">
        <ele>175.23724907834</ele>
        <time>2019-09-15T11:28:44Z</time>
      </trkpt>
      <trkpt lat="48.64993" lon="1.89575">
        <ele>175.2459372938</ele>
        <time>2019-09-15T11:28:50Z</time>
      </trkpt>
      <trkpt lat="48.64986" lon="1.89569">
        <ele>175.27341985171</ele>
        <time>2019-09-15T11:28:56Z</time>
      </trkpt>
      <trkpt lat="48.64978" lon="1.89566">
        <ele>175.3010812678</ele>
        <time>2019-09-15T11:29:02Z</time>
      </trkpt>
      <trkpt lat="48.64969" lon="1.89561">
        <ele>175.31859309762</ele>
        <time>2019-09-15T11:29:08Z</time>
      </trkpt>
      <trkpt lat="48.64962" lon="1.89557">
        <ele>175.3220529632</ele>
        <time>2019-09-15T11:29:14Z</time>
      </trkpt>
      <trkpt lat="48.64954" lon="1.89553">
        <ele>175.31409272516</ele>
        <time>2019-09-15T11:29:22Z</time>
      </trkpt>
      <trkpt lat="48.64947" lon="1.89546">
        <ele>175.29739662056</ele>
        <time>2019-09-15T11:29:28Z</time>
      </trkpt>
      <trkpt lat="48.6494" lon="1.89541">
        <ele>175.27862296277</ele>
        <time>2019-09-15T11:29:33Z</time>
      </trkpt>
      <trkpt lat="48.64933" lon="1.89531">
        <ele>175.25454438248</ele>
        <time>2019-09-15T11:29:41Z</time>
      </trkpt>
      <trkpt lat="48.64926" lon="1.89525">
        <ele>175.23902869747</ele>
        <time>2019-09-15T11:29:49Z</time>
      </trkpt>
      <trkpt lat="48.64919" lon="1.89517">
        <ele>175.20105300286</ele>
        <time>2019-09-15T11:29:57Z</time>
      </trkpt>
      <trkpt lat="48.64912" lon="1.89509">
        <ele>175.17173113013</ele>
        <time>2019-09-15T11:30:02Z</time>
      </trkpt>
      <trkpt lat="48.64906" lon="1.89502">
        <ele>175.14293122577</ele>
        <time>2019-09-15T11:30:08Z</time>
      </trkpt>
      <trkpt lat="48.64899" lon="1.89493">
        <ele>175.12930789939</ele>
        <time>2019-09-15T11:30:13Z</time>
      </trkpt>
      <trkpt lat="48.64892" lon="1.89488">
        <ele>175.11124052841</ele>
        <time>2019-09-15T11:30:33Z</time>
      </trkpt>
      <trkpt lat="48.64885" lon="1.89482">
        <ele>175.10670750171</ele>
        <time>2019-09-15T11:30:39Z</time>
      </trkpt>
      <trkpt lat="48.64884" lon="1.89496">
        <ele>175.5130859265</ele>
        <time>2019-09-15T11:34:16Z</time>
      </trkpt>
      <trkpt lat="48.6488" lon="1.89508">
        <ele>175.5491982073</ele>
        <time>2019-09-15T11:34:23Z</time>
      </trkpt>
      <trkpt lat="48.64875" lon="1.89517">
        <ele>175.59480201166</ele>
        <time>2019-09-15T11:34:32Z</time>
      </trkpt>
      <trkpt lat="48.64869" lon="1.89527">
        <ele>175.62931568297</ele>
        <time>2019-09-15T11:34:40Z</time>
      </trkpt>
      <trkpt lat="48.64863" lon="1.89537">
        <ele>175.66129360835</ele>
        <time>2019-09-15T11:34:46Z</time>
      </trkpt>
      <trkpt lat="48.64859" lon="1.89547">
        <ele>175.6884413307</ele>
        <time>2019-09-15T11:34:51Z</time>
      </trkpt>
      <trkpt lat="48.64853" lon="1.89555">
        <ele>175.70939236597</ele>
        <time>2019-09-15T11:34:56Z</time>
      </trkpt>
      <trkpt lat="48.64849" lon="1.89566">
        <ele>175.75185489254</ele>
        <time>2019-09-15T11:35:05Z</time>
      </trkpt>
      <trkpt lat="48.64844" lon="1.89576">
        <ele>175.80871465915</ele>
        <time>2019-09-15T11:35:15Z</time>
      </trkpt>
      <trkpt lat="48.64843" lon="1.89589">
        <ele>175.97699903971</ele>
        <time>2019-09-15T11:35:45Z</time>
      </trkpt>
      <trkpt lat="48.64839" lon="1.89601">
        <ele>176.11260794892</ele>
        <time>2019-09-15T11:35:55Z</time>
      </trkpt>
      <trkpt lat="48.64834" lon="1.89611">
        <ele>176.18452636064</ele>
        <time>2019-09-15T11:36:00Z</time>
      </trkpt>
      <trkpt lat="48.64829" lon="1.89621">
        <ele>176.25830397488</ele>
        <time>2019-09-15T11:36:05Z</time>
      </trkpt>
      <trkpt lat="48.64823" lon="1.8963">
        <ele>176.3292623229</ele>
        <time>2019-09-15T11:36:10Z</time>
      </trkpt>
      <trkpt lat="48.64816" lon="1.89639">
        <ele>176.43619872232</ele>
        <time>2019-09-15T11:36:18Z</time>
      </trkpt>
      <trkpt lat="48.64812" lon="1.89649">
        <ele>176.54020824497</ele>
        <time>2019-09-15T11:36:26Z</time>
      </trkpt>
      <trkpt lat="48.64807" lon="1.8966">
        <ele>176.61458502944</ele>
        <time>2019-09-15T11:36:32Z</time>
      </trkpt>
      <trkpt lat="48.64803" lon="1.8967">
        <ele>176.69056560462</ele>
        <time>2019-09-15T11:36:39Z</time>
      </trkpt>
      <trkpt lat="48.64799" lon="1.89681">
        <ele>176.73512709688</ele>
        <time>2019-09-15T11:36:44Z</time>
      </trkpt>
      <trkpt lat="48.64795" lon="1.89693">
        <ele>176.79566903645</ele>
        <time>2019-09-15T11:36:51Z</time>
      </trkpt>
      <trkpt lat="48.64791" lon="1.89702">
        <ele>176.84415054547</ele>
        <time>2019-09-15T11:36:57Z</time>
      </trkpt>
      <trkpt lat="48.64785" lon="1.89711">
        <ele>176.87853922988</ele>
        <time>2019-09-15T11:37:02Z</time>
      </trkpt>
      <trkpt lat="48.64782" lon="1.89723">
        <ele>176.90581779998</ele>
        <time>2019-09-15T11:37:07Z</time>
      </trkpt>
      <trkpt lat="48.64777" lon="1.89733">
        <ele>176.94121649972</ele>
        <time>2019-09-15T11:37:14Z</time>
      </trkpt>
      <trkpt lat="48.6477" lon="1.8974">
        <ele>176.96901312286</ele>
        <time>2019-09-15T11:37:20Z</time>
      </trkpt>
      <trkpt lat="48.64765" lon="1.8975">
        <ele>177.00025972418</ele>
        <time>2019-09-15T11:37:27Z</time>
      </trkpt>
      <trkpt lat="48.64759" lon="1.89759">
        <ele>177.02200133713</ele>
        <time>2019-09-15T11:37:32Z</time>
      </trkpt>
      <trkpt lat="48.64754" lon="1.8977">
        <ele>177.06431291744</ele>
        <time>2019-09-15T11:37:41Z</time>
      </trkpt>
      <trkpt lat="48.6475" lon="1.8978">
        <ele>177.09441140601</ele>
        <time>2019-09-15T11:37:46Z</time>
      </trkpt>
      <trkpt lat="48.64745" lon="1.89791">
        <ele>177.13581686617</ele>
        <time>2019-09-15T11:37:53Z</time>
      </trkpt>
      <trkpt lat="48.6474" lon="1.89801">
        <ele>177.18667082846</ele>
        <time>2019-09-15T11:38:01Z</time>
      </trkpt>
      <trkpt lat="48.64736" lon="1.89809">
        <ele>177.23822619328</ele>
        <time>2019-09-15T11:38:09Z</time>
      </trkpt>
      <trkpt lat="48.6473" lon="1.89821">
        <ele>177.26573117883</ele>
        <time>2019-09-15T11:38:14Z</time>
      </trkpt>
      <trkpt lat="48.64725" lon="1.89832">
        <ele>177.29361998801</ele>
        <time>2019-09-15T11:38:19Z</time>
      </trkpt>
      <trkpt lat="48.64719" lon="1.89837">
        <ele>177.33426055632</ele>
        <time>2019-09-15T11:38:25Z</time>
      </trkpt>
      <trkpt lat="48.64713" lon="1.89847">
        <ele>177.38849549572</ele>
        <time>2019-09-15T11:38:33Z</time>
      </trkpt>
      <trkpt lat="48.64709" lon="1.89859">
        <ele>177.4379867598</ele>
        <time>2019-09-15T11:38:40Z</time>
      </trkpt>
      <trkpt lat="48.64707" lon="1.8987">
        <ele>177.48249203365</ele>
        <time>2019-09-15T11:38:46Z</time>
      </trkpt>
      <trkpt lat="48.64703" lon="1.8988">
        <ele>177.51923682025</ele>
        <time>2019-09-15T11:38:51Z</time>
      </trkpt>
      <trkpt lat="48.64698" lon="1.89891">
        <ele>177.55533147913</ele>
        <time>2019-09-15T11:38:56Z</time>
      </trkpt>
      <trkpt lat="48.64693" lon="1.89902">
        <ele>177.60056620441</ele>
        <time>2019-09-15T11:39:04Z</time>
      </trkpt>
      <trkpt lat="48.64698" lon="1.89893">
        <ele>177.63464872357</ele>
        <time>2019-09-15T11:39:30Z</time>
      </trkpt>
      <trkpt lat="48.64705" lon="1.89881">
        <ele>177.64133441522</ele>
        <time>2019-09-15T11:39:35Z</time>
      </trkpt>
      <trkpt lat="48.6471" lon="1.89871">
        <ele>177.65827402388</ele>
        <time>2019-09-15T11:39:41Z</time>
      </trkpt>
      <trkpt lat="48.64713" lon="1.89858">
        <ele>177.63921100123</ele>
        <time>2019-09-15T11:39:56Z</time>
      </trkpt>
      <trkpt lat="48.64706" lon="1.89864">
        <ele>177.57018389939</ele>
        <time>2019-09-15T11:40:26Z</time>
      </trkpt>
      <trkpt lat="48.647" lon="1.89874">
        <ele>177.57340034633</ele>
        <time>2019-09-15T11:40:31Z</time>
      </trkpt>
      <trkpt lat="48.64696" lon="1.89884">
        <ele>177.54526130139</ele>
        <time>2019-09-15T11:40:41Z</time>
      </trkpt>
      <trkpt lat="48.64691" lon="1.89895">
        <ele>177.52821097897</ele>
        <time>2019-09-15T11:40:49Z</time>
      </trkpt>
      <trkpt lat="48.64687" lon="1.89906">
        <ele>177.52678689997</ele>
        <time>2019-09-15T11:40:55Z</time>
      </trkpt>
      <trkpt lat="48.64682" lon="1.89914">
        <ele>177.53189972193</ele>
        <time>2019-09-15T11:41:02Z</time>
      </trkpt>
      <trkpt lat="48.64678" lon="1.89926">
        <ele>177.57000036783</ele>
        <time>2019-09-15T11:41:58Z</time>
      </trkpt>
      <trkpt lat="48.64671" lon="1.89933">
        <ele>177.59084099559</ele>
        <time>2019-09-15T11:42:06Z</time>
      </trkpt>
      <trkpt lat="48.64666" lon="1.89944">
        <ele>177.61270471818</ele>
        <time>2019-09-15T11:42:15Z</time>
      </trkpt>
      <trkpt lat="48.64661" lon="1.89953">
        <ele>177.62915507916</ele>
        <time>2019-09-15T11:42:24Z</time>
      </trkpt>
      <trkpt lat="48.64656" lon="1.89964">
        <ele>177.63606608865</ele>
        <time>2019-09-15T11:42:29Z</time>
      </trkpt>
      <trkpt lat="48.64652" lon="1.89974">
        <ele>177.64813970853</ele>
        <time>2019-09-15T11:42:34Z</time>
      </trkpt>
      <trkpt lat="48.64648" lon="1.89983">
        <ele>177.66661012363</ele>
        <time>2019-09-15T11:42:40Z</time>
      </trkpt>
      <trkpt lat="48.64644" lon="1.89993">
        <ele>177.69518467104</ele>
        <time>2019-09-15T11:42:46Z</time>
      </trkpt>
      <trkpt lat="48.64638" lon="1.90001">
        <ele>177.72071195608</ele>
        <time>2019-09-15T11:42:54Z</time>
      </trkpt>
      <trkpt lat="48.64632" lon="1.9001">
        <ele>177.73695857396</ele>
        <time>2019-09-15T11:43:00Z</time>
      </trkpt>
      <trkpt lat="48.6463" lon="1.90021">
        <ele>177.74888036439</ele>
        <time>2019-09-15T11:43:06Z</time>
      </trkpt>
      <trkpt lat="48.64628" lon="1.90034">
        <ele>177.76456240706</ele>
        <time>2019-09-15T11:43:13Z</time>
      </trkpt>
      <trkpt lat="48.64624" lon="1.90045">
        <ele>177.77615376604</ele>
        <time>2019-09-15T11:43:19Z</time>
      </trkpt>
      <trkpt lat="48.64618" lon="1.90054">
        <ele>177.78969937867</ele>
        <time>2019-09-15T11:43:28Z</time>
      </trkpt>
      <trkpt lat="48.64614" lon="1.90065">
        <ele>177.80081795782</ele>
        <time>2019-09-15T11:43:39Z</time>
      </trkpt>
      <trkpt lat="48.64609" lon="1.90075">
        <ele>177.80189033263</ele>
        <time>2019-09-15T11:43:47Z</time>
      </trkpt>
      <trkpt lat="48.64604" lon="1.90088">
        <ele>177.79590890084</ele>
        <time>2019-09-15T11:43:51Z</time>
      </trkpt>
      <trkpt lat="48.646" lon="1.901">
        <ele>177.81515758457</ele>
        <time>2019-09-15T11:44:02Z</time>
      </trkpt>
      <trkpt lat="48.64595" lon="1.9011">
        <ele>177.86202132484</ele>
        <time>2019-09-15T11:44:08Z</time>
      </trkpt>
      <trkpt lat="48.6459" lon="1.90121">
        <ele>177.91601433444</ele>
        <time>2019-09-15T11:44:14Z</time>
      </trkpt>
      <trkpt lat="48.64584" lon="1.9013">
        <ele>177.98875788886</ele>
        <time>2019-09-15T11:44:21Z</time>
      </trkpt>
      <trkpt lat="48.64579" lon="1.90138">
        <ele>178.07045979798</ele>
        <time>2019-09-15T11:44:29Z</time>
      </trkpt>
      <trkpt lat="48.64573" lon="1.90148">
        <ele>178.14885300679</ele>
        <time>2019-09-15T11:44:36Z</time>
      </trkpt>
      <trkpt lat="48.64568" lon="1.90159">
        <ele>178.24762688245</ele>
        <time>2019-09-15T11:44:44Z</time>
      </trkpt>
      <trkpt lat="48.64565" lon="1.9017">
        <ele>178.32297636717</ele>
        <time>2019-09-15T11:44:52Z</time>
      </trkpt>
      <trkpt lat="48.64561" lon="1.9018">
        <ele>178.38530427767</ele>
        <time>2019-09-15T11:44:58Z</time>
      </trkpt>
      <trkpt lat="48.64556" lon="1.9019">
        <ele>178.44170528586</ele>
        <time>2019-09-15T11:45:06Z</time>
      </trkpt>
      <trkpt lat="48.6455" lon="1.90199">
        <ele>178.48480366009</ele>
        <time>2019-09-15T11:45:14Z</time>
      </trkpt>
      <trkpt lat="48.64545" lon="1.90209">
        <ele>178.5194644314</ele>
        <time>2019-09-15T11:45:21Z</time>
      </trkpt>
      <trkpt lat="48.64537" lon="1.90214">
        <ele>178.5437058754</ele>
        <time>2019-09-15T11:45:26Z</time>
      </trkpt>
      <trkpt lat="48.64529" lon="1.9021">
        <ele>178.56437861768</ele>
        <time>2019-09-15T11:45:31Z</time>
      </trkpt>
      <trkpt lat="48.64523" lon="1.90203">
        <ele>178.58856486276</ele>
        <time>2019-09-15T11:45:36Z</time>
      </trkpt>
      <trkpt lat="48.64516" lon="1.90198">
        <ele>178.62039835097</ele>
        <time>2019-09-15T11:45:44Z</time>
      </trkpt>
      <trkpt lat="48.64508" lon="1.90192">
        <ele>178.63670725823</ele>
        <time>2019-09-15T11:45:51Z</time>
      </trkpt>
      <trkpt lat="48.64502" lon="1.90182">
        <ele>178.6465340249</ele>
        <time>2019-09-15T11:45:57Z</time>
      </trkpt>
      <trkpt lat="48.64496" lon="1.90172">
        <ele>178.66278422956</ele>
        <time>2019-09-15T11:46:04Z</time>
      </trkpt>
      <trkpt lat="48.6449" lon="1.90164">
        <ele>178.67354294264</ele>
        <time>2019-09-15T11:46:11Z</time>
      </trkpt>
      <trkpt lat="48.64484" lon="1.90156">
        <ele>178.68471113544</ele>
        <time>2019-09-15T11:46:18Z</time>
      </trkpt>
      <trkpt lat="48.64477" lon="1.90149">
        <ele>178.68785493467</ele>
        <time>2019-09-15T11:46:25Z</time>
      </trkpt>
      <trkpt lat="48.64471" lon="1.9014">
        <ele>178.68889802483</ele>
        <time>2019-09-15T11:46:31Z</time>
      </trkpt>
      <trkpt lat="48.64464" lon="1.90133">
        <ele>178.68759325231</ele>
        <time>2019-09-15T11:46:36Z</time>
      </trkpt>
      <trkpt lat="48.64456" lon="1.90129">
        <ele>178.68297574165</ele>
        <time>2019-09-15T11:46:42Z</time>
      </trkpt>
      <trkpt lat="48.64449" lon="1.90124">
        <ele>178.67260007599</ele>
        <time>2019-09-15T11:46:50Z</time>
      </trkpt>
      <trkpt lat="48.64443" lon="1.90116">
        <ele>178.65740211439</ele>
        <time>2019-09-15T11:46:56Z</time>
      </trkpt>
      <trkpt lat="48.64437" lon="1.90107">
        <ele>178.64070146734</ele>
        <time>2019-09-15T11:47:02Z</time>
      </trkpt>
      <trkpt lat="48.64431" lon="1.90099">
        <ele>178.621251665</ele>
        <time>2019-09-15T11:47:09Z</time>
      </trkpt>
      <trkpt lat="48.64424" lon="1.90092">
        <ele>178.6097397125</ele>
        <time>2019-09-15T11:47:15Z</time>
      </trkpt>
      <trkpt lat="48.64417" lon="1.90084">
        <ele>178.59479979767</ele>
        <time>2019-09-15T11:47:23Z</time>
      </trkpt>
      <trkpt lat="48.6441" lon="1.90077">
        <ele>178.59128919314</ele>
        <time>2019-09-15T11:47:30Z</time>
      </trkpt>
      <trkpt lat="48.64403" lon="1.90069">
        <ele>178.58887037916</ele>
        <time>2019-09-15T11:47:37Z</time>
      </trkpt>
      <trkpt lat="48.64397" lon="1.90063">
        <ele>178.58414662233</ele>
        <time>2019-09-15T11:47:43Z</time>
      </trkpt>
      <trkpt lat="48.64391" lon="1.90056">
        <ele>178.57952944249</ele>
        <time>2019-09-15T11:47:48Z</time>
      </trkpt>
      <trkpt lat="48.64384" lon="1.90048">
        <ele>178.56877948613</ele>
        <time>2019-09-15T11:47:55Z</time>
      </trkpt>
      <trkpt lat="48.64377" lon="1.90039">
        <ele>178.55728478454</ele>
        <time>2019-09-15T11:48:02Z</time>
      </trkpt>
      <trkpt lat="48.64372" lon="1.90031">
        <ele>178.54714444225</ele>
        <time>2019-09-15T11:48:06Z</time>
      </trkpt>
      <trkpt lat="48.64364" lon="1.90025">
        <ele>178.52573148713</ele>
        <time>2019-09-15T11:48:13Z</time>
      </trkpt>
      <trkpt lat="48.64358" lon="1.90016">
        <ele>178.50414071164</ele>
        <time>2019-09-15T11:48:19Z</time>
      </trkpt>
      <trkpt lat="48.6435" lon="1.90011">
        <ele>178.48207648059</ele>
        <time>2019-09-15T11:48:26Z</time>
      </trkpt>
      <trkpt lat="48.64343" lon="1.90005">
        <ele>178.46038842075</ele>
        <time>2019-09-15T11:48:32Z</time>
      </trkpt>
      <trkpt lat="48.64336" lon="1.89997">
        <ele>178.44629929396</ele>
        <time>2019-09-15T11:48:38Z</time>
      </trkpt>
      <trkpt lat="48.64329" lon="1.89991">
        <ele>178.43009106833</ele>
        <time>2019-09-15T11:48:44Z</time>
      </trkpt>
      <trkpt lat="48.64322" lon="1.89982">
        <ele>178.41009657247</ele>
        <time>2019-09-15T11:48:51Z</time>
      </trkpt>
      <trkpt lat="48.64316" lon="1.89974">
        <ele>178.39246417202</ele>
        <time>2019-09-15T11:48:57Z</time>
      </trkpt>
      <trkpt lat="48.6431" lon="1.89965">
        <ele>178.37067450859</ele>
        <time>2019-09-15T11:49:05Z</time>
      </trkpt>
      <trkpt lat="48.64304" lon="1.89956">
        <ele>178.35458256053</ele>
        <time>2019-09-15T11:49:11Z</time>
      </trkpt>
      <trkpt lat="48.64297" lon="1.8995">
        <ele>178.34194284092</ele>
        <time>2019-09-15T11:49:19Z</time>
      </trkpt>
      <trkpt lat="48.64289" lon="1.89943">
        <ele>178.32953962809</ele>
        <time>2019-09-15T11:49:26Z</time>
      </trkpt>
      <trkpt lat="48.64283" lon="1.89936">
        <ele>178.32446610518</ele>
        <time>2019-09-15T11:49:32Z</time>
      </trkpt>
      <trkpt lat="48.64276" lon="1.89927">
        <ele>178.32508856565</ele>
        <time>2019-09-15T11:49:39Z</time>
      </trkpt>
      <trkpt lat="48.64269" lon="1.8992">
        <ele>178.32605456703</ele>
        <time>2019-09-15T11:49:43Z</time>
      </trkpt>
      <trkpt lat="48.64263" lon="1.89911">
        <ele>178.32384401444</ele>
        <time>2019-09-15T11:49:51Z</time>
      </trkpt>
      <trkpt lat="48.64257" lon="1.89902">
        <ele>178.32019332442</ele>
        <time>2019-09-15T11:49:57Z</time>
      </trkpt>
      <trkpt lat="48.6425" lon="1.89894">
        <ele>178.31318381992</ele>
        <time>2019-09-15T11:50:04Z</time>
      </trkpt>
      <trkpt lat="48.64245" lon="1.89887">
        <ele>178.30803515558</ele>
        <time>2019-09-15T11:50:09Z</time>
      </trkpt>
      <trkpt lat="48.64238" lon="1.89881">
        <ele>178.29960744731</ele>
        <time>2019-09-15T11:50:15Z</time>
      </trkpt>
      <trkpt lat="48.64231" lon="1.89876">
        <ele>178.28825459944</ele>
        <time>2019-09-15T11:50:20Z</time>
      </trkpt>
      <trkpt lat="48.64224" lon="1.89869">
        <ele>178.27304096055</ele>
        <time>2019-09-15T11:50:26Z</time>
      </trkpt>
      <trkpt lat="48.64216" lon="1.89862">
        <ele>178.2525055471</ele>
        <time>2019-09-15T11:50:34Z</time>
      </trkpt>
      <trkpt lat="48.64209" lon="1.89855">
        <ele>178.24166528783</ele>
        <time>2019-09-15T11:50:39Z</time>
      </trkpt>
      <trkpt lat="48.64203" lon="1.89846">
        <ele>178.2292149449</ele>
        <time>2019-09-15T11:50:46Z</time>
      </trkpt>
      <trkpt lat="48.64196" lon="1.89841">
        <ele>178.21277917197</ele>
        <time>2019-09-15T11:50:52Z</time>
      </trkpt>
      <trkpt lat="48.64188" lon="1.89839">
        <ele>178.18805309557</ele>
        <time>2019-09-15T11:50:58Z</time>
      </trkpt>
      <trkpt lat="48.64181" lon="1.89831">
        <ele>178.16374910019</ele>
        <time>2019-09-15T11:51:03Z</time>
      </trkpt>
      <trkpt lat="48.64174" lon="1.89822">
        <ele>178.12071651164</ele>
        <time>2019-09-15T11:51:11Z</time>
      </trkpt>
      <trkpt lat="48.64168" lon="1.89816">
        <ele>178.08588763029</ele>
        <time>2019-09-15T11:51:17Z</time>
      </trkpt>
      <trkpt lat="48.64162" lon="1.89808">
        <ele>178.05624773427</ele>
        <time>2019-09-15T11:51:22Z</time>
      </trkpt>
      <trkpt lat="48.64157" lon="1.89799">
        <ele>178.01132272464</ele>
        <time>2019-09-15T11:51:29Z</time>
      </trkpt>
      <trkpt lat="48.6415" lon="1.8979">
        <ele>177.95323935136</ele>
        <time>2019-09-15T11:51:37Z</time>
      </trkpt>
      <trkpt lat="48.64143" lon="1.89782">
        <ele>177.88562622055</ele>
        <time>2019-09-15T11:51:45Z</time>
      </trkpt>
      <trkpt lat="48.64138" lon="1.89772">
        <ele>177.84576526903</ele>
        <time>2019-09-15T11:51:50Z</time>
      </trkpt>
      <trkpt lat="48.64131" lon="1.89766">
        <ele>177.77517084258</ele>
        <time>2019-09-15T11:51:59Z</time>
      </trkpt>
      <trkpt lat="48.64123" lon="1.89759">
        <ele>177.72282106545</ele>
        <time>2019-09-15T11:52:04Z</time>
      </trkpt>
      <trkpt lat="48.64116" lon="1.89754">
        <ele>177.66636345958</ele>
        <time>2019-09-15T11:52:11Z</time>
      </trkpt>
      <trkpt lat="48.64109" lon="1.89747">
        <ele>177.61134220586</ele>
        <time>2019-09-15T11:52:18Z</time>
      </trkpt>
      <trkpt lat="48.64102" lon="1.8974">
        <ele>177.55762004206</ele>
        <time>2019-09-15T11:52:25Z</time>
      </trkpt>
      <trkpt lat="48.64096" lon="1.89733">
        <ele>177.50978632835</ele>
        <time>2019-09-15T11:52:31Z</time>
      </trkpt>
      <trkpt lat="48.64089" lon="1.89724">
        <ele>177.46285849617</ele>
        <time>2019-09-15T11:52:37Z</time>
      </trkpt>
      <trkpt lat="48.64082" lon="1.89718">
        <ele>177.41693239772</ele>
        <time>2019-09-15T11:52:43Z</time>
      </trkpt>
      <trkpt lat="48.64076" lon="1.89711">
        <ele>177.37237300928</ele>
        <time>2019-09-15T11:52:49Z</time>
      </trkpt>
      <trkpt lat="48.64068" lon="1.89705">
        <ele>177.32593750066</ele>
        <time>2019-09-15T11:52:55Z</time>
      </trkpt>
      <trkpt lat="48.64061" lon="1.89698">
        <ele>177.276571079</ele>
        <time>2019-09-15T11:53:01Z</time>
      </trkpt>
      <trkpt lat="48.64055" lon="1.8969">
        <ele>177.23314065276</ele>
        <time>2019-09-15T11:53:07Z</time>
      </trkpt>
      <trkpt lat="48.6405" lon="1.89681">
        <ele>177.19019970661</ele>
        <time>2019-09-15T11:53:11Z</time>
      </trkpt>
      <trkpt lat="48.64043" lon="1.89672">
        <ele>177.1201685579</ele>
        <time>2019-09-15T11:53:19Z</time>
      </trkpt>
      <trkpt lat="48.64036" lon="1.89665">
        <ele>177.05520620517</ele>
        <time>2019-09-15T11:53:26Z</time>
      </trkpt>
      <trkpt lat="48.64031" lon="1.89655">
        <ele>176.99863339315</ele>
        <time>2019-09-15T11:53:32Z</time>
      </trkpt>
      <trkpt lat="48.64023" lon="1.89648">
        <ele>176.93922518935</ele>
        <time>2019-09-15T11:53:38Z</time>
      </trkpt>
      <trkpt lat="48.64017" lon="1.8964">
        <ele>176.8789960083</ele>
        <time>2019-09-15T11:53:44Z</time>
      </trkpt>
      <trkpt lat="48.64011" lon="1.89631">
        <ele>176.77811788067</ele>
        <time>2019-09-15T11:53:53Z</time>
      </trkpt>
      <trkpt lat="48.64005" lon="1.89622">
        <ele>176.70409680691</ele>
        <time>2019-09-15T11:53:58Z</time>
      </trkpt>
      <trkpt lat="48.63997" lon="1.89616">
        <ele>176.60679386585</ele>
        <time>2019-09-15T11:54:04Z</time>
      </trkpt>
      <trkpt lat="48.63991" lon="1.89608">
        <ele>176.49865169994</ele>
        <time>2019-09-15T11:54:09Z</time>
      </trkpt>
      <trkpt lat="48.63984" lon="1.89599">
        <ele>176.37032313861</ele>
        <time>2019-09-15T11:54:16Z</time>
      </trkpt>
      <trkpt lat="48.63978" lon="1.8959">
        <ele>176.22949821754</ele>
        <time>2019-09-15T11:54:24Z</time>
      </trkpt>
      <trkpt lat="48.63971" lon="1.89583">
        <ele>176.11491682624</ele>
        <time>2019-09-15T11:54:31Z</time>
      </trkpt>
      <trkpt lat="48.63963" lon="1.89577">
        <ele>176.02177815981</ele>
        <time>2019-09-15T11:54:37Z</time>
      </trkpt>
      <trkpt lat="48.63955" lon="1.89573">
        <ele>175.94385548811</ele>
        <time>2019-09-15T11:54:43Z</time>
      </trkpt>
      <trkpt lat="48.63949" lon="1.89565">
        <ele>175.84919832714</ele>
        <time>2019-09-15T11:54:48Z</time>
      </trkpt>
      <trkpt lat="48.63942" lon="1.89559">
        <ele>175.7504185155</ele>
        <time>2019-09-15T11:54:54Z</time>
      </trkpt>
      <trkpt lat="48.63935" lon="1.89556">
        <ele>175.67146043089</ele>
        <time>2019-09-15T11:55:00Z</time>
      </trkpt>
      <trkpt lat="48.63929" lon="1.89547">
        <ele>175.58134748682</ele>
        <time>2019-09-15T11:55:05Z</time>
      </trkpt>
      <trkpt lat="48.63923" lon="1.89538">
        <ele>175.46575409891</ele>
        <time>2019-09-15T11:55:14Z</time>
      </trkpt>
      <trkpt lat="48.63916" lon="1.8953">
        <ele>175.38109162249</ele>
        <time>2019-09-15T11:55:20Z</time>
      </trkpt>
      <trkpt lat="48.6391" lon="1.89521">
        <ele>175.30102452573</ele>
        <time>2019-09-15T11:55:25Z</time>
      </trkpt>
      <trkpt lat="48.63904" lon="1.89512">
        <ele>175.21123070518</ele>
        <time>2019-09-15T11:55:32Z</time>
      </trkpt>
      <trkpt lat="48.63897" lon="1.89507">
        <ele>175.14889540769</ele>
        <time>2019-09-15T11:55:37Z</time>
      </trkpt>
      <trkpt lat="48.6389" lon="1.89499">
        <ele>175.07350942629</ele>
        <time>2019-09-15T11:55:44Z</time>
      </trkpt>
      <trkpt lat="48.63882" lon="1.89494">
        <ele>174.97792172473</ele>
        <time>2019-09-15T11:55:51Z</time>
      </trkpt>
      <trkpt lat="48.63877" lon="1.89485">
        <ele>174.91593841212</ele>
        <time>2019-09-15T11:55:57Z</time>
      </trkpt>
      <trkpt lat="48.6387" lon="1.89479">
        <ele>174.87063094189</ele>
        <time>2019-09-15T11:56:02Z</time>
      </trkpt>
      <trkpt lat="48.63865" lon="1.8947">
        <ele>174.82098236137</ele>
        <time>2019-09-15T11:56:08Z</time>
      </trkpt>
      <trkpt lat="48.63859" lon="1.89462">
        <ele>174.78233266054</ele>
        <time>2019-09-15T11:56:14Z</time>
      </trkpt>
      <trkpt lat="48.63852" lon="1.89455">
        <ele>174.73692410705</ele>
        <time>2019-09-15T11:56:20Z</time>
      </trkpt>
      <trkpt lat="48.63845" lon="1.89448">
        <ele>174.67258883341</ele>
        <time>2019-09-15T11:56:27Z</time>
      </trkpt>
      <trkpt lat="48.63837" lon="1.89442">
        <ele>174.61437718582</ele>
        <time>2019-09-15T11:56:35Z</time>
      </trkpt>
      <trkpt lat="48.63838" lon="1.89429">
        <ele>174.5679827404</ele>
        <time>2019-09-15T11:56:43Z</time>
      </trkpt>
      <trkpt lat="48.63843" lon="1.89415">
        <ele>174.54213566439</ele>
        <time>2019-09-15T11:56:48Z</time>
      </trkpt>
      <trkpt lat="48.63847" lon="1.89406">
        <ele>174.51817217199</ele>
        <time>2019-09-15T11:56:53Z</time>
      </trkpt>
      <trkpt lat="48.63854" lon="1.89397">
        <ele>174.49417289515</ele>
        <time>2019-09-15T11:56:58Z</time>
      </trkpt>
      <trkpt lat="48.6386" lon="1.89388">
        <ele>174.46780578957</ele>
        <time>2019-09-15T11:57:04Z</time>
      </trkpt>
      <trkpt lat="48.63866" lon="1.89381">
        <ele>174.42930338385</ele>
        <time>2019-09-15T11:57:13Z</time>
      </trkpt>
      <trkpt lat="48.63873" lon="1.89372">
        <ele>174.4052237008</ele>
        <time>2019-09-15T11:57:19Z</time>
      </trkpt>
      <trkpt lat="48.63879" lon="1.89361">
        <ele>174.38309167894</ele>
        <time>2019-09-15T11:57:26Z</time>
      </trkpt>
      <trkpt lat="48.63884" lon="1.89351">
        <ele>174.35979454702</ele>
        <time>2019-09-15T11:57:33Z</time>
      </trkpt>
      <trkpt lat="48.63889" lon="1.89341">
        <ele>174.33135439476</ele>
        <time>2019-09-15T11:57:42Z</time>
      </trkpt>
      <trkpt lat="48.63894" lon="1.89331">
        <ele>174.31201491774</ele>
        <time>2019-09-15T11:57:48Z</time>
      </trkpt>
      <trkpt lat="48.639" lon="1.89323">
        <ele>174.25178945093</ele>
        <time>2019-09-15T11:58:00Z</time>
      </trkpt>
      <trkpt lat="48.63904" lon="1.89312">
        <ele>174.20510217644</ele>
        <time>2019-09-15T11:58:08Z</time>
      </trkpt>
      <trkpt lat="48.63908" lon="1.89301">
        <ele>174.16987338335</ele>
        <time>2019-09-15T11:58:14Z</time>
      </trkpt>
      <trkpt lat="48.63914" lon="1.89291">
        <ele>174.12826916404</ele>
        <time>2019-09-15T11:58:21Z</time>
      </trkpt>
      <trkpt lat="48.63918" lon="1.89281">
        <ele>174.09828080426</ele>
        <time>2019-09-15T11:58:26Z</time>
      </trkpt>
      <trkpt lat="48.63921" lon="1.8927">
        <ele>174.06320717644</ele>
        <time>2019-09-15T11:58:32Z</time>
      </trkpt>
      <trkpt lat="48.63923" lon="1.8926">
        <ele>174.02915766198</ele>
        <time>2019-09-15T11:58:38Z</time>
      </trkpt>
      <trkpt lat="48.63928" lon="1.89248">
        <ele>173.99083198412</ele>
        <time>2019-09-15T11:58:45Z</time>
      </trkpt>
      <trkpt lat="48.63932" lon="1.89238">
        <ele>173.95253906782</ele>
        <time>2019-09-15T11:58:53Z</time>
      </trkpt>
      <trkpt lat="48.63936" lon="1.8923">
        <ele>173.92714953517</ele>
        <time>2019-09-15T11:58:57Z</time>
      </trkpt>
      <trkpt lat="48.63937" lon="1.89216">
        <ele>173.90294530387</ele>
        <time>2019-09-15T11:59:02Z</time>
      </trkpt>
      <trkpt lat="48.6394" lon="1.89205">
        <ele>173.87381168017</ele>
        <time>2019-09-15T11:59:08Z</time>
      </trkpt>
      <trkpt lat="48.63945" lon="1.89195">
        <ele>173.84132414334</ele>
        <time>2019-09-15T11:59:16Z</time>
      </trkpt>
      <trkpt lat="48.63947" lon="1.89183">
        <ele>173.8107231392</ele>
        <time>2019-09-15T11:59:22Z</time>
      </trkpt>
      <trkpt lat="48.63952" lon="1.89172">
        <ele>173.74076281958</ele>
        <time>2019-09-15T11:59:32Z</time>
      </trkpt>
      <trkpt lat="48.63956" lon="1.8916">
        <ele>173.68270790722</ele>
        <time>2019-09-15T11:59:39Z</time>
      </trkpt>
      <trkpt lat="48.63958" lon="1.89144">
        <ele>173.67943420025</ele>
        <time>2019-09-15T11:59:43Z</time>
      </trkpt>
      <trkpt lat="48.63958" lon="1.89131">
        <ele>173.43755179655</ele>
        <time>2019-09-15T12:00:32Z</time>
      </trkpt>
      <trkpt lat="48.63963" lon="1.89119">
        <ele>173.40543638574</ele>
        <time>2019-09-15T12:00:48Z</time>
      </trkpt>
      <trkpt lat="48.63969" lon="1.89109">
        <ele>173.39768663759</ele>
        <time>2019-09-15T12:00:55Z</time>
      </trkpt>
      <trkpt lat="48.63973" lon="1.89098">
        <ele>173.38935599011</ele>
        <time>2019-09-15T12:01:03Z</time>
      </trkpt>
      <trkpt lat="48.63977" lon="1.89088">
        <ele>173.38803023764</ele>
        <time>2019-09-15T12:01:09Z</time>
      </trkpt>
      <trkpt lat="48.63981" lon="1.89078">
        <ele>173.39006928181</ele>
        <time>2019-09-15T12:01:15Z</time>
      </trkpt>
      <trkpt lat="48.63985" lon="1.89067">
        <ele>173.39323880871</ele>
        <time>2019-09-15T12:01:21Z</time>
      </trkpt>
      <trkpt lat="48.63987" lon="1.89055">
        <ele>173.40514049435</ele>
        <time>2019-09-15T12:01:27Z</time>
      </trkpt>
      <trkpt lat="48.63991" lon="1.89044">
        <ele>173.42825834914</ele>
        <time>2019-09-15T12:01:34Z</time>
      </trkpt>
      <trkpt lat="48.63994" lon="1.89034">
        <ele>173.44402797346</ele>
        <time>2019-09-15T12:01:39Z</time>
      </trkpt>
      <trkpt lat="48.63999" lon="1.89025">
        <ele>173.45957966435</ele>
        <time>2019-09-15T12:01:44Z</time>
      </trkpt>
      <trkpt lat="48.64004" lon="1.89014">
        <ele>173.47891670838</ele>
        <time>2019-09-15T12:01:50Z</time>
      </trkpt>
      <trkpt lat="48.64008" lon="1.89003">
        <ele>173.4957396911</ele>
        <time>2019-09-15T12:01:57Z</time>
      </trkpt>
      <trkpt lat="48.64011" lon="1.88991">
        <ele>173.5059805757</ele>
        <time>2019-09-15T12:02:03Z</time>
      </trkpt>
      <trkpt lat="48.64016" lon="1.88983">
        <ele>173.5157339102</ele>
        <time>2019-09-15T12:02:09Z</time>
      </trkpt>
      <trkpt lat="48.6402" lon="1.88971">
        <ele>173.52954107778</ele>
        <time>2019-09-15T12:02:16Z</time>
      </trkpt>
      <trkpt lat="48.64025" lon="1.8896">
        <ele>173.55061848877</ele>
        <time>2019-09-15T12:02:30Z</time>
      </trkpt>
      <trkpt lat="48.64026" lon="1.88948">
        <ele>173.57217513005</ele>
        <time>2019-09-15T12:02:38Z</time>
      </trkpt>
      <trkpt lat="48.64027" lon="1.88936">
        <ele>173.58173622985</ele>
        <time>2019-09-15T12:02:42Z</time>
      </trkpt>
      <trkpt lat="48.64031" lon="1.88925">
        <ele>173.59505419996</ele>
        <time>2019-09-15T12:02:48Z</time>
      </trkpt>
      <trkpt lat="48.64036" lon="1.88915">
        <ele>173.60611540394</ele>
        <time>2019-09-15T12:02:54Z</time>
      </trkpt>
      <trkpt lat="48.64041" lon="1.88905">
        <ele>173.62364234556</ele>
        <time>2019-09-15T12:03:03Z</time>
      </trkpt>
      <trkpt lat="48.64046" lon="1.88893">
        <ele>173.62999122994</ele>
        <time>2019-09-15T12:03:08Z</time>
      </trkpt>
      <trkpt lat="48.6405" lon="1.88882">
        <ele>173.64294261799</ele>
        <time>2019-09-15T12:03:16Z</time>
      </trkpt>
      <trkpt lat="48.64054" lon="1.88872">
        <ele>173.65032179489</ele>
        <time>2019-09-15T12:03:23Z</time>
      </trkpt>
      <trkpt lat="48.64056" lon="1.8886">
        <ele>173.64891745949</ele>
        <time>2019-09-15T12:03:30Z</time>
      </trkpt>
      <trkpt lat="48.64059" lon="1.88847">
        <ele>173.64862605752</ele>
        <time>2019-09-15T12:03:36Z</time>
      </trkpt>
      <trkpt lat="48.64064" lon="1.88836">
        <ele>173.64950295623</ele>
        <time>2019-09-15T12:03:42Z</time>
      </trkpt>
      <trkpt lat="48.64068" lon="1.88826">
        <ele>173.65079301656</ele>
        <time>2019-09-15T12:03:48Z</time>
      </trkpt>
      <trkpt lat="48.64071" lon="1.88815">
        <ele>173.64932289311</ele>
        <time>2019-09-15T12:03:53Z</time>
      </trkpt>
      <trkpt lat="48.64074" lon="1.88801">
        <ele>173.63316045236</ele>
        <time>2019-09-15T12:03:58Z</time>
      </trkpt>
      <trkpt lat="48.64077" lon="1.88788">
        <ele>173.60347559881</ele>
        <time>2019-09-15T12:04:05Z</time>
      </trkpt>
      <trkpt lat="48.6408" lon="1.88778">
        <ele>173.56517336362</ele>
        <time>2019-09-15T12:04:13Z</time>
      </trkpt>
      <trkpt lat="48.64084" lon="1.88765">
        <ele>173.54876658736</ele>
        <time>2019-09-15T12:04:17Z</time>
      </trkpt>
      <trkpt lat="48.64087" lon="1.88751">
        <ele>173.53740844711</ele>
        <time>2019-09-15T12:04:22Z</time>
      </trkpt>
      <trkpt lat="48.64092" lon="1.8874">
        <ele>173.52958643717</ele>
        <time>2019-09-15T12:04:29Z</time>
      </trkpt>
      <trkpt lat="48.64098" lon="1.88732">
        <ele>173.52911606637</ele>
        <time>2019-09-15T12:04:35Z</time>
      </trkpt>
      <trkpt lat="48.64101" lon="1.88722">
        <ele>173.5322600098</ele>
        <time>2019-09-15T12:04:41Z</time>
      </trkpt>
      <trkpt lat="48.64101" lon="1.88712">
        <ele>173.52716982474</ele>
        <time>2019-09-15T12:04:48Z</time>
      </trkpt>
      <trkpt lat="48.64105" lon="1.88701">
        <ele>173.5218451079</ele>
        <time>2019-09-15T12:04:54Z</time>
      </trkpt>
      <trkpt lat="48.6411" lon="1.88691">
        <ele>173.49257760367</ele>
        <time>2019-09-15T12:05:02Z</time>
      </trkpt>
      <trkpt lat="48.64114" lon="1.8868">
        <ele>173.439394065</ele>
        <time>2019-09-15T12:05:09Z</time>
      </trkpt>
      <trkpt lat="48.64118" lon="1.88669">
        <ele>173.37377552645</ele>
        <time>2019-09-15T12:05:15Z</time>
      </trkpt>
      <trkpt lat="48.64121" lon="1.88657">
        <ele>173.30757288641</ele>
        <time>2019-09-15T12:05:21Z</time>
      </trkpt>
      <trkpt lat="48.64125" lon="1.88645">
        <ele>173.23408817013</ele>
        <time>2019-09-15T12:05:28Z</time>
      </trkpt>
      <trkpt lat="48.64128" lon="1.88634">
        <ele>173.18857978645</ele>
        <time>2019-09-15T12:05:33Z</time>
      </trkpt>
      <trkpt lat="48.64132" lon="1.88623">
        <ele>173.14235980107</ele>
        <time>2019-09-15T12:05:39Z</time>
      </trkpt>
      <trkpt lat="48.64135" lon="1.8861">
        <ele>172.98702656404</ele>
        <time>2019-09-15T12:06:13Z</time>
      </trkpt>
      <trkpt lat="48.64139" lon="1.886">
        <ele>172.94255259036</ele>
        <time>2019-09-15T12:06:18Z</time>
      </trkpt>
      <trkpt lat="48.64145" lon="1.88591">
        <ele>172.88911406796</ele>
        <time>2019-09-15T12:06:24Z</time>
      </trkpt>
      <trkpt lat="48.64148" lon="1.88579">
        <ele>172.80924028566</ele>
        <time>2019-09-15T12:06:33Z</time>
      </trkpt>
      <trkpt lat="48.64153" lon="1.8857">
        <ele>172.7588438734</ele>
        <time>2019-09-15T12:06:39Z</time>
      </trkpt>
      <trkpt lat="48.64156" lon="1.88559">
        <ele>172.70307282074</ele>
        <time>2019-09-15T12:06:46Z</time>
      </trkpt>
      <trkpt lat="48.64158" lon="1.88546">
        <ele>172.65117340462</ele>
        <time>2019-09-15T12:06:53Z</time>
      </trkpt>
      <trkpt lat="48.64162" lon="1.88535">
        <ele>172.6062453574</ele>
        <time>2019-09-15T12:07:00Z</time>
      </trkpt>
      <trkpt lat="48.6416" lon="1.88522">
        <ele>172.46676556158</ele>
        <time>2019-09-15T12:07:40Z</time>
      </trkpt>
      <trkpt lat="48.64163" lon="1.88512">
        <ele>172.43233295844</ele>
        <time>2019-09-15T12:07:46Z</time>
      </trkpt>
      <trkpt lat="48.64166" lon="1.88501">
        <ele>172.39931768541</ele>
        <time>2019-09-15T12:07:52Z</time>
      </trkpt>
      <trkpt lat="48.6417" lon="1.8849">
        <ele>172.36269274239</ele>
        <time>2019-09-15T12:07:59Z</time>
      </trkpt>
      <trkpt lat="48.64174" lon="1.88478">
        <ele>172.32856377597</ele>
        <time>2019-09-15T12:08:07Z</time>
      </trkpt>
      <trkpt lat="48.64179" lon="1.88468">
        <ele>172.30458122564</ele>
        <time>2019-09-15T12:08:12Z</time>
      </trkpt>
      <trkpt lat="48.64183" lon="1.88455">
        <ele>172.28509427643</ele>
        <time>2019-09-15T12:08:17Z</time>
      </trkpt>
      <trkpt lat="48.64188" lon="1.88443">
        <ele>172.26542731466</ele>
        <time>2019-09-15T12:08:22Z</time>
      </trkpt>
      <trkpt lat="48.64192" lon="1.88432">
        <ele>172.25215006853</ele>
        <time>2019-09-15T12:08:26Z</time>
      </trkpt>
      <trkpt lat="48.64197" lon="1.8842">
        <ele>172.22785398134</ele>
        <time>2019-09-15T12:08:31Z</time>
      </trkpt>
      <trkpt lat="48.64201" lon="1.88408">
        <ele>172.19057560554</ele>
        <time>2019-09-15T12:08:37Z</time>
      </trkpt>
      <trkpt lat="48.64204" lon="1.88399">
        <ele>172.15780381236</ele>
        <time>2019-09-15T12:08:43Z</time>
      </trkpt>
      <trkpt lat="48.64207" lon="1.88386">
        <ele>172.13126759833</ele>
        <time>2019-09-15T12:08:48Z</time>
      </trkpt>
      <trkpt lat="48.6421" lon="1.88374">
        <ele>172.10778739283</ele>
        <time>2019-09-15T12:08:56Z</time>
      </trkpt>
      <trkpt lat="48.64215" lon="1.88365">
        <ele>172.08219667519</ele>
        <time>2019-09-15T12:09:05Z</time>
      </trkpt>
      <trkpt lat="48.64219" lon="1.88354">
        <ele>172.06355372298</ele>
        <time>2019-09-15T12:09:10Z</time>
      </trkpt>
      <trkpt lat="48.64224" lon="1.88343">
        <ele>172.04672062259</ele>
        <time>2019-09-15T12:09:15Z</time>
      </trkpt>
      <trkpt lat="48.64227" lon="1.88331">
        <ele>172.03078321358</ele>
        <time>2019-09-15T12:09:21Z</time>
      </trkpt>
      <trkpt lat="48.64234" lon="1.88325">
        <ele>172.02842058939</ele>
        <time>2019-09-15T12:09:27Z</time>
      </trkpt>
      <trkpt lat="48.64238" lon="1.88315">
        <ele>172.02609430416</ele>
        <time>2019-09-15T12:09:32Z</time>
      </trkpt>
      <trkpt lat="48.64243" lon="1.88305">
        <ele>172.02075601399</ele>
        <time>2019-09-15T12:09:37Z</time>
      </trkpt>
      <trkpt lat="48.64249" lon="1.88295">
        <ele>172.01691586707</ele>
        <time>2019-09-15T12:09:42Z</time>
      </trkpt>
      <trkpt lat="48.64252" lon="1.88283">
        <ele>172.01393981255</ele>
        <time>2019-09-15T12:09:49Z</time>
      </trkpt>
      <trkpt lat="48.64257" lon="1.88272">
        <ele>172.00587888688</ele>
        <time>2019-09-15T12:09:58Z</time>
      </trkpt>
      <trkpt lat="48.6426" lon="1.8826">
        <ele>171.99914727948</ele>
        <time>2019-09-15T12:10:04Z</time>
      </trkpt>
      <trkpt lat="48.64264" lon="1.88248">
        <ele>171.98776816954</ele>
        <time>2019-09-15T12:10:12Z</time>
      </trkpt>
      <trkpt lat="48.64258" lon="1.88241">
        <ele>172.02130241557</ele>
        <time>2019-09-15T12:10:36Z</time>
      </trkpt>
      <trkpt lat="48.64259" lon="1.88232">
        <ele>172.03432452694</ele>
        <time>2019-09-15T12:10:40Z</time>
      </trkpt>
      <trkpt lat="48.64262" lon="1.88215">
        <ele>172.04547001155</ele>
        <time>2019-09-15T12:10:44Z</time>
      </trkpt>
      <trkpt lat="48.64264" lon="1.88201">
        <ele>172.05319221272</ele>
        <time>2019-09-15T12:10:48Z</time>
      </trkpt>
      <trkpt lat="48.64266" lon="1.88188">
        <ele>172.0577371811</ele>
        <time>2019-09-15T12:10:52Z</time>
      </trkpt>
      <trkpt lat="48.64268" lon="1.88175">
        <ele>172.06616903147</ele>
        <time>2019-09-15T12:10:58Z</time>
      </trkpt>
      <trkpt lat="48.64272" lon="1.88165">
        <ele>172.07111934587</ele>
        <time>2019-09-15T12:11:04Z</time>
      </trkpt>
      <trkpt lat="48.64276" lon="1.88154">
        <ele>172.07210440652</ele>
        <time>2019-09-15T12:11:10Z</time>
      </trkpt>
      <trkpt lat="48.64279" lon="1.88143">
        <ele>172.07470378124</ele>
        <time>2019-09-15T12:11:18Z</time>
      </trkpt>
      <trkpt lat="48.64287" lon="1.88137">
        <ele>172.07442754976</ele>
        <time>2019-09-15T12:11:31Z</time>
      </trkpt>
      <trkpt lat="48.64295" lon="1.88133">
        <ele>172.07893777678</ele>
        <time>2019-09-15T12:11:40Z</time>
      </trkpt>
      <trkpt lat="48.64302" lon="1.88123">
        <ele>172.07511066107</ele>
        <time>2019-09-15T12:11:45Z</time>
      </trkpt>
      <trkpt lat="48.6431" lon="1.88112">
        <ele>172.06555881933</ele>
        <time>2019-09-15T12:11:50Z</time>
      </trkpt>
      <trkpt lat="48.64315" lon="1.88102">
        <ele>172.03968063145</ele>
        <time>2019-09-15T12:11:56Z</time>
      </trkpt>
      <trkpt lat="48.6432" lon="1.88092">
        <ele>172.00653087835</ele>
        <time>2019-09-15T12:12:02Z</time>
      </trkpt>
      <trkpt lat="48.64325" lon="1.88083">
        <ele>171.96983138438</ele>
        <time>2019-09-15T12:12:08Z</time>
      </trkpt>
      <trkpt lat="48.64327" lon="1.88071">
        <ele>171.93477521142</ele>
        <time>2019-09-15T12:12:13Z</time>
      </trkpt>
      <trkpt lat="48.64331" lon="1.88061">
        <ele>171.90461955425</ele>
        <time>2019-09-15T12:12:17Z</time>
      </trkpt>
      <trkpt lat="48.64334" lon="1.8805">
        <ele>171.86276638741</ele>
        <time>2019-09-15T12:12:22Z</time>
      </trkpt>
      <trkpt lat="48.6434" lon="1.88039">
        <ele>171.81052762138</ele>
        <time>2019-09-15T12:12:28Z</time>
      </trkpt>
      <trkpt lat="48.64346" lon="1.88031">
        <ele>171.74931324223</ele>
        <time>2019-09-15T12:12:34Z</time>
      </trkpt>
      <trkpt lat="48.6435" lon="1.8802">
        <ele>171.59444219896</ele>
        <time>2019-09-15T12:12:47Z</time>
      </trkpt>
      <trkpt lat="48.64354" lon="1.8801">
        <ele>171.50265323011</ele>
        <time>2019-09-15T12:12:53Z</time>
      </trkpt>
      <trkpt lat="48.64357" lon="1.87998">
        <ele>171.39035104722</ele>
        <time>2019-09-15T12:13:00Z</time>
      </trkpt>
      <trkpt lat="48.64362" lon="1.87988">
        <ele>171.26819259368</ele>
        <time>2019-09-15T12:13:07Z</time>
      </trkpt>
      <trkpt lat="48.64365" lon="1.87976">
        <ele>171.194508215</ele>
        <time>2019-09-15T12:13:11Z</time>
      </trkpt>
      <trkpt lat="48.64369" lon="1.87965">
        <ele>171.07068789715</ele>
        <time>2019-09-15T12:13:17Z</time>
      </trkpt>
      <trkpt lat="48.64375" lon="1.87957">
        <ele>170.92928837847</ele>
        <time>2019-09-15T12:13:24Z</time>
      </trkpt>
      <trkpt lat="48.6438" lon="1.87949">
        <ele>170.83527463584</ele>
        <time>2019-09-15T12:13:29Z</time>
      </trkpt>
      <trkpt lat="48.64386" lon="1.87939">
        <ele>170.74277962496</ele>
        <time>2019-09-15T12:13:34Z</time>
      </trkpt>
      <trkpt lat="48.64391" lon="1.87927">
        <ele>170.65461894713</ele>
        <time>2019-09-15T12:13:39Z</time>
      </trkpt>
      <trkpt lat="48.64396" lon="1.87918">
        <ele>170.5545518563</ele>
        <time>2019-09-15T12:13:45Z</time>
      </trkpt>
      <trkpt lat="48.64401" lon="1.87907">
        <ele>170.47024933395</ele>
        <time>2019-09-15T12:13:50Z</time>
      </trkpt>
      <trkpt lat="48.64406" lon="1.87897">
        <ele>170.36631428104</ele>
        <time>2019-09-15T12:13:56Z</time>
      </trkpt>
      <trkpt lat="48.64409" lon="1.87885">
        <ele>170.22830187381</ele>
        <time>2019-09-15T12:14:04Z</time>
      </trkpt>
      <trkpt lat="48.64413" lon="1.87874">
        <ele>170.11100374251</ele>
        <time>2019-09-15T12:14:11Z</time>
      </trkpt>
      <trkpt lat="48.64417" lon="1.87861">
        <ele>170.03197759292</ele>
        <time>2019-09-15T12:14:16Z</time>
      </trkpt>
      <trkpt lat="48.64422" lon="1.8785">
        <ele>169.95487803878</ele>
        <time>2019-09-15T12:14:21Z</time>
      </trkpt>
      <trkpt lat="48.64426" lon="1.87839">
        <ele>169.87731259922</ele>
        <time>2019-09-15T12:14:26Z</time>
      </trkpt>
      <trkpt lat="48.64432" lon="1.8783">
        <ele>169.77611861755</ele>
        <time>2019-09-15T12:14:33Z</time>
      </trkpt>
      <trkpt lat="48.64436" lon="1.87821">
        <ele>169.70418544313</ele>
        <time>2019-09-15T12:14:38Z</time>
      </trkpt>
      <trkpt lat="48.64442" lon="1.87812">
        <ele>169.53072088328</ele>
        <time>2019-09-15T12:14:49Z</time>
      </trkpt>
      <trkpt lat="48.64438" lon="1.87802">
        <ele>169.43968615418</ele>
        <time>2019-09-15T12:14:55Z</time>
      </trkpt>
      <trkpt lat="48.64432" lon="1.87793">
        <ele>169.35458494531</ele>
        <time>2019-09-15T12:15:03Z</time>
      </trkpt>
      <trkpt lat="48.64426" lon="1.87782">
        <ele>169.25253001386</ele>
        <time>2019-09-15T12:15:13Z</time>
      </trkpt>
      <trkpt lat="48.6442" lon="1.87774">
        <ele>169.20053250186</ele>
        <time>2019-09-15T12:15:19Z</time>
      </trkpt>
      <trkpt lat="48.64413" lon="1.87769">
        <ele>169.14651850833</ele>
        <time>2019-09-15T12:15:27Z</time>
      </trkpt>
      <trkpt lat="48.64404" lon="1.87765">
        <ele>169.10381437983</ele>
        <time>2019-09-15T12:15:34Z</time>
      </trkpt>
      <trkpt lat="48.64396" lon="1.87759">
        <ele>169.05475575386</ele>
        <time>2019-09-15T12:15:42Z</time>
      </trkpt>
      <trkpt lat="48.6439" lon="1.87751">
        <ele>169.01799952376</ele>
        <time>2019-09-15T12:15:48Z</time>
      </trkpt>
      <trkpt lat="48.64383" lon="1.87743">
        <ele>168.97608706165</ele>
        <time>2019-09-15T12:15:54Z</time>
      </trkpt>
      <trkpt lat="48.64377" lon="1.87734">
        <ele>168.91066557359</ele>
        <time>2019-09-15T12:16:03Z</time>
      </trkpt>
      <trkpt lat="48.64371" lon="1.87728">
        <ele>168.87981956433</ele>
        <time>2019-09-15T12:16:07Z</time>
      </trkpt>
      <trkpt lat="48.64364" lon="1.87724">
        <ele>168.82803862138</ele>
        <time>2019-09-15T12:16:14Z</time>
      </trkpt>
      <trkpt lat="48.64357" lon="1.87716">
        <ele>168.78996827816</ele>
        <time>2019-09-15T12:16:19Z</time>
      </trkpt>
      <trkpt lat="48.64351" lon="1.87705">
        <ele>168.74956583376</ele>
        <time>2019-09-15T12:16:24Z</time>
      </trkpt>
      <trkpt lat="48.64344" lon="1.877">
        <ele>168.69781766782</ele>
        <time>2019-09-15T12:16:30Z</time>
      </trkpt>
      <trkpt lat="48.64339" lon="1.87689">
        <ele>168.64223390972</ele>
        <time>2019-09-15T12:16:36Z</time>
      </trkpt>
      <trkpt lat="48.64332" lon="1.87682">
        <ele>168.57951587334</ele>
        <time>2019-09-15T12:16:42Z</time>
      </trkpt>
      <trkpt lat="48.64324" lon="1.87676">
        <ele>168.51019521281</ele>
        <time>2019-09-15T12:16:48Z</time>
      </trkpt>
      <trkpt lat="48.64316" lon="1.87669">
        <ele>168.43616488108</ele>
        <time>2019-09-15T12:16:54Z</time>
      </trkpt>
      <trkpt lat="48.6431" lon="1.87661">
        <ele>168.33139936394</ele>
        <time>2019-09-15T12:17:02Z</time>
      </trkpt>
      <trkpt lat="48.64303" lon="1.87653">
        <ele>168.21232600511</ele>
        <time>2019-09-15T12:17:11Z</time>
      </trkpt>
      <trkpt lat="48.64296" lon="1.87646">
        <ele>168.14137769861</ele>
        <time>2019-09-15T12:17:17Z</time>
      </trkpt>
      <trkpt lat="48.64288" lon="1.87639">
        <ele>168.07252828431</ele>
        <time>2019-09-15T12:17:23Z</time>
      </trkpt>
      <trkpt lat="48.64281" lon="1.87632">
        <ele>167.9918056418</ele>
        <time>2019-09-15T12:17:30Z</time>
      </trkpt>
      <trkpt lat="48.64275" lon="1.87625">
        <ele>167.93174404989</ele>
        <time>2019-09-15T12:17:35Z</time>
      </trkpt>
      <trkpt lat="48.6427" lon="1.87616">
        <ele>167.87357177261</ele>
        <time>2019-09-15T12:17:40Z</time>
      </trkpt>
      <trkpt lat="48.64264" lon="1.87609">
        <ele>167.8031944154</ele>
        <time>2019-09-15T12:17:46Z</time>
      </trkpt>
      <trkpt lat="48.64256" lon="1.87602">
        <ele>167.71072513887</ele>
        <time>2019-09-15T12:17:54Z</time>
      </trkpt>
      <trkpt lat="48.64249" lon="1.87596">
        <ele>167.61593991458</ele>
        <time>2019-09-15T12:18:02Z</time>
      </trkpt>
      <trkpt lat="48.64242" lon="1.87588">
        <ele>167.55051132852</ele>
        <time>2019-09-15T12:18:08Z</time>
      </trkpt>
      <trkpt lat="48.64235" lon="1.8758">
        <ele>167.49324413811</ele>
        <time>2019-09-15T12:18:14Z</time>
      </trkpt>
      <trkpt lat="48.6423" lon="1.8757">
        <ele>167.42465576248</ele>
        <time>2019-09-15T12:18:22Z</time>
      </trkpt>
      <trkpt lat="48.64224" lon="1.87562">
        <ele>167.3738046859</ele>
        <time>2019-09-15T12:18:29Z</time>
      </trkpt>
      <trkpt lat="48.64218" lon="1.87553">
        <ele>167.34218413933</ele>
        <time>2019-09-15T12:18:34Z</time>
      </trkpt>
      <trkpt lat="48.64212" lon="1.87545">
        <ele>167.3116120009</ele>
        <time>2019-09-15T12:18:39Z</time>
      </trkpt>
      <trkpt lat="48.64205" lon="1.87539">
        <ele>167.27703537608</ele>
        <time>2019-09-15T12:18:45Z</time>
      </trkpt>
      <trkpt lat="48.64198" lon="1.87534">
        <ele>167.2373080111</ele>
        <time>2019-09-15T12:18:53Z</time>
      </trkpt>
      <trkpt lat="48.64191" lon="1.87526">
        <ele>167.2092185943</ele>
        <time>2019-09-15T12:18:59Z</time>
      </trkpt>
      <trkpt lat="48.64185" lon="1.87516">
        <ele>167.18317281708</ele>
        <time>2019-09-15T12:19:04Z</time>
      </trkpt>
      <trkpt lat="48.64179" lon="1.87508">
        <ele>167.15186202209</ele>
        <time>2019-09-15T12:19:09Z</time>
      </trkpt>
      <trkpt lat="48.64171" lon="1.87505">
        <ele>167.09340742989</ele>
        <time>2019-09-15T12:19:18Z</time>
      </trkpt>
      <trkpt lat="48.64164" lon="1.87498">
        <ele>167.05081788354</ele>
        <time>2019-09-15T12:19:24Z</time>
      </trkpt>
      <trkpt lat="48.64159" lon="1.8749">
        <ele>167.01718536797</ele>
        <time>2019-09-15T12:19:29Z</time>
      </trkpt>
      <trkpt lat="48.64153" lon="1.87483">
        <ele>166.98552655114</ele>
        <time>2019-09-15T12:19:34Z</time>
      </trkpt>
      <trkpt lat="48.64148" lon="1.87472">
        <ele>166.95448560132</ele>
        <time>2019-09-15T12:19:39Z</time>
      </trkpt>
      <trkpt lat="48.6414" lon="1.87468">
        <ele>166.89537850066</ele>
        <time>2019-09-15T12:19:49Z</time>
      </trkpt>
      <trkpt lat="48.64134" lon="1.87459">
        <ele>166.86265239461</ele>
        <time>2019-09-15T12:19:54Z</time>
      </trkpt>
      <trkpt lat="48.64127" lon="1.87451">
        <ele>166.81016954998</ele>
        <time>2019-09-15T12:20:00Z</time>
      </trkpt>
      <trkpt lat="48.64119" lon="1.87444">
        <ele>166.72769821232</ele>
        <time>2019-09-15T12:20:08Z</time>
      </trkpt>
      <trkpt lat="48.64114" lon="1.87433">
        <ele>166.67240710822</ele>
        <time>2019-09-15T12:20:13Z</time>
      </trkpt>
      <trkpt lat="48.64107" lon="1.87426">
        <ele>166.6110611056</ele>
        <time>2019-09-15T12:20:19Z</time>
      </trkpt>
      <trkpt lat="48.64102" lon="1.87416">
        <ele>166.54337030018</ele>
        <time>2019-09-15T12:20:27Z</time>
      </trkpt>
      <trkpt lat="48.64105" lon="1.87403">
        <ele>166.44013693999</ele>
        <time>2019-09-15T12:20:42Z</time>
      </trkpt>
      <trkpt lat="48.6411" lon="1.87392">
        <ele>166.37590844254</ele>
        <time>2019-09-15T12:20:50Z</time>
      </trkpt>
      <trkpt lat="48.64115" lon="1.87383">
        <ele>166.31304643869</ele>
        <time>2019-09-15T12:20:56Z</time>
      </trkpt>
      <trkpt lat="48.6412" lon="1.87374">
        <ele>166.24609742095</ele>
        <time>2019-09-15T12:21:01Z</time>
      </trkpt>
      <trkpt lat="48.64126" lon="1.87363">
        <ele>166.15709296865</ele>
        <time>2019-09-15T12:21:07Z</time>
      </trkpt>
      <trkpt lat="48.64129" lon="1.87352">
        <ele>166.07268563535</ele>
        <time>2019-09-15T12:21:13Z</time>
      </trkpt>
      <trkpt lat="48.64131" lon="1.8734">
        <ele>165.96167537681</ele>
        <time>2019-09-15T12:21:21Z</time>
      </trkpt>
      <trkpt lat="48.64137" lon="1.87332">
        <ele>165.90584429289</ele>
        <time>2019-09-15T12:21:25Z</time>
      </trkpt>
      <trkpt lat="48.64142" lon="1.87322">
        <ele>165.8323257911</ele>
        <time>2019-09-15T12:21:30Z</time>
      </trkpt>
      <trkpt lat="48.64145" lon="1.87312">
        <ele>165.74828760409</ele>
        <time>2019-09-15T12:21:36Z</time>
      </trkpt>
      <trkpt lat="48.64149" lon="1.87302">
        <ele>165.67874539637</ele>
        <time>2019-09-15T12:21:41Z</time>
      </trkpt>
      <trkpt lat="48.64154" lon="1.87291">
        <ele>165.5846202166</ele>
        <time>2019-09-15T12:21:48Z</time>
      </trkpt>
      <trkpt lat="48.6416" lon="1.87283">
        <ele>165.49943454113</ele>
        <time>2019-09-15T12:21:54Z</time>
      </trkpt>
      <trkpt lat="48.64165" lon="1.87273">
        <ele>165.42774182957</ele>
        <time>2019-09-15T12:21:59Z</time>
      </trkpt>
      <trkpt lat="48.64169" lon="1.87261">
        <ele>165.31947145086</ele>
        <time>2019-09-15T12:22:07Z</time>
      </trkpt>
      <trkpt lat="48.64172" lon="1.87251">
        <ele>165.24334156606</ele>
        <time>2019-09-15T12:22:13Z</time>
      </trkpt>
      <trkpt lat="48.64176" lon="1.87239">
        <ele>165.1815030388</ele>
        <time>2019-09-15T12:22:18Z</time>
      </trkpt>
      <trkpt lat="48.6418" lon="1.87228">
        <ele>165.09117519592</ele>
        <time>2019-09-15T12:22:25Z</time>
      </trkpt>
      <trkpt lat="48.64186" lon="1.87218">
        <ele>164.99756062446</ele>
        <time>2019-09-15T12:22:33Z</time>
      </trkpt>
      <trkpt lat="48.6419" lon="1.87208">
        <ele>164.92909704868</ele>
        <time>2019-09-15T12:22:39Z</time>
      </trkpt>
      <trkpt lat="48.64196" lon="1.87198">
        <ele>164.85910086233</ele>
        <time>2019-09-15T12:22:45Z</time>
      </trkpt>
      <trkpt lat="48.64201" lon="1.87186">
        <ele>164.78478816757</ele>
        <time>2019-09-15T12:22:51Z</time>
      </trkpt>
      <trkpt lat="48.64206" lon="1.87175">
        <ele>164.72274129154</ele>
        <time>2019-09-15T12:22:56Z</time>
      </trkpt>
      <trkpt lat="48.6421" lon="1.87163">
        <ele>164.65190588267</ele>
        <time>2019-09-15T12:23:02Z</time>
      </trkpt>
      <trkpt lat="48.64214" lon="1.87154">
        <ele>164.56376368113</ele>
        <time>2019-09-15T12:23:10Z</time>
      </trkpt>
      <trkpt lat="48.64218" lon="1.87144">
        <ele>164.51201663704</ele>
        <time>2019-09-15T12:23:15Z</time>
      </trkpt>
      <trkpt lat="48.64221" lon="1.87131">
        <ele>164.44234555233</ele>
        <time>2019-09-15T12:23:23Z</time>
      </trkpt>
      <trkpt lat="48.64224" lon="1.8712">
        <ele>164.39565861609</ele>
        <time>2019-09-15T12:23:28Z</time>
      </trkpt>
      <trkpt lat="48.64229" lon="1.87109">
        <ele>164.32626285126</ele>
        <time>2019-09-15T12:23:35Z</time>
      </trkpt>
      <trkpt lat="48.64233" lon="1.871">
        <ele>164.26419835843</ele>
        <time>2019-09-15T12:23:41Z</time>
      </trkpt>
      <trkpt lat="48.64238" lon="1.87088">
        <ele>164.21212588598</ele>
        <time>2019-09-15T12:23:46Z</time>
      </trkpt>
      <trkpt lat="48.64243" lon="1.87077">
        <ele>164.12803468172</ele>
        <time>2019-09-15T12:23:54Z</time>
      </trkpt>
      <trkpt lat="48.64249" lon="1.87068">
        <ele>164.06932177505</ele>
        <time>2019-09-15T12:24:00Z</time>
      </trkpt>
      <trkpt lat="48.64253" lon="1.87059">
        <ele>164.00136037304</ele>
        <time>2019-09-15T12:24:07Z</time>
      </trkpt>
      <trkpt lat="48.64256" lon="1.8705">
        <ele>163.95330885013</ele>
        <time>2019-09-15T12:24:12Z</time>
      </trkpt>
      <trkpt lat="48.6426" lon="1.87039">
        <ele>163.90920579351</ele>
        <time>2019-09-15T12:24:17Z</time>
      </trkpt>
      <trkpt lat="48.64265" lon="1.87028">
        <ele>163.83505543053</ele>
        <time>2019-09-15T12:24:27Z</time>
      </trkpt>
      <trkpt lat="48.6427" lon="1.87019">
        <ele>163.80601641746</ele>
        <time>2019-09-15T12:24:32Z</time>
      </trkpt>
      <trkpt lat="48.64275" lon="1.87009">
        <ele>163.78156712513</ele>
        <time>2019-09-15T12:24:37Z</time>
      </trkpt>
      <trkpt lat="48.64278" lon="1.86997">
        <ele>163.7520560597</ele>
        <time>2019-09-15T12:24:42Z</time>
      </trkpt>
      <trkpt lat="48.64284" lon="1.86986">
        <ele>163.67159851992</ele>
        <time>2019-09-15T12:24:50Z</time>
      </trkpt>
      <trkpt lat="48.64286" lon="1.86974">
        <ele>163.59397851722</ele>
        <time>2019-09-15T12:24:57Z</time>
      </trkpt>
      <trkpt lat="48.64291" lon="1.86967">
        <ele>163.52699457112</ele>
        <time>2019-09-15T12:25:05Z</time>
      </trkpt>
      <trkpt lat="48.64296" lon="1.86957">
        <ele>163.49127038713</ele>
        <time>2019-09-15T12:25:10Z</time>
      </trkpt>
      <trkpt lat="48.64299" lon="1.86948">
        <ele>163.43346446797</ele>
        <time>2019-09-15T12:25:18Z</time>
      </trkpt>
      <trkpt lat="48.64309" lon="1.86933">
        <ele>163.40308650221</ele>
        <time>2019-09-15T12:25:23Z</time>
      </trkpt>
      <trkpt lat="48.64315" lon="1.86924">
        <ele>163.36328931557</ele>
        <time>2019-09-15T12:25:29Z</time>
      </trkpt>
      <trkpt lat="48.64319" lon="1.86914">
        <ele>163.31969824187</ele>
        <time>2019-09-15T12:25:35Z</time>
      </trkpt>
      <trkpt lat="48.64324" lon="1.86904">
        <ele>163.2726477516</ele>
        <time>2019-09-15T12:25:41Z</time>
      </trkpt>
      <trkpt lat="48.64327" lon="1.86893">
        <ele>163.21617296343</ele>
        <time>2019-09-15T12:25:49Z</time>
      </trkpt>
      <trkpt lat="48.6432" lon="1.86885">
        <ele>163.19991626895</ele>
        <time>2019-09-15T12:25:54Z</time>
      </trkpt>
      <trkpt lat="48.64313" lon="1.86876">
        <ele>163.19868207749</ele>
        <time>2019-09-15T12:25:59Z</time>
      </trkpt>
      <trkpt lat="48.64306" lon="1.86869">
        <ele>163.1988784206</ele>
        <time>2019-09-15T12:26:04Z</time>
      </trkpt>
      <trkpt lat="48.64299" lon="1.8686">
        <ele>163.1989682205</ele>
        <time>2019-09-15T12:26:11Z</time>
      </trkpt>
      <trkpt lat="48.64293" lon="1.86854">
        <ele>163.20415202681</ele>
        <time>2019-09-15T12:26:19Z</time>
      </trkpt>
      <trkpt lat="48.64286" lon="1.86845">
        <ele>163.21172562752</ele>
        <time>2019-09-15T12:26:26Z</time>
      </trkpt>
      <trkpt lat="48.64279" lon="1.86839">
        <ele>163.22032082109</ele>
        <time>2019-09-15T12:26:33Z</time>
      </trkpt>
      <trkpt lat="48.64274" lon="1.8683">
        <ele>163.22818787955</ele>
        <time>2019-09-15T12:26:38Z</time>
      </trkpt>
      <trkpt lat="48.64266" lon="1.86824">
        <ele>163.23379817742</ele>
        <time>2019-09-15T12:26:43Z</time>
      </trkpt>
      <trkpt lat="48.6426" lon="1.86815">
        <ele>163.23482074021</ele>
        <time>2019-09-15T12:26:50Z</time>
      </trkpt>
      <trkpt lat="48.64253" lon="1.86807">
        <ele>163.2283033568</ele>
        <time>2019-09-15T12:26:56Z</time>
      </trkpt>
      <trkpt lat="48.64246" lon="1.86801">
        <ele>163.22056380037</ele>
        <time>2019-09-15T12:27:01Z</time>
      </trkpt>
      <trkpt lat="48.6424" lon="1.86793">
        <ele>163.20956983489</ele>
        <time>2019-09-15T12:27:07Z</time>
      </trkpt>
      <trkpt lat="48.64234" lon="1.86784">
        <ele>163.19667194085</ele>
        <time>2019-09-15T12:27:13Z</time>
      </trkpt>
      <trkpt lat="48.64227" lon="1.86776">
        <ele>163.18331885593</ele>
        <time>2019-09-15T12:27:20Z</time>
      </trkpt>
      <trkpt lat="48.6422" lon="1.86769">
        <ele>163.17671444925</ele>
        <time>2019-09-15T12:27:26Z</time>
      </trkpt>
      <trkpt lat="48.64212" lon="1.86764">
        <ele>163.1635547003</ele>
        <time>2019-09-15T12:27:33Z</time>
      </trkpt>
      <trkpt lat="48.64205" lon="1.8676">
        <ele>163.14321934583</ele>
        <time>2019-09-15T12:27:40Z</time>
      </trkpt>
      <trkpt lat="48.64199" lon="1.86753">
        <ele>163.12419571777</ele>
        <time>2019-09-15T12:27:45Z</time>
      </trkpt>
      <trkpt lat="48.64191" lon="1.86747">
        <ele>163.09222959557</ele>
        <time>2019-09-15T12:27:53Z</time>
      </trkpt>
      <trkpt lat="48.64185" lon="1.86739">
        <ele>163.06444508531</ele>
        <time>2019-09-15T12:28:00Z</time>
      </trkpt>
      <trkpt lat="48.64179" lon="1.8673">
        <ele>163.03503976321</ele>
        <time>2019-09-15T12:28:06Z</time>
      </trkpt>
      <trkpt lat="48.64173" lon="1.86722">
        <ele>162.99310061767</ele>
        <time>2019-09-15T12:28:13Z</time>
      </trkpt>
      <trkpt lat="48.64167" lon="1.86714">
        <ele>162.95787590286</ele>
        <time>2019-09-15T12:28:19Z</time>
      </trkpt>
      <trkpt lat="48.64159" lon="1.86707">
        <ele>162.92635747428</ele>
        <time>2019-09-15T12:28:26Z</time>
      </trkpt>
      <trkpt lat="48.64152" lon="1.86698">
        <ele>162.90971327438</ele>
        <time>2019-09-15T12:28:30Z</time>
      </trkpt>
      <trkpt lat="48.64146" lon="1.86692">
        <ele>162.87882380112</ele>
        <time>2019-09-15T12:28:37Z</time>
      </trkpt>
      <trkpt lat="48.64139" lon="1.86683">
        <ele>162.84534333652</ele>
        <time>2019-09-15T12:28:42Z</time>
      </trkpt>
      <trkpt lat="48.64132" lon="1.86676">
        <ele>162.79667440713</ele>
        <time>2019-09-15T12:28:48Z</time>
      </trkpt>
      <trkpt lat="48.64127" lon="1.86666">
        <ele>162.75617818002</ele>
        <time>2019-09-15T12:28:53Z</time>
      </trkpt>
      <trkpt lat="48.64121" lon="1.86659">
        <ele>162.70439190884</ele>
        <time>2019-09-15T12:29:00Z</time>
      </trkpt>
      <trkpt lat="48.64114" lon="1.86651">
        <ele>162.67626335154</ele>
        <time>2019-09-15T12:29:06Z</time>
      </trkpt>
      <trkpt lat="48.64109" lon="1.86643">
        <ele>162.66292331232</ele>
        <time>2019-09-15T12:29:10Z</time>
      </trkpt>
      <trkpt lat="48.64102" lon="1.86635">
        <ele>162.64404431463</ele>
        <time>2019-09-15T12:29:15Z</time>
      </trkpt>
      <trkpt lat="48.64094" lon="1.86631">
        <ele>162.62388061591</ele>
        <time>2019-09-15T12:29:19Z</time>
      </trkpt>
      <trkpt lat="48.64088" lon="1.86622">
        <ele>162.58053280445</ele>
        <time>2019-09-15T12:29:27Z</time>
      </trkpt>
      <trkpt lat="48.64081" lon="1.86615">
        <ele>162.53971585723</ele>
        <time>2019-09-15T12:29:34Z</time>
      </trkpt>
      <trkpt lat="48.64074" lon="1.86608">
        <ele>162.50860106262</ele>
        <time>2019-09-15T12:29:40Z</time>
      </trkpt>
      <trkpt lat="48.64067" lon="1.86601">
        <ele>162.469743993</ele>
        <time>2019-09-15T12:29:47Z</time>
      </trkpt>
      <trkpt lat="48.6406" lon="1.86593">
        <ele>162.43322553529</ele>
        <time>2019-09-15T12:29:55Z</time>
      </trkpt>
      <trkpt lat="48.64053" lon="1.86586">
        <ele>162.40859644712</ele>
        <time>2019-09-15T12:30:02Z</time>
      </trkpt>
      <trkpt lat="48.64045" lon="1.86581">
        <ele>162.38503876809</ele>
        <time>2019-09-15T12:30:09Z</time>
      </trkpt>
      <trkpt lat="48.64038" lon="1.86575">
        <ele>162.36497578507</ele>
        <time>2019-09-15T12:30:15Z</time>
      </trkpt>
      <trkpt lat="48.64031" lon="1.86562">
        <ele>162.35437856007</ele>
        <time>2019-09-15T12:30:19Z</time>
      </trkpt>
      <trkpt lat="48.64023" lon="1.86552">
        <ele>162.35751191773</ele>
        <time>2019-09-15T12:30:24Z</time>
      </trkpt>
      <trkpt lat="48.64016" lon="1.86545">
        <ele>162.37934144587</ele>
        <time>2019-09-15T12:30:34Z</time>
      </trkpt>
      <trkpt lat="48.6401" lon="1.86537">
        <ele>162.39064224865</ele>
        <time>2019-09-15T12:30:41Z</time>
      </trkpt>
      <trkpt lat="48.64003" lon="1.86529">
        <ele>162.39709076053</ele>
        <time>2019-09-15T12:30:51Z</time>
      </trkpt>
      <trkpt lat="48.63995" lon="1.86522">
        <ele>162.42275188531</ele>
        <time>2019-09-15T12:31:05Z</time>
      </trkpt>
      <trkpt lat="48.63989" lon="1.86515">
        <ele>162.4682649474</ele>
        <time>2019-09-15T12:31:15Z</time>
      </trkpt>
      <trkpt lat="48.63984" lon="1.86506">
        <ele>162.50537133218</ele>
        <time>2019-09-15T12:31:21Z</time>
      </trkpt>
      <trkpt lat="48.63978" lon="1.86496">
        <ele>162.53256567177</ele>
        <time>2019-09-15T12:31:28Z</time>
      </trkpt>
      <trkpt lat="48.63972" lon="1.86488">
        <ele>162.54428672529</ele>
        <time>2019-09-15T12:31:34Z</time>
      </trkpt>
      <trkpt lat="48.63968" lon="1.86478">
        <ele>162.554150066</ele>
        <time>2019-09-15T12:31:42Z</time>
      </trkpt>
      <trkpt lat="48.63961" lon="1.86469">
        <ele>162.56341339902</ele>
        <time>2019-09-15T12:31:52Z</time>
      </trkpt>
      <trkpt lat="48.63954" lon="1.86464">
        <ele>162.57048419057</ele>
        <time>2019-09-15T12:31:57Z</time>
      </trkpt>
      <trkpt lat="48.63947" lon="1.8646">
        <ele>162.57875677208</ele>
        <time>2019-09-15T12:32:02Z</time>
      </trkpt>
      <trkpt lat="48.63939" lon="1.86456">
        <ele>162.58424058028</ele>
        <time>2019-09-15T12:32:07Z</time>
      </trkpt>
      <trkpt lat="48.63931" lon="1.86452">
        <ele>162.58095787459</ele>
        <time>2019-09-15T12:32:14Z</time>
      </trkpt>
      <trkpt lat="48.63925" lon="1.86445">
        <ele>162.57522475479</ele>
        <time>2019-09-15T12:32:22Z</time>
      </trkpt>
      <trkpt lat="48.6392" lon="1.86435">
        <ele>162.57436368546</ele>
        <time>2019-09-15T12:32:27Z</time>
      </trkpt>
      <trkpt lat="48.63915" lon="1.86426">
        <ele>162.56949753251</ele>
        <time>2019-09-15T12:32:32Z</time>
      </trkpt>
      <trkpt lat="48.63907" lon="1.86418">
        <ele>162.56017639035</ele>
        <time>2019-09-15T12:32:38Z</time>
      </trkpt>
      <trkpt lat="48.63899" lon="1.86416">
        <ele>162.55449553676</ele>
        <time>2019-09-15T12:32:43Z</time>
      </trkpt>
      <trkpt lat="48.63892" lon="1.86408">
        <ele>162.54942558406</ele>
        <time>2019-09-15T12:32:50Z</time>
      </trkpt>
      <trkpt lat="48.63887" lon="1.86399">
        <ele>162.54681967478</ele>
        <time>2019-09-15T12:32:57Z</time>
      </trkpt>
      <trkpt lat="48.63884" lon="1.8639">
        <ele>162.54480941635</ele>
        <time>2019-09-15T12:33:02Z</time>
      </trkpt>
      <trkpt lat="48.63877" lon="1.86381">
        <ele>162.54435708625</ele>
        <time>2019-09-15T12:33:08Z</time>
      </trkpt>
      <trkpt lat="48.6387" lon="1.86374">
        <ele>162.54385392699</ele>
        <time>2019-09-15T12:33:13Z</time>
      </trkpt>
      <trkpt lat="48.63863" lon="1.86368">
        <ele>162.5414273017</ele>
        <time>2019-09-15T12:33:20Z</time>
      </trkpt>
      <trkpt lat="48.63856" lon="1.8636">
        <ele>162.53533895866</ele>
        <time>2019-09-15T12:33:28Z</time>
      </trkpt>
      <trkpt lat="48.63849" lon="1.86354">
        <ele>162.53076754902</ele>
        <time>2019-09-15T12:33:34Z</time>
      </trkpt>
      <trkpt lat="48.63844" lon="1.86345">
        <ele>162.51916377738</ele>
        <time>2019-09-15T12:33:43Z</time>
      </trkpt>
      <trkpt lat="48.63836" lon="1.86338">
        <ele>162.51018746469</ele>
        <time>2019-09-15T12:33:49Z</time>
      </trkpt>
      <trkpt lat="48.6383" lon="1.86329">
        <ele>162.49975247551</ele>
        <time>2019-09-15T12:33:55Z</time>
      </trkpt>
      <trkpt lat="48.63823" lon="1.86329">
        <ele>162.48627212471</ele>
        <time>2019-09-15T12:34:02Z</time>
      </trkpt>
      <trkpt lat="48.63815" lon="1.86322">
        <ele>162.47231005988</ele>
        <time>2019-09-15T12:34:07Z</time>
      </trkpt>
      <trkpt lat="48.6381" lon="1.86312">
        <ele>162.4621098866</ele>
        <time>2019-09-15T12:34:11Z</time>
      </trkpt>
      <trkpt lat="48.63803" lon="1.86304">
        <ele>162.44176164869</ele>
        <time>2019-09-15T12:34:18Z</time>
      </trkpt>
      <trkpt lat="48.63797" lon="1.86297">
        <ele>162.41465604333</ele>
        <time>2019-09-15T12:34:25Z</time>
      </trkpt>
      <trkpt lat="48.6379" lon="1.86287">
        <ele>162.36402180534</ele>
        <time>2019-09-15T12:34:34Z</time>
      </trkpt>
      <trkpt lat="48.63783" lon="1.86282">
        <ele>162.31916967819</ele>
        <time>2019-09-15T12:34:41Z</time>
      </trkpt>
      <trkpt lat="48.63778" lon="1.86275">
        <ele>162.28152597935</ele>
        <time>2019-09-15T12:34:46Z</time>
      </trkpt>
      <trkpt lat="48.63772" lon="1.86266">
        <ele>162.22441649393</ele>
        <time>2019-09-15T12:34:52Z</time>
      </trkpt>
      <trkpt lat="48.63766" lon="1.86259">
        <ele>162.16163625471</ele>
        <time>2019-09-15T12:34:59Z</time>
      </trkpt>
      <trkpt lat="48.63759" lon="1.86251">
        <ele>162.12526049332</ele>
        <time>2019-09-15T12:35:03Z</time>
      </trkpt>
      <trkpt lat="48.63753" lon="1.86244">
        <ele>162.07599259968</ele>
        <time>2019-09-15T12:35:08Z</time>
      </trkpt>
      <trkpt lat="48.63745" lon="1.86236">
        <ele>162.02563178501</ele>
        <time>2019-09-15T12:35:13Z</time>
      </trkpt>
      <trkpt lat="48.63739" lon="1.8623">
        <ele>161.97444446168</ele>
        <time>2019-09-15T12:35:18Z</time>
      </trkpt>
      <trkpt lat="48.63732" lon="1.86222">
        <ele>161.8755769715</ele>
        <time>2019-09-15T12:35:28Z</time>
      </trkpt>
      <trkpt lat="48.63726" lon="1.86215">
        <ele>161.80875086955</ele>
        <time>2019-09-15T12:35:34Z</time>
      </trkpt>
      <trkpt lat="48.63719" lon="1.86207">
        <ele>161.7259906457</ele>
        <time>2019-09-15T12:35:42Z</time>
      </trkpt>
      <trkpt lat="48.63713" lon="1.86198">
        <ele>161.65965967647</ele>
        <time>2019-09-15T12:35:49Z</time>
      </trkpt>
      <trkpt lat="48.63707" lon="1.8619">
        <ele>161.6074291857</ele>
        <time>2019-09-15T12:35:56Z</time>
      </trkpt>
      <trkpt lat="48.637" lon="1.86184">
        <ele>161.55330374179</ele>
        <time>2019-09-15T12:36:03Z</time>
      </trkpt>
      <trkpt lat="48.63693" lon="1.86175">
        <ele>161.49880880938</ele>
        <time>2019-09-15T12:36:11Z</time>
      </trkpt>
      <trkpt lat="48.63687" lon="1.86168">
        <ele>161.44832686096</ele>
        <time>2019-09-15T12:36:17Z</time>
      </trkpt>
      <trkpt lat="48.6368" lon="1.86159">
        <ele>161.41016126081</ele>
        <time>2019-09-15T12:36:22Z</time>
      </trkpt>
      <trkpt lat="48.63674" lon="1.8615">
        <ele>161.36971019091</ele>
        <time>2019-09-15T12:36:27Z</time>
      </trkpt>
      <trkpt lat="48.63667" lon="1.86145">
        <ele>161.33086666285</ele>
        <time>2019-09-15T12:36:32Z</time>
      </trkpt>
      <trkpt lat="48.6366" lon="1.8614">
        <ele>161.28672123346</ele>
        <time>2019-09-15T12:36:38Z</time>
      </trkpt>
      <trkpt lat="48.63652" lon="1.86134">
        <ele>161.24349540471</ele>
        <time>2019-09-15T12:36:43Z</time>
      </trkpt>
      <trkpt lat="48.63647" lon="1.86124">
        <ele>161.20692104712</ele>
        <time>2019-09-15T12:36:47Z</time>
      </trkpt>
      <trkpt lat="48.63643" lon="1.86114">
        <ele>161.04290363863</ele>
        <time>2019-09-15T12:37:30Z</time>
      </trkpt>
      <trkpt lat="48.63637" lon="1.86108">
        <ele>161.00062195234</ele>
        <time>2019-09-15T12:37:36Z</time>
      </trkpt>
      <trkpt lat="48.63629" lon="1.86103">
        <ele>160.95331542058</ele>
        <time>2019-09-15T12:37:42Z</time>
      </trkpt>
      <trkpt lat="48.63623" lon="1.86095">
        <ele>160.9157877381</ele>
        <time>2019-09-15T12:37:47Z</time>
      </trkpt>
      <trkpt lat="48.63615" lon="1.8609">
        <ele>160.87271901114</ele>
        <time>2019-09-15T12:37:53Z</time>
      </trkpt>
      <trkpt lat="48.63609" lon="1.86082">
        <ele>160.81563458944</ele>
        <time>2019-09-15T12:38:00Z</time>
      </trkpt>
      <trkpt lat="48.63603" lon="1.86072">
        <ele>160.75796448719</ele>
        <time>2019-09-15T12:38:07Z</time>
      </trkpt>
      <trkpt lat="48.63597" lon="1.86063">
        <ele>160.70619996023</ele>
        <time>2019-09-15T12:38:14Z</time>
      </trkpt>
      <trkpt lat="48.6359" lon="1.86057">
        <ele>160.65006738516</ele>
        <time>2019-09-15T12:38:21Z</time>
      </trkpt>
      <trkpt lat="48.63584" lon="1.8605">
        <ele>160.59204537715</ele>
        <time>2019-09-15T12:38:27Z</time>
      </trkpt>
      <trkpt lat="48.63577" lon="1.86042">
        <ele>160.52816274032</ele>
        <time>2019-09-15T12:38:33Z</time>
      </trkpt>
      <trkpt lat="48.6357" lon="1.86038">
        <ele>160.48849256301</ele>
        <time>2019-09-15T12:38:37Z</time>
      </trkpt>
      <trkpt lat="48.63561" lon="1.86035">
        <ele>160.41893929049</ele>
        <time>2019-09-15T12:38:44Z</time>
      </trkpt>
      <trkpt lat="48.63553" lon="1.86031">
        <ele>160.35522015582</ele>
        <time>2019-09-15T12:38:51Z</time>
      </trkpt>
      <trkpt lat="48.63549" lon="1.86021">
        <ele>160.30229720733</ele>
        <time>2019-09-15T12:38:57Z</time>
      </trkpt>
      <trkpt lat="48.63544" lon="1.86011">
        <ele>160.2483438199</ele>
        <time>2019-09-15T12:39:04Z</time>
      </trkpt>
      <trkpt lat="48.63536" lon="1.86002">
        <ele>160.21620082667</ele>
        <time>2019-09-15T12:39:09Z</time>
      </trkpt>
      <trkpt lat="48.63529" lon="1.85997">
        <ele>160.18213368795</ele>
        <time>2019-09-15T12:39:16Z</time>
      </trkpt>
      <trkpt lat="48.63522" lon="1.8599">
        <ele>160.15870008005</ele>
        <time>2019-09-15T12:39:22Z</time>
      </trkpt>
      <trkpt lat="48.63516" lon="1.8598">
        <ele>160.13255405752</ele>
        <time>2019-09-15T12:39:29Z</time>
      </trkpt>
      <trkpt lat="48.63509" lon="1.85974">
        <ele>160.10992862066</ele>
        <time>2019-09-15T12:39:36Z</time>
      </trkpt>
      <trkpt lat="48.63501" lon="1.8597">
        <ele>160.08823606963</ele>
        <time>2019-09-15T12:39:42Z</time>
      </trkpt>
      <trkpt lat="48.63495" lon="1.85961">
        <ele>160.06642000228</ele>
        <time>2019-09-15T12:39:49Z</time>
      </trkpt>
      <trkpt lat="48.63488" lon="1.85955">
        <ele>160.04236547574</ele>
        <time>2019-09-15T12:39:56Z</time>
      </trkpt>
      <trkpt lat="48.63481" lon="1.85946">
        <ele>160.02015285069</ele>
        <time>2019-09-15T12:40:04Z</time>
      </trkpt>
      <trkpt lat="48.63479" lon="1.85935">
        <ele>160.0012674132</ele>
        <time>2019-09-15T12:40:12Z</time>
      </trkpt>
      <trkpt lat="48.63479" lon="1.85922">
        <ele>159.98747645184</ele>
        <time>2019-09-15T12:40:18Z</time>
      </trkpt>
      <trkpt lat="48.63474" lon="1.85913">
        <ele>159.96691855283</ele>
        <time>2019-09-15T12:40:26Z</time>
      </trkpt>
      <trkpt lat="48.63472" lon="1.85899">
        <ele>159.95182661986</ele>
        <time>2019-09-15T12:40:30Z</time>
      </trkpt>
      <trkpt lat="48.6347" lon="1.85888">
        <ele>159.91663002897</ele>
        <time>2019-09-15T12:40:37Z</time>
      </trkpt>
      <trkpt lat="48.63465" lon="1.85878">
        <ele>159.87006033634</ele>
        <time>2019-09-15T12:40:48Z</time>
      </trkpt>
      <trkpt lat="48.63456" lon="1.85878">
        <ele>159.83912155187</ele>
        <time>2019-09-15T12:40:54Z</time>
      </trkpt>
      <trkpt lat="48.63448" lon="1.85877">
        <ele>159.81043399681</ele>
        <time>2019-09-15T12:41:02Z</time>
      </trkpt>
      <trkpt lat="48.6344" lon="1.85871">
        <ele>159.79220744641</ele>
        <time>2019-09-15T12:41:09Z</time>
      </trkpt>
      <trkpt lat="48.63432" lon="1.85871">
        <ele>159.76649817047</ele>
        <time>2019-09-15T12:41:17Z</time>
      </trkpt>
      <trkpt lat="48.63424" lon="1.8587">
        <ele>159.74654590009</ele>
        <time>2019-09-15T12:41:23Z</time>
      </trkpt>
      <trkpt lat="48.63417" lon="1.85864">
        <ele>159.72539515841</ele>
        <time>2019-09-15T12:41:31Z</time>
      </trkpt>
      <trkpt lat="48.6341" lon="1.85856">
        <ele>159.71340327101</ele>
        <time>2019-09-15T12:41:38Z</time>
      </trkpt>
      <trkpt lat="48.63402" lon="1.85851">
        <ele>159.69850515337</ele>
        <time>2019-09-15T12:41:44Z</time>
      </trkpt>
      <trkpt lat="48.63396" lon="1.85843">
        <ele>159.68082670626</ele>
        <time>2019-09-15T12:41:49Z</time>
      </trkpt>
      <trkpt lat="48.63391" lon="1.85834">
        <ele>159.66289261165</ele>
        <time>2019-09-15T12:41:55Z</time>
      </trkpt>
      <trkpt lat="48.63383" lon="1.8583">
        <ele>159.65124748283</ele>
        <time>2019-09-15T12:42:02Z</time>
      </trkpt>
      <trkpt lat="48.63376" lon="1.85824">
        <ele>159.66236376657</ele>
        <time>2019-09-15T12:42:08Z</time>
      </trkpt>
      <trkpt lat="48.63368" lon="1.85821">
        <ele>159.69354623494</ele>
        <time>2019-09-15T12:42:20Z</time>
      </trkpt>
      <trkpt lat="48.63361" lon="1.85816">
        <ele>159.71317752257</ele>
        <time>2019-09-15T12:42:25Z</time>
      </trkpt>
      <trkpt lat="48.63356" lon="1.85806">
        <ele>159.74357468416</ele>
        <time>2019-09-15T12:42:31Z</time>
      </trkpt>
      <trkpt lat="48.63352" lon="1.85797">
        <ele>159.79587354667</ele>
        <time>2019-09-15T12:42:38Z</time>
      </trkpt>
      <trkpt lat="48.63347" lon="1.85786">
        <ele>159.83263641058</ele>
        <time>2019-09-15T12:42:43Z</time>
      </trkpt>
      <trkpt lat="48.63341" lon="1.85778">
        <ele>159.8677250833</ele>
        <time>2019-09-15T12:42:50Z</time>
      </trkpt>
      <trkpt lat="48.63334" lon="1.8577">
        <ele>159.88762223571</ele>
        <time>2019-09-15T12:42:55Z</time>
      </trkpt>
      <trkpt lat="48.63327" lon="1.85764">
        <ele>159.90724912707</ele>
        <time>2019-09-15T12:43:01Z</time>
      </trkpt>
      <trkpt lat="48.63319" lon="1.85758">
        <ele>159.92363577906</ele>
        <time>2019-09-15T12:43:06Z</time>
      </trkpt>
      <trkpt lat="48.63314" lon="1.85748">
        <ele>159.94363259526</ele>
        <time>2019-09-15T12:43:10Z</time>
      </trkpt>
      <trkpt lat="48.63308" lon="1.85741">
        <ele>159.9596683788</ele>
        <time>2019-09-15T12:43:16Z</time>
      </trkpt>
      <trkpt lat="48.63301" lon="1.85733">
        <ele>159.95996938857</ele>
        <time>2019-09-15T12:43:23Z</time>
      </trkpt>
      <trkpt lat="48.63308" lon="1.85728">
        <ele>159.97737944728</ele>
        <time>2019-09-15T12:43:43Z</time>
      </trkpt>
      <trkpt lat="48.63314" lon="1.8572">
        <ele>159.96965069312</ele>
        <time>2019-09-15T12:43:50Z</time>
      </trkpt>
      <trkpt lat="48.63319" lon="1.8571">
        <ele>159.95008834916</ele>
        <time>2019-09-15T12:43:56Z</time>
      </trkpt>
      <trkpt lat="48.63323" lon="1.85699">
        <ele>159.91602136262</ele>
        <time>2019-09-15T12:44:03Z</time>
      </trkpt>
      <trkpt lat="48.63326" lon="1.85686">
        <ele>159.88574622407</ele>
        <time>2019-09-15T12:44:08Z</time>
      </trkpt>
      <trkpt lat="48.63325" lon="1.85673">
        <ele>159.80888632266</ele>
        <time>2019-09-15T12:44:16Z</time>
      </trkpt>
      <trkpt lat="48.63322" lon="1.85662">
        <ele>159.73911479564</ele>
        <time>2019-09-15T12:44:22Z</time>
      </trkpt>
      <trkpt lat="48.63316" lon="1.85652">
        <ele>159.68917018938</ele>
        <time>2019-09-15T12:44:27Z</time>
      </trkpt>
      <trkpt lat="48.63311" lon="1.85643">
        <ele>159.63887034055</ele>
        <time>2019-09-15T12:44:33Z</time>
      </trkpt>
      <trkpt lat="48.6331" lon="1.8563">
        <ele>159.60002851952</ele>
        <time>2019-09-15T12:44:41Z</time>
      </trkpt>
      <trkpt lat="48.63305" lon="1.85619">
        <ele>159.5648072738</ele>
        <time>2019-09-15T12:44:49Z</time>
      </trkpt>
      <trkpt lat="48.63302" lon="1.8561">
        <ele>159.54300439268</ele>
        <time>2019-09-15T12:44:53Z</time>
      </trkpt>
      <trkpt lat="48.63297" lon="1.85601">
        <ele>159.49501153491</ele>
        <time>2019-09-15T12:44:58Z</time>
      </trkpt>
      <trkpt lat="48.63289" lon="1.85597">
        <ele>159.4139689893</ele>
        <time>2019-09-15T12:45:05Z</time>
      </trkpt>
      <trkpt lat="48.63282" lon="1.8559">
        <ele>159.33007665186</ele>
        <time>2019-09-15T12:45:12Z</time>
      </trkpt>
      <trkpt lat="48.63277" lon="1.85583">
        <ele>159.19141669034</ele>
        <time>2019-09-15T12:45:30Z</time>
      </trkpt>
      <trkpt lat="48.63269" lon="1.85574">
        <ele>159.13935318296</ele>
        <time>2019-09-15T12:45:35Z</time>
      </trkpt>
      <trkpt lat="48.63266" lon="1.85564">
        <ele>159.08304617753</ele>
        <time>2019-09-15T12:45:41Z</time>
      </trkpt>
      <trkpt lat="48.6326" lon="1.85555">
        <ele>159.02657988726</ele>
        <time>2019-09-15T12:45:46Z</time>
      </trkpt>
      <trkpt lat="48.63253" lon="1.85548">
        <ele>158.95305031201</ele>
        <time>2019-09-15T12:45:54Z</time>
      </trkpt>
      <trkpt lat="48.63246" lon="1.8554">
        <ele>158.91471495897</ele>
        <time>2019-09-15T12:46:00Z</time>
      </trkpt>
      <trkpt lat="48.63239" lon="1.85532">
        <ele>158.88548796318</ele>
        <time>2019-09-15T12:46:08Z</time>
      </trkpt>
      <trkpt lat="48.63233" lon="1.85524">
        <ele>158.86536693966</ele>
        <time>2019-09-15T12:46:16Z</time>
      </trkpt>
      <trkpt lat="48.63229" lon="1.85515">
        <ele>158.85990211121</ele>
        <time>2019-09-15T12:46:20Z</time>
      </trkpt>
      <trkpt lat="48.63223" lon="1.85504">
        <ele>158.85722003947</ele>
        <time>2019-09-15T12:46:25Z</time>
      </trkpt>
      <trkpt lat="48.63217" lon="1.85496">
        <ele>158.86183545397</ele>
        <time>2019-09-15T12:46:30Z</time>
      </trkpt>
      <trkpt lat="48.63212" lon="1.85485">
        <ele>158.8698997103</ele>
        <time>2019-09-15T12:46:39Z</time>
      </trkpt>
      <trkpt lat="48.63209" lon="1.85475">
        <ele>158.87382766298</ele>
        <time>2019-09-15T12:46:46Z</time>
      </trkpt>
      <trkpt lat="48.63208" lon="1.85463">
        <ele>158.86776960044</ele>
        <time>2019-09-15T12:46:59Z</time>
      </trkpt>
      <trkpt lat="48.63204" lon="1.85454">
        <ele>158.86125084082</ele>
        <time>2019-09-15T12:47:07Z</time>
      </trkpt>
      <trkpt lat="48.63199" lon="1.85446">
        <ele>158.85673181555</ele>
        <time>2019-09-15T12:47:12Z</time>
      </trkpt>
      <trkpt lat="48.63195" lon="1.85434">
        <ele>158.8464165552</ele>
        <time>2019-09-15T12:47:16Z</time>
      </trkpt>
      <trkpt lat="48.6319" lon="1.85422">
        <ele>158.83491773493</ele>
        <time>2019-09-15T12:47:20Z</time>
      </trkpt>
      <trkpt lat="48.63186" lon="1.85411">
        <ele>158.8118704712</ele>
        <time>2019-09-15T12:47:27Z</time>
      </trkpt>
      <trkpt lat="48.63179" lon="1.85407">
        <ele>158.79207775966</ele>
        <time>2019-09-15T12:47:35Z</time>
      </trkpt>
      <trkpt lat="48.63175" lon="1.85395">
        <ele>158.77734860085</ele>
        <time>2019-09-15T12:47:39Z</time>
      </trkpt>
      <trkpt lat="48.63171" lon="1.85385">
        <ele>158.75823619222</ele>
        <time>2019-09-15T12:47:45Z</time>
      </trkpt>
      <trkpt lat="48.63166" lon="1.85374">
        <ele>158.73235409307</ele>
        <time>2019-09-15T12:47:52Z</time>
      </trkpt>
      <trkpt lat="48.63166" lon="1.85362">
        <ele>158.68638783858</ele>
        <time>2019-09-15T12:48:05Z</time>
      </trkpt>
      <trkpt lat="48.63161" lon="1.85351">
        <ele>158.6630830642</ele>
        <time>2019-09-15T12:48:10Z</time>
      </trkpt>
      <trkpt lat="48.63161" lon="1.85339">
        <ele>158.61503721587</ele>
        <time>2019-09-15T12:48:19Z</time>
      </trkpt>
      <trkpt lat="48.63157" lon="1.85328">
        <ele>158.56256771009</ele>
        <time>2019-09-15T12:48:29Z</time>
      </trkpt>
      <trkpt lat="48.6315" lon="1.85312">
        <ele>158.54099809016</ele>
        <time>2019-09-15T12:48:33Z</time>
      </trkpt>
      <trkpt lat="48.63146" lon="1.853">
        <ele>158.49699099892</ele>
        <time>2019-09-15T12:48:42Z</time>
      </trkpt>
      <trkpt lat="48.63141" lon="1.8529">
        <ele>158.45994379052</ele>
        <time>2019-09-15T12:48:50Z</time>
      </trkpt>
      <trkpt lat="48.63138" lon="1.85278">
        <ele>158.41299257409</ele>
        <time>2019-09-15T12:49:03Z</time>
      </trkpt>
      <trkpt lat="48.63132" lon="1.85269">
        <ele>158.38512649595</ele>
        <time>2019-09-15T12:49:11Z</time>
      </trkpt>
      <trkpt lat="48.63126" lon="1.85259">
        <ele>158.3652596766</ele>
        <time>2019-09-15T12:49:18Z</time>
      </trkpt>
      <trkpt lat="48.63117" lon="1.8524">
        <ele>158.35054826116</ele>
        <time>2019-09-15T12:49:22Z</time>
      </trkpt>
      <trkpt lat="48.63114" lon="1.85229">
        <ele>158.32447633385</ele>
        <time>2019-09-15T12:49:28Z</time>
      </trkpt>
      <trkpt lat="48.63108" lon="1.8522">
        <ele>158.28940736656</ele>
        <time>2019-09-15T12:49:37Z</time>
      </trkpt>
      <trkpt lat="48.63105" lon="1.85208">
        <ele>158.25971713537</ele>
        <time>2019-09-15T12:49:44Z</time>
      </trkpt>
      <trkpt lat="48.63102" lon="1.85199">
        <ele>158.23708902515</ele>
        <time>2019-09-15T12:49:49Z</time>
      </trkpt>
      <trkpt lat="48.63098" lon="1.85189">
        <ele>158.21213207282</ele>
        <time>2019-09-15T12:49:54Z</time>
      </trkpt>
      <trkpt lat="48.63092" lon="1.8518">
        <ele>158.18952239517</ele>
        <time>2019-09-15T12:49:59Z</time>
      </trkpt>
      <trkpt lat="48.63087" lon="1.8517">
        <ele>158.16243431271</ele>
        <time>2019-09-15T12:50:05Z</time>
      </trkpt>
      <trkpt lat="48.63083" lon="1.85159">
        <ele>158.14263488307</ele>
        <time>2019-09-15T12:50:09Z</time>
      </trkpt>
      <trkpt lat="48.63077" lon="1.85151">
        <ele>158.10439506356</ele>
        <time>2019-09-15T12:50:17Z</time>
      </trkpt>
      <trkpt lat="48.63072" lon="1.85141">
        <ele>158.06651507943</ele>
        <time>2019-09-15T12:50:26Z</time>
      </trkpt>
      <trkpt lat="48.63067" lon="1.85131">
        <ele>158.04537590236</ele>
        <time>2019-09-15T12:50:32Z</time>
      </trkpt>
      <trkpt lat="48.63063" lon="1.85116">
        <ele>158.03287706483</ele>
        <time>2019-09-15T12:50:37Z</time>
      </trkpt>
      <trkpt lat="48.63063" lon="1.85104">
        <ele>158.02055418652</ele>
        <time>2019-09-15T12:50:42Z</time>
      </trkpt>
      <trkpt lat="48.63061" lon="1.85091">
        <ele>158.00163838104</ele>
        <time>2019-09-15T12:50:49Z</time>
      </trkpt>
      <trkpt lat="48.63059" lon="1.85079">
        <ele>157.98095896268</ele>
        <time>2019-09-15T12:50:55Z</time>
      </trkpt>
      <trkpt lat="48.63062" lon="1.85067">
        <ele>157.94133475242</ele>
        <time>2019-09-15T12:51:05Z</time>
      </trkpt>
      <trkpt lat="48.63069" lon="1.85059">
        <ele>157.90286626313</ele>
        <time>2019-09-15T12:51:13Z</time>
      </trkpt>
      <trkpt lat="48.63076" lon="1.85054">
        <ele>157.85009798993</ele>
        <time>2019-09-15T12:51:22Z</time>
      </trkpt>
      <trkpt lat="48.63082" lon="1.85046">
        <ele>157.82093022953</ele>
        <time>2019-09-15T12:51:27Z</time>
      </trkpt>
      <trkpt lat="48.63088" lon="1.85038">
        <ele>157.76034884641</ele>
        <time>2019-09-15T12:51:37Z</time>
      </trkpt>
      <trkpt lat="48.63085" lon="1.85028">
        <ele>157.72373714713</ele>
        <time>2019-09-15T12:51:42Z</time>
      </trkpt>
      <trkpt lat="48.63081" lon="1.85017">
        <ele>157.67930532834</ele>
        <time>2019-09-15T12:51:48Z</time>
      </trkpt>
      <trkpt lat="48.63074" lon="1.85008">
        <ele>157.62291984464</ele>
        <time>2019-09-15T12:52:00Z</time>
      </trkpt>
      <trkpt lat="48.63068" lon="1.85">
        <ele>157.605321628</ele>
        <time>2019-09-15T12:52:06Z</time>
      </trkpt>
      <trkpt lat="48.63062" lon="1.84991">
        <ele>157.56507297519</ele>
        <time>2019-09-15T12:52:17Z</time>
      </trkpt>
      <trkpt lat="48.63057" lon="1.84981">
        <ele>157.54635200252</ele>
        <time>2019-09-15T12:52:22Z</time>
      </trkpt>
      <trkpt lat="48.63051" lon="1.84971">
        <ele>157.51803090717</ele>
        <time>2019-09-15T12:52:30Z</time>
      </trkpt>
      <trkpt lat="48.63046" lon="1.84962">
        <ele>157.49599347858</ele>
        <time>2019-09-15T12:52:37Z</time>
      </trkpt>
      <trkpt lat="48.63043" lon="1.8495">
        <ele>157.47977168146</ele>
        <time>2019-09-15T12:52:42Z</time>
      </trkpt>
      <trkpt lat="48.63039" lon="1.84939">
        <ele>157.45718431614</ele>
        <time>2019-09-15T12:52:48Z</time>
      </trkpt>
      <trkpt lat="48.63033" lon="1.84929">
        <ele>157.42880112944</ele>
        <time>2019-09-15T12:52:57Z</time>
      </trkpt>
      <trkpt lat="48.63028" lon="1.84918">
        <ele>157.41233322288</ele>
        <time>2019-09-15T12:53:02Z</time>
      </trkpt>
      <trkpt lat="48.63023" lon="1.8491">
        <ele>157.38634932922</ele>
        <time>2019-09-15T12:53:09Z</time>
      </trkpt>
      <trkpt lat="48.63021" lon="1.84898">
        <ele>157.36155890829</ele>
        <time>2019-09-15T12:53:15Z</time>
      </trkpt>
      <trkpt lat="48.63018" lon="1.84887">
        <ele>157.32204967294</ele>
        <time>2019-09-15T12:53:24Z</time>
      </trkpt>
      <trkpt lat="48.63014" lon="1.84876">
        <ele>157.29930603699</ele>
        <time>2019-09-15T12:53:30Z</time>
      </trkpt>
      <trkpt lat="48.6301" lon="1.84867">
        <ele>157.27458514572</ele>
        <time>2019-09-15T12:53:36Z</time>
      </trkpt>
      <trkpt lat="48.63007" lon="1.84855">
        <ele>157.25485186926</ele>
        <time>2019-09-15T12:53:41Z</time>
      </trkpt>
      <trkpt lat="48.63003" lon="1.84845">
        <ele>157.22613916302</ele>
        <time>2019-09-15T12:53:49Z</time>
      </trkpt>
      <trkpt lat="48.62999" lon="1.84834">
        <ele>157.20463398517</ele>
        <time>2019-09-15T12:53:55Z</time>
      </trkpt>
      <trkpt lat="48.62996" lon="1.84823">
        <ele>157.17626601967</ele>
        <time>2019-09-15T12:54:02Z</time>
      </trkpt>
      <trkpt lat="48.62992" lon="1.84811">
        <ele>157.14761583689</ele>
        <time>2019-09-15T12:54:09Z</time>
      </trkpt>
      <trkpt lat="48.62988" lon="1.848">
        <ele>157.11903156781</ele>
        <time>2019-09-15T12:54:17Z</time>
      </trkpt>
      <trkpt lat="48.62985" lon="1.84789">
        <ele>157.10781219849</ele>
        <time>2019-09-15T12:54:23Z</time>
      </trkpt>
      <trkpt lat="48.62982" lon="1.84776">
        <ele>157.08815485587</ele>
        <time>2019-09-15T12:54:31Z</time>
      </trkpt>
      <trkpt lat="48.62981" lon="1.84762">
        <ele>157.04928137502</ele>
        <time>2019-09-15T12:54:42Z</time>
      </trkpt>
      <trkpt lat="48.62979" lon="1.84749">
        <ele>157.01687942951</ele>
        <time>2019-09-15T12:54:51Z</time>
      </trkpt>
      <trkpt lat="48.62976" lon="1.84737">
        <ele>156.99030120408</ele>
        <time>2019-09-15T12:55:02Z</time>
      </trkpt>
      <trkpt lat="48.62974" lon="1.84725">
        <ele>156.98096327278</ele>
        <time>2019-09-15T12:55:08Z</time>
      </trkpt>
      <trkpt lat="48.62969" lon="1.84714">
        <ele>156.86310736749</ele>
        <time>2019-09-15T12:56:03Z</time>
      </trkpt>
      <trkpt lat="48.62962" lon="1.84707">
        <ele>156.01067820991</ele>
        <time>2019-09-15T13:00:25Z</time>
      </trkpt>
      <trkpt lat="48.62971" lon="1.84704">
        <ele>156.06240526564</ele>
        <time>2019-09-15T13:00:40Z</time>
      </trkpt>
      <trkpt lat="48.62978" lon="1.84711">
        <ele>156.1274078091</ele>
        <time>2019-09-15T13:01:28Z</time>
      </trkpt>
      <trkpt lat="48.62982" lon="1.84722">
        <ele>156.14688285194</ele>
        <time>2019-09-15T13:01:38Z</time>
      </trkpt>
      <trkpt lat="48.62975" lon="1.84729">
        <ele>156.18203916776</ele>
        <time>2019-09-15T13:02:21Z</time>
      </trkpt>
      <trkpt lat="48.62968" lon="1.8472">
        <ele>155.99406819652</ele>
        <time>2019-09-15T13:02:53Z</time>
      </trkpt>
      <trkpt lat="48.62965" lon="1.84708">
        <ele>155.37718882509</ele>
        <time>2019-09-15T13:05:20Z</time>
      </trkpt>
      <trkpt lat="48.62973" lon="1.84706">
        <ele>155.27421509212</ele>
        <time>2019-09-15T13:05:44Z</time>
      </trkpt>
      <trkpt lat="48.62976" lon="1.84718">
        <ele>155.32294107583</ele>
        <time>2019-09-15T13:06:40Z</time>
      </trkpt>
      <trkpt lat="48.62968" lon="1.84713">
        <ele>155.24822519558</ele>
        <time>2019-09-15T13:07:38Z</time>
      </trkpt>
      <trkpt lat="48.62963" lon="1.84724">
        <ele>155.45785755552</ele>
        <time>2019-09-15T13:08:39Z</time>
      </trkpt>
      <trkpt lat="48.62971" lon="1.84722">
        <ele>156.13570590232</ele>
        <time>2019-09-15T13:11:42Z</time>
      </trkpt>
      <trkpt lat="48.62962" lon="1.84719">
        <ele>156.68066543288</ele>
        <time>2019-09-15T13:13:36Z</time>
      </trkpt>
      <trkpt lat="48.62963" lon="1.84702">
        <ele>156.68512138601</ele>
        <time>2019-09-15T13:13:40Z</time>
      </trkpt>
      <trkpt lat="48.62969" lon="1.84712">
        <ele>157.09760051843</ele>
        <time>2019-09-15T13:15:05Z</time>
      </trkpt>
      <trkpt lat="48.62967" lon="1.847">
        <ele>157.42630342719</ele>
        <time>2019-09-15T13:15:50Z</time>
      </trkpt>
      <trkpt lat="48.62962" lon="1.84691">
        <ele>157.46296056235</ele>
        <time>2019-09-15T13:16:01Z</time>
      </trkpt>
      <trkpt lat="48.62969" lon="1.84696">
        <ele>157.48537393366</ele>
        <time>2019-09-15T13:16:16Z</time>
      </trkpt>
      <trkpt lat="48.6297" lon="1.8471">
        <ele>157.59502094911</ele>
        <time>2019-09-15T13:16:49Z</time>
      </trkpt>
      <trkpt lat="48.6297" lon="1.84723">
        <ele>157.57560652731</ele>
        <time>2019-09-15T13:16:55Z</time>
      </trkpt>
      <trkpt lat="48.62968" lon="1.84711">
        <ele>157.31738782489</ele>
        <time>2019-09-15T13:18:17Z</time>
      </trkpt>
      <trkpt lat="48.62961" lon="1.84719">
        <ele>157.30011320309</ele>
        <time>2019-09-15T13:19:24Z</time>
      </trkpt>
      <trkpt lat="48.6297" lon="1.8472">
        <ele>160.39956446383</ele>
        <time>2019-09-15T13:29:46Z</time>
      </trkpt>
      <trkpt lat="48.62965" lon="1.84711">
        <ele>160.60216391632</ele>
        <time>2019-09-15T13:30:32Z</time>
      </trkpt>
      <trkpt lat="48.62972" lon="1.84718">
        <ele>161.01567038092</ele>
        <time>2019-09-15T13:32:50Z</time>
      </trkpt>
      <trkpt lat="48.62975" lon="1.84731">
        <ele>161.50814039979</ele>
        <time>2019-09-15T13:34:16Z</time>
      </trkpt>
      <trkpt lat="48.62979" lon="1.84743">
        <ele>161.57299997885</ele>
        <time>2019-09-15T13:34:29Z</time>
      </trkpt>
      <trkpt lat="48.62983" lon="1.84755">
        <ele>161.60197779443</ele>
        <time>2019-09-15T13:34:36Z</time>
      </trkpt>
      <trkpt lat="48.62986" lon="1.84766">
        <ele>161.63512064805</ele>
        <time>2019-09-15T13:34:44Z</time>
      </trkpt>
      <trkpt lat="48.62985" lon="1.84779">
        <ele>161.66460278425</ele>
        <time>2019-09-15T13:34:52Z</time>
      </trkpt>
      <trkpt lat="48.62985" lon="1.84792">
        <ele>161.68922813866</ele>
        <time>2019-09-15T13:34:59Z</time>
      </trkpt>
      <trkpt lat="48.62991" lon="1.84802">
        <ele>161.71963001909</ele>
        <time>2019-09-15T13:35:07Z</time>
      </trkpt>
      <trkpt lat="48.62996" lon="1.84812">
        <ele>161.75507667737</ele>
        <time>2019-09-15T13:35:19Z</time>
      </trkpt>
      <trkpt lat="48.63001" lon="1.84821">
        <ele>161.76627332056</ele>
        <time>2019-09-15T13:35:25Z</time>
      </trkpt>
      <trkpt lat="48.63004" lon="1.84832">
        <ele>161.77147264719</ele>
        <time>2019-09-15T13:35:30Z</time>
      </trkpt>
      <trkpt lat="48.63007" lon="1.84842">
        <ele>161.77622945521</ele>
        <time>2019-09-15T13:35:36Z</time>
      </trkpt>
      <trkpt lat="48.6301" lon="1.84854">
        <ele>161.78058084807</ele>
        <time>2019-09-15T13:35:43Z</time>
      </trkpt>
      <trkpt lat="48.63014" lon="1.84864">
        <ele>161.78473992093</ele>
        <time>2019-09-15T13:35:53Z</time>
      </trkpt>
      <trkpt lat="48.63019" lon="1.84872">
        <ele>161.78891552581</ele>
        <time>2019-09-15T13:35:59Z</time>
      </trkpt>
      <trkpt lat="48.63023" lon="1.84882">
        <ele>161.79615275291</ele>
        <time>2019-09-15T13:36:04Z</time>
      </trkpt>
      <trkpt lat="48.63028" lon="1.84892">
        <ele>161.8072313154</ele>
        <time>2019-09-15T13:36:11Z</time>
      </trkpt>
      <trkpt lat="48.63032" lon="1.84904">
        <ele>161.81223308677</ele>
        <time>2019-09-15T13:36:15Z</time>
      </trkpt>
      <trkpt lat="48.63035" lon="1.84915">
        <ele>161.8249139903</ele>
        <time>2019-09-15T13:36:27Z</time>
      </trkpt>
      <trkpt lat="48.63042" lon="1.84924">
        <ele>161.83147411158</ele>
        <time>2019-09-15T13:36:35Z</time>
      </trkpt>
      <trkpt lat="48.63045" lon="1.84935">
        <ele>161.83249202176</ele>
        <time>2019-09-15T13:36:43Z</time>
      </trkpt>
      <trkpt lat="48.63048" lon="1.84947">
        <ele>161.83037050433</ele>
        <time>2019-09-15T13:36:54Z</time>
      </trkpt>
      <trkpt lat="48.63052" lon="1.84958">
        <ele>161.8217736777</ele>
        <time>2019-09-15T13:37:04Z</time>
      </trkpt>
      <trkpt lat="48.63056" lon="1.8497">
        <ele>161.81359253119</ele>
        <time>2019-09-15T13:37:09Z</time>
      </trkpt>
      <trkpt lat="48.63063" lon="1.84977">
        <ele>161.79450706309</ele>
        <time>2019-09-15T13:37:17Z</time>
      </trkpt>
      <trkpt lat="48.6307" lon="1.84985">
        <ele>161.77715460953</ele>
        <time>2019-09-15T13:37:23Z</time>
      </trkpt>
      <trkpt lat="48.63077" lon="1.84992">
        <ele>161.74613984348</ele>
        <time>2019-09-15T13:37:32Z</time>
      </trkpt>
      <trkpt lat="48.63084" lon="1.84999">
        <ele>161.72750800615</ele>
        <time>2019-09-15T13:37:38Z</time>
      </trkpt>
      <trkpt lat="48.6309" lon="1.85009">
        <ele>161.71304878705</ele>
        <time>2019-09-15T13:37:43Z</time>
      </trkpt>
      <trkpt lat="48.63099" lon="1.85007">
        <ele>161.68737667498</ele>
        <time>2019-09-15T13:37:52Z</time>
      </trkpt>
      <trkpt lat="48.63106" lon="1.85">
        <ele>161.67839057692</ele>
        <time>2019-09-15T13:38:03Z</time>
      </trkpt>
      <trkpt lat="48.63114" lon="1.84994">
        <ele>161.69066976641</ele>
        <time>2019-09-15T13:38:15Z</time>
      </trkpt>
      <trkpt lat="48.63121" lon="1.84986">
        <ele>161.71281578394</ele>
        <time>2019-09-15T13:38:23Z</time>
      </trkpt>
      <trkpt lat="48.63128" lon="1.84978">
        <ele>161.73431102853</ele>
        <time>2019-09-15T13:38:29Z</time>
      </trkpt>
      <trkpt lat="48.63134" lon="1.84969">
        <ele>161.76260128032</ele>
        <time>2019-09-15T13:38:37Z</time>
      </trkpt>
      <trkpt lat="48.63141" lon="1.84962">
        <ele>161.78162849783</ele>
        <time>2019-09-15T13:38:43Z</time>
      </trkpt>
      <trkpt lat="48.63149" lon="1.84956">
        <ele>161.80059854569</ele>
        <time>2019-09-15T13:38:49Z</time>
      </trkpt>
      <trkpt lat="48.63156" lon="1.84948">
        <ele>161.81955404833</ele>
        <time>2019-09-15T13:38:56Z</time>
      </trkpt>
      <trkpt lat="48.63162" lon="1.8494">
        <ele>161.82931183122</ele>
        <time>2019-09-15T13:39:01Z</time>
      </trkpt>
      <trkpt lat="48.63168" lon="1.84932">
        <ele>161.83634616044</ele>
        <time>2019-09-15T13:39:08Z</time>
      </trkpt>
      <trkpt lat="48.63171" lon="1.8492">
        <ele>161.84307892351</ele>
        <time>2019-09-15T13:39:18Z</time>
      </trkpt>
      <trkpt lat="48.63177" lon="1.8491">
        <ele>161.8452860784</ele>
        <time>2019-09-15T13:39:28Z</time>
      </trkpt>
      <trkpt lat="48.63181" lon="1.84899">
        <ele>161.84024627144</ele>
        <time>2019-09-15T13:39:36Z</time>
      </trkpt>
      <trkpt lat="48.63185" lon="1.84889">
        <ele>161.82920299291</ele>
        <time>2019-09-15T13:39:43Z</time>
      </trkpt>
      <trkpt lat="48.63192" lon="1.84883">
        <ele>161.82439455547</ele>
        <time>2019-09-15T13:39:47Z</time>
      </trkpt>
      <trkpt lat="48.63198" lon="1.84873">
        <ele>161.81931029753</ele>
        <time>2019-09-15T13:39:52Z</time>
      </trkpt>
      <trkpt lat="48.63203" lon="1.84863">
        <ele>161.80722496036</ele>
        <time>2019-09-15T13:40:01Z</time>
      </trkpt>
      <trkpt lat="48.6321" lon="1.84855">
        <ele>161.79595170523</ele>
        <time>2019-09-15T13:40:07Z</time>
      </trkpt>
      <trkpt lat="48.63217" lon="1.84852">
        <ele>161.78469273692</ele>
        <time>2019-09-15T13:40:13Z</time>
      </trkpt>
      <trkpt lat="48.63224" lon="1.84844">
        <ele>161.77954951701</ele>
        <time>2019-09-15T13:40:18Z</time>
      </trkpt>
      <trkpt lat="48.63232" lon="1.8484">
        <ele>161.77424876165</ele>
        <time>2019-09-15T13:40:25Z</time>
      </trkpt>
      <trkpt lat="48.63238" lon="1.84832">
        <ele>161.76895630495</ele>
        <time>2019-09-15T13:40:30Z</time>
      </trkpt>
      <trkpt lat="48.63244" lon="1.84824">
        <ele>161.76169671345</ele>
        <time>2019-09-15T13:40:35Z</time>
      </trkpt>
      <trkpt lat="48.63249" lon="1.84817">
        <ele>161.75477998121</ele>
        <time>2019-09-15T13:40:39Z</time>
      </trkpt>
      <trkpt lat="48.63254" lon="1.84808">
        <ele>161.74197070621</ele>
        <time>2019-09-15T13:40:43Z</time>
      </trkpt>
      <trkpt lat="48.63261" lon="1.84801">
        <ele>161.70767657034</ele>
        <time>2019-09-15T13:40:50Z</time>
      </trkpt>
      <trkpt lat="48.63267" lon="1.84793">
        <ele>161.66806427297</ele>
        <time>2019-09-15T13:40:57Z</time>
      </trkpt>
      <trkpt lat="48.63273" lon="1.84784">
        <ele>161.62468363252</ele>
        <time>2019-09-15T13:41:03Z</time>
      </trkpt>
      <trkpt lat="48.63278" lon="1.84775">
        <ele>161.55992278858</ele>
        <time>2019-09-15T13:41:10Z</time>
      </trkpt>
      <trkpt lat="48.63283" lon="1.84764">
        <ele>161.49563130495</ele>
        <time>2019-09-15T13:41:17Z</time>
      </trkpt>
      <trkpt lat="48.63288" lon="1.84753">
        <ele>161.40604339143</ele>
        <time>2019-09-15T13:41:27Z</time>
      </trkpt>
      <trkpt lat="48.63293" lon="1.84746">
        <ele>161.35975678391</ele>
        <time>2019-09-15T13:41:32Z</time>
      </trkpt>
      <trkpt lat="48.633" lon="1.84739">
        <ele>161.29270109875</ele>
        <time>2019-09-15T13:41:39Z</time>
      </trkpt>
      <trkpt lat="48.63308" lon="1.84735">
        <ele>161.22469296692</ele>
        <time>2019-09-15T13:41:46Z</time>
      </trkpt>
      <trkpt lat="48.63315" lon="1.84729">
        <ele>161.18580418653</ele>
        <time>2019-09-15T13:41:50Z</time>
      </trkpt>
      <trkpt lat="48.63322" lon="1.84721">
        <ele>161.11618741292</ele>
        <time>2019-09-15T13:41:57Z</time>
      </trkpt>
      <trkpt lat="48.63327" lon="1.84712">
        <ele>161.03081382053</ele>
        <time>2019-09-15T13:42:05Z</time>
      </trkpt>
      <trkpt lat="48.63332" lon="1.84701">
        <ele>160.91364393183</ele>
        <time>2019-09-15T13:42:16Z</time>
      </trkpt>
      <trkpt lat="48.63338" lon="1.84693">
        <ele>160.8512541371</ele>
        <time>2019-09-15T13:42:23Z</time>
      </trkpt>
      <trkpt lat="48.63344" lon="1.84684">
        <ele>160.80068957856</ele>
        <time>2019-09-15T13:42:29Z</time>
      </trkpt>
      <trkpt lat="48.6335" lon="1.84675">
        <ele>160.76071771994</ele>
        <time>2019-09-15T13:42:34Z</time>
      </trkpt>
      <trkpt lat="48.63355" lon="1.84664">
        <ele>160.71028904247</ele>
        <time>2019-09-15T13:42:40Z</time>
      </trkpt>
      <trkpt lat="48.63359" lon="1.84654">
        <ele>160.66760164901</ele>
        <time>2019-09-15T13:42:45Z</time>
      </trkpt>
      <trkpt lat="48.63366" lon="1.84648">
        <ele>160.61808962661</ele>
        <time>2019-09-15T13:42:51Z</time>
      </trkpt>
      <trkpt lat="48.63372" lon="1.84641">
        <ele>160.55204171499</ele>
        <time>2019-09-15T13:42:58Z</time>
      </trkpt>
      <trkpt lat="48.63379" lon="1.84636">
        <ele>160.49956306934</ele>
        <time>2019-09-15T13:43:03Z</time>
      </trkpt>
      <trkpt lat="48.63385" lon="1.84627">
        <ele>160.4428229622</ele>
        <time>2019-09-15T13:43:08Z</time>
      </trkpt>
      <trkpt lat="48.6339" lon="1.84617">
        <ele>160.36050325274</ele>
        <time>2019-09-15T13:43:16Z</time>
      </trkpt>
      <trkpt lat="48.63396" lon="1.84608">
        <ele>160.29979040697</ele>
        <time>2019-09-15T13:43:22Z</time>
      </trkpt>
      <trkpt lat="48.63403" lon="1.84599">
        <ele>160.20660067345</ele>
        <time>2019-09-15T13:43:31Z</time>
      </trkpt>
      <trkpt lat="48.63411" lon="1.84593">
        <ele>160.13342027487</ele>
        <time>2019-09-15T13:43:39Z</time>
      </trkpt>
      <trkpt lat="48.63417" lon="1.84584">
        <ele>160.07399996983</ele>
        <time>2019-09-15T13:43:46Z</time>
      </trkpt>
      <trkpt lat="48.63422" lon="1.84575">
        <ele>159.99795843428</ele>
        <time>2019-09-15T13:43:54Z</time>
      </trkpt>
      <trkpt lat="48.63428" lon="1.84567">
        <ele>159.94020564057</ele>
        <time>2019-09-15T13:44:00Z</time>
      </trkpt>
      <trkpt lat="48.63433" lon="1.84557">
        <ele>159.88953281806</ele>
        <time>2019-09-15T13:44:05Z</time>
      </trkpt>
      <trkpt lat="48.6344" lon="1.84549">
        <ele>159.8180811125</ele>
        <time>2019-09-15T13:44:12Z</time>
      </trkpt>
      <trkpt lat="48.63446" lon="1.8454">
        <ele>159.74919152562</ele>
        <time>2019-09-15T13:44:19Z</time>
      </trkpt>
      <trkpt lat="48.63453" lon="1.84532">
        <ele>159.67701119908</ele>
        <time>2019-09-15T13:44:27Z</time>
      </trkpt>
      <trkpt lat="48.63459" lon="1.84525">
        <ele>159.63230338632</ele>
        <time>2019-09-15T13:44:33Z</time>
      </trkpt>
      <trkpt lat="48.63465" lon="1.84518">
        <ele>159.59091389886</ele>
        <time>2019-09-15T13:44:39Z</time>
      </trkpt>
      <trkpt lat="48.63472" lon="1.8451">
        <ele>159.54431470542</ele>
        <time>2019-09-15T13:44:45Z</time>
      </trkpt>
      <trkpt lat="48.63478" lon="1.84501">
        <ele>159.49578979215</ele>
        <time>2019-09-15T13:44:51Z</time>
      </trkpt>
      <trkpt lat="48.63484" lon="1.84492">
        <ele>159.43925820081</ele>
        <time>2019-09-15T13:44:59Z</time>
      </trkpt>
      <trkpt lat="48.63489" lon="1.84483">
        <ele>159.39834841828</ele>
        <time>2019-09-15T13:45:06Z</time>
      </trkpt>
      <trkpt lat="48.63494" lon="1.84475">
        <ele>159.36580281458</ele>
        <time>2019-09-15T13:45:12Z</time>
      </trkpt>
      <trkpt lat="48.63499" lon="1.84466">
        <ele>159.33127065438</ele>
        <time>2019-09-15T13:45:18Z</time>
      </trkpt>
      <trkpt lat="48.63506" lon="1.84459">
        <ele>159.29818417251</ele>
        <time>2019-09-15T13:45:24Z</time>
      </trkpt>
      <trkpt lat="48.63512" lon="1.84449">
        <ele>159.25173812284</ele>
        <time>2019-09-15T13:45:31Z</time>
      </trkpt>
      <trkpt lat="48.63517" lon="1.84439">
        <ele>159.1940186691</ele>
        <time>2019-09-15T13:45:38Z</time>
      </trkpt>
      <trkpt lat="48.63521" lon="1.84427">
        <ele>159.12901074059</ele>
        <time>2019-09-15T13:45:45Z</time>
      </trkpt>
      <trkpt lat="48.63527" lon="1.84417">
        <ele>159.0610864091</ele>
        <time>2019-09-15T13:45:52Z</time>
      </trkpt>
      <trkpt lat="48.63533" lon="1.84408">
        <ele>159.0022711546</ele>
        <time>2019-09-15T13:45:58Z</time>
      </trkpt>
      <trkpt lat="48.63538" lon="1.84398">
        <ele>158.9464391422</ele>
        <time>2019-09-15T13:46:04Z</time>
      </trkpt>
      <trkpt lat="48.63544" lon="1.84391">
        <ele>158.88286839162</ele>
        <time>2019-09-15T13:46:12Z</time>
      </trkpt>
      <trkpt lat="48.63551" lon="1.84384">
        <ele>158.77931990802</ele>
        <time>2019-09-15T13:46:21Z</time>
      </trkpt>
      <trkpt lat="48.63558" lon="1.84379">
        <ele>158.70962424969</ele>
        <time>2019-09-15T13:46:27Z</time>
      </trkpt>
      <trkpt lat="48.63565" lon="1.8437">
        <ele>158.64935935374</ele>
        <time>2019-09-15T13:46:32Z</time>
      </trkpt>
      <trkpt lat="48.63571" lon="1.84365">
        <ele>158.60178246789</ele>
        <time>2019-09-15T13:46:36Z</time>
      </trkpt>
      <trkpt lat="48.63577" lon="1.84359">
        <ele>158.54266929082</ele>
        <time>2019-09-15T13:46:41Z</time>
      </trkpt>
      <trkpt lat="48.63581" lon="1.84348">
        <ele>158.44552406046</ele>
        <time>2019-09-15T13:46:49Z</time>
      </trkpt>
      <trkpt lat="48.63587" lon="1.84338">
        <ele>158.37750175792</ele>
        <time>2019-09-15T13:46:55Z</time>
      </trkpt>
      <trkpt lat="48.63592" lon="1.84327">
        <ele>158.27955765819</ele>
        <time>2019-09-15T13:47:04Z</time>
      </trkpt>
      <trkpt lat="48.63597" lon="1.84317">
        <ele>158.18348573623</ele>
        <time>2019-09-15T13:47:13Z</time>
      </trkpt>
      <trkpt lat="48.63604" lon="1.84314">
        <ele>158.13408557583</ele>
        <time>2019-09-15T13:47:18Z</time>
      </trkpt>
      <trkpt lat="48.63615" lon="1.84308">
        <ele>158.09975886588</ele>
        <time>2019-09-15T13:47:22Z</time>
      </trkpt>
      <trkpt lat="48.6362" lon="1.84299">
        <ele>158.0602894398</ele>
        <time>2019-09-15T13:47:26Z</time>
      </trkpt>
      <trkpt lat="48.63627" lon="1.84291">
        <ele>157.97882764891</ele>
        <time>2019-09-15T13:47:33Z</time>
      </trkpt>
      <trkpt lat="48.63631" lon="1.8428">
        <ele>157.86406656519</ele>
        <time>2019-09-15T13:47:43Z</time>
      </trkpt>
      <trkpt lat="48.63637" lon="1.84274">
        <ele>157.79881564736</ele>
        <time>2019-09-15T13:47:49Z</time>
      </trkpt>
      <trkpt lat="48.63643" lon="1.84265">
        <ele>157.74155110986</ele>
        <time>2019-09-15T13:47:54Z</time>
      </trkpt>
      <trkpt lat="48.63648" lon="1.84255">
        <ele>157.65054179156</ele>
        <time>2019-09-15T13:48:02Z</time>
      </trkpt>
      <trkpt lat="48.63655" lon="1.84248">
        <ele>157.59472969805</ele>
        <time>2019-09-15T13:48:07Z</time>
      </trkpt>
      <trkpt lat="48.6366" lon="1.84239">
        <ele>157.52270553937</ele>
        <time>2019-09-15T13:48:14Z</time>
      </trkpt>
      <trkpt lat="48.63668" lon="1.84232">
        <ele>157.45665944037</ele>
        <time>2019-09-15T13:48:21Z</time>
      </trkpt>
      <trkpt lat="48.63673" lon="1.84223">
        <ele>157.40974535893</ele>
        <time>2019-09-15T13:48:26Z</time>
      </trkpt>
      <trkpt lat="48.63678" lon="1.84213">
        <ele>157.3418601776</ele>
        <time>2019-09-15T13:48:33Z</time>
      </trkpt>
      <trkpt lat="48.63684" lon="1.84204">
        <ele>157.26303116356</ele>
        <time>2019-09-15T13:48:42Z</time>
      </trkpt>
      <trkpt lat="48.63691" lon="1.84198">
        <ele>157.23170459799</ele>
        <time>2019-09-15T13:48:47Z</time>
      </trkpt>
      <trkpt lat="48.63695" lon="1.84187">
        <ele>157.19167758326</ele>
        <time>2019-09-15T13:48:54Z</time>
      </trkpt>
      <trkpt lat="48.63699" lon="1.84178">
        <ele>157.14392488077</ele>
        <time>2019-09-15T13:49:02Z</time>
      </trkpt>
      <trkpt lat="48.63704" lon="1.84167">
        <ele>157.08875499136</ele>
        <time>2019-09-15T13:49:10Z</time>
      </trkpt>
      <trkpt lat="48.63712" lon="1.84161">
        <ele>157.05362742172</ele>
        <time>2019-09-15T13:49:15Z</time>
      </trkpt>
      <trkpt lat="48.63717" lon="1.84153">
        <ele>157.01485304632</ele>
        <time>2019-09-15T13:49:21Z</time>
      </trkpt>
      <trkpt lat="48.63723" lon="1.84145">
        <ele>156.95938484337</ele>
        <time>2019-09-15T13:49:28Z</time>
      </trkpt>
      <trkpt lat="48.6373" lon="1.84138">
        <ele>156.89897416334</ele>
        <time>2019-09-15T13:49:34Z</time>
      </trkpt>
      <trkpt lat="48.63738" lon="1.84131">
        <ele>156.85098605158</ele>
        <time>2019-09-15T13:49:38Z</time>
      </trkpt>
      <trkpt lat="48.63743" lon="1.8412">
        <ele>156.76329659035</ele>
        <time>2019-09-15T13:49:45Z</time>
      </trkpt>
      <trkpt lat="48.63747" lon="1.84111">
        <ele>156.69668313464</ele>
        <time>2019-09-15T13:49:50Z</time>
      </trkpt>
      <trkpt lat="48.6375" lon="1.84099">
        <ele>156.61218372217</ele>
        <time>2019-09-15T13:49:56Z</time>
      </trkpt>
      <trkpt lat="48.63754" lon="1.84087">
        <ele>156.51900923741</ele>
        <time>2019-09-15T13:50:02Z</time>
      </trkpt>
      <trkpt lat="48.63757" lon="1.84076">
        <ele>156.41409024622</ele>
        <time>2019-09-15T13:50:08Z</time>
      </trkpt>
      <trkpt lat="48.6376" lon="1.84064">
        <ele>156.29544798466</ele>
        <time>2019-09-15T13:50:14Z</time>
      </trkpt>
      <trkpt lat="48.63762" lon="1.84053">
        <ele>156.17411251979</ele>
        <time>2019-09-15T13:50:20Z</time>
      </trkpt>
      <trkpt lat="48.63761" lon="1.8404">
        <ele>156.03514797053</ele>
        <time>2019-09-15T13:50:27Z</time>
      </trkpt>
      <trkpt lat="48.63762" lon="1.84027">
        <ele>155.86203964689</ele>
        <time>2019-09-15T13:50:34Z</time>
      </trkpt>
      <trkpt lat="48.63764" lon="1.84015">
        <ele>155.6508122931</ele>
        <time>2019-09-15T13:50:41Z</time>
      </trkpt>
      <trkpt lat="48.63767" lon="1.84003">
        <ele>155.39403539303</ele>
        <time>2019-09-15T13:50:49Z</time>
      </trkpt>
      <trkpt lat="48.63771" lon="1.83991">
        <ele>155.12723691435</ele>
        <time>2019-09-15T13:50:57Z</time>
      </trkpt>
      <trkpt lat="48.63775" lon="1.83979">
        <ele>154.89261876871</ele>
        <time>2019-09-15T13:51:04Z</time>
      </trkpt>
      <trkpt lat="48.63776" lon="1.83967">
        <ele>154.6445377849</ele>
        <time>2019-09-15T13:51:11Z</time>
      </trkpt>
      <trkpt lat="48.63777" lon="1.83954">
        <ele>154.39123462816</ele>
        <time>2019-09-15T13:51:18Z</time>
      </trkpt>
      <trkpt lat="48.63778" lon="1.83943">
        <ele>154.14775951642</ele>
        <time>2019-09-15T13:51:25Z</time>
      </trkpt>
      <trkpt lat="48.63779" lon="1.8393">
        <ele>153.91432401651</ele>
        <time>2019-09-15T13:51:32Z</time>
      </trkpt>
      <trkpt lat="48.6378" lon="1.83917">
        <ele>153.72246523968</ele>
        <time>2019-09-15T13:51:38Z</time>
      </trkpt>
      <trkpt lat="48.63779" lon="1.83905">
        <ele>153.51307222058</ele>
        <time>2019-09-15T13:51:45Z</time>
      </trkpt>
      <trkpt lat="48.63781" lon="1.83893">
        <ele>153.36564864342</ele>
        <time>2019-09-15T13:51:50Z</time>
      </trkpt>
      <trkpt lat="48.63782" lon="1.83879">
        <ele>153.14610862209</ele>
        <time>2019-09-15T13:51:58Z</time>
      </trkpt>
      <trkpt lat="48.63783" lon="1.83866">
        <ele>152.94436882824</ele>
        <time>2019-09-15T13:52:06Z</time>
      </trkpt>
      <trkpt lat="48.63788" lon="1.83857">
        <ele>152.77435511618</ele>
        <time>2019-09-15T13:52:13Z</time>
      </trkpt>
      <trkpt lat="48.63791" lon="1.83845">
        <ele>152.56298312222</ele>
        <time>2019-09-15T13:52:23Z</time>
      </trkpt>
      <trkpt lat="48.63798" lon="1.83835">
        <ele>152.47162918434</ele>
        <time>2019-09-15T13:52:28Z</time>
      </trkpt>
      <trkpt lat="48.63803" lon="1.83825">
        <ele>152.30524851565</ele>
        <time>2019-09-15T13:52:37Z</time>
      </trkpt>
      <trkpt lat="48.6381" lon="1.8382">
        <ele>151.60054463869</ele>
        <time>2019-09-15T13:52:53Z</time>
      </trkpt>
      <trkpt lat="48.63828" lon="1.83808">
        <ele>151.58264452934</ele>
        <time>2019-09-15T13:52:57Z</time>
      </trkpt>
      <trkpt lat="48.63829" lon="1.83785">
        <ele>151.55383153864</ele>
        <time>2019-09-15T13:53:02Z</time>
      </trkpt>
      <trkpt lat="48.63834" lon="1.83774">
        <ele>151.51568051446</ele>
        <time>2019-09-15T13:53:08Z</time>
      </trkpt>
      <trkpt lat="48.63839" lon="1.83765">
        <ele>151.47500570336</ele>
        <time>2019-09-15T13:53:13Z</time>
      </trkpt>
      <trkpt lat="48.63842" lon="1.83752">
        <ele>151.387094484</ele>
        <time>2019-09-15T13:53:21Z</time>
      </trkpt>
      <trkpt lat="48.63846" lon="1.83741">
        <ele>151.31895321421</ele>
        <time>2019-09-15T13:53:27Z</time>
      </trkpt>
      <trkpt lat="48.6385" lon="1.8373">
        <ele>151.22592426177</ele>
        <time>2019-09-15T13:53:34Z</time>
      </trkpt>
      <trkpt lat="48.63854" lon="1.83719">
        <ele>151.11777109917</ele>
        <time>2019-09-15T13:53:42Z</time>
      </trkpt>
      <trkpt lat="48.6386" lon="1.83709">
        <ele>151.03782456751</ele>
        <time>2019-09-15T13:53:50Z</time>
      </trkpt>
      <trkpt lat="48.63863" lon="1.83697">
        <ele>150.96029295364</ele>
        <time>2019-09-15T13:53:59Z</time>
      </trkpt>
      <trkpt lat="48.63869" lon="1.8369">
        <ele>150.9080617841</ele>
        <time>2019-09-15T13:54:05Z</time>
      </trkpt>
      <trkpt lat="48.63874" lon="1.83678">
        <ele>150.84486386224</ele>
        <time>2019-09-15T13:54:11Z</time>
      </trkpt>
      <trkpt lat="48.63877" lon="1.83666">
        <ele>150.74358682547</ele>
        <time>2019-09-15T13:54:21Z</time>
      </trkpt>
      <trkpt lat="48.63883" lon="1.83657">
        <ele>150.68450811516</ele>
        <time>2019-09-15T13:54:27Z</time>
      </trkpt>
      <trkpt lat="48.63887" lon="1.83647">
        <ele>150.64130850884</ele>
        <time>2019-09-15T13:54:32Z</time>
      </trkpt>
      <trkpt lat="48.63889" lon="1.83635">
        <ele>150.56580813578</ele>
        <time>2019-09-15T13:54:42Z</time>
      </trkpt>
      <trkpt lat="48.63892" lon="1.83624">
        <ele>150.50926270833</ele>
        <time>2019-09-15T13:54:47Z</time>
      </trkpt>
      <trkpt lat="48.63895" lon="1.83611">
        <ele>150.40872514418</ele>
        <time>2019-09-15T13:54:54Z</time>
      </trkpt>
      <trkpt lat="48.63902" lon="1.83603">
        <ele>150.3459697586</ele>
        <time>2019-09-15T13:55:00Z</time>
      </trkpt>
      <trkpt lat="48.63907" lon="1.83597">
        <ele>150.3029232473</ele>
        <time>2019-09-15T13:55:04Z</time>
      </trkpt>
      <trkpt lat="48.63913" lon="1.83589">
        <ele>150.1750080192</ele>
        <time>2019-09-15T13:55:15Z</time>
      </trkpt>
      <trkpt lat="48.63918" lon="1.83581">
        <ele>150.12879771157</ele>
        <time>2019-09-15T13:55:20Z</time>
      </trkpt>
      <trkpt lat="48.63925" lon="1.83573">
        <ele>150.09313560025</ele>
        <time>2019-09-15T13:55:25Z</time>
      </trkpt>
      <trkpt lat="48.6393" lon="1.83565">
        <ele>150.05668241373</ele>
        <time>2019-09-15T13:55:32Z</time>
      </trkpt>
      <trkpt lat="48.63935" lon="1.83555">
        <ele>150.02584132644</ele>
        <time>2019-09-15T13:55:40Z</time>
      </trkpt>
      <trkpt lat="48.63942" lon="1.83547">
        <ele>149.97976776037</ele>
        <time>2019-09-15T13:55:50Z</time>
      </trkpt>
      <trkpt lat="48.63948" lon="1.83537">
        <ele>149.95647685715</ele>
        <time>2019-09-15T13:55:58Z</time>
      </trkpt>
      <trkpt lat="48.63952" lon="1.83525">
        <ele>149.95499737856</ele>
        <time>2019-09-15T13:56:03Z</time>
      </trkpt>
      <trkpt lat="48.63956" lon="1.83515">
        <ele>149.95910014693</ele>
        <time>2019-09-15T13:56:08Z</time>
      </trkpt>
      <trkpt lat="48.63963" lon="1.83511">
        <ele>149.96910469019</ele>
        <time>2019-09-15T13:56:14Z</time>
      </trkpt>
      <trkpt lat="48.63967" lon="1.835">
        <ele>149.97881973559</ele>
        <time>2019-09-15T13:56:19Z</time>
      </trkpt>
      <trkpt lat="48.63976" lon="1.835">
        <ele>149.98794311742</ele>
        <time>2019-09-15T13:56:23Z</time>
      </trkpt>
      <trkpt lat="48.63982" lon="1.83491">
        <ele>149.99368334283</ele>
        <time>2019-09-15T13:56:28Z</time>
      </trkpt>
      <trkpt lat="48.63985" lon="1.8348">
        <ele>149.98714843932</ele>
        <time>2019-09-15T13:56:35Z</time>
      </trkpt>
      <trkpt lat="48.63992" lon="1.83473">
        <ele>149.9796092864</ele>
        <time>2019-09-15T13:56:41Z</time>
      </trkpt>
      <trkpt lat="48.63999" lon="1.83468">
        <ele>149.95441793967</ele>
        <time>2019-09-15T13:56:48Z</time>
      </trkpt>
      <trkpt lat="48.64005" lon="1.83458">
        <ele>149.93418460946</ele>
        <time>2019-09-15T13:56:58Z</time>
      </trkpt>
      <trkpt lat="48.6401" lon="1.83448">
        <ele>149.9266538746</ele>
        <time>2019-09-15T13:57:07Z</time>
      </trkpt>
      <trkpt lat="48.64017" lon="1.8344">
        <ele>149.92658345192</ele>
        <time>2019-09-15T13:57:15Z</time>
      </trkpt>
      <trkpt lat="48.64022" lon="1.83432">
        <ele>149.93441647162</ele>
        <time>2019-09-15T13:57:21Z</time>
      </trkpt>
      <trkpt lat="48.64026" lon="1.83422">
        <ele>149.93930195076</ele>
        <time>2019-09-15T13:57:26Z</time>
      </trkpt>
      <trkpt lat="48.64033" lon="1.83414">
        <ele>149.9328317568</ele>
        <time>2019-09-15T13:57:35Z</time>
      </trkpt>
      <trkpt lat="48.64039" lon="1.83405">
        <ele>149.94246185362</ele>
        <time>2019-09-15T13:57:44Z</time>
      </trkpt>
      <trkpt lat="48.64045" lon="1.83398">
        <ele>149.94554931424</ele>
        <time>2019-09-15T13:57:51Z</time>
      </trkpt>
      <trkpt lat="48.64052" lon="1.8339">
        <ele>149.94516570911</ele>
        <time>2019-09-15T13:57:57Z</time>
      </trkpt>
      <trkpt lat="48.64057" lon="1.8338">
        <ele>149.94284726031</ele>
        <time>2019-09-15T13:58:04Z</time>
      </trkpt>
      <trkpt lat="48.64061" lon="1.83372">
        <ele>149.94436550106</ele>
        <time>2019-09-15T13:58:09Z</time>
      </trkpt>
      <trkpt lat="48.64067" lon="1.83362">
        <ele>149.94669905151</ele>
        <time>2019-09-15T13:58:14Z</time>
      </trkpt>
      <trkpt lat="48.64074" lon="1.83355">
        <ele>149.95020914804</ele>
        <time>2019-09-15T13:58:21Z</time>
      </trkpt>
      <trkpt lat="48.6408" lon="1.83345">
        <ele>149.95118516247</ele>
        <time>2019-09-15T13:58:26Z</time>
      </trkpt>
      <trkpt lat="48.64085" lon="1.83334">
        <ele>149.94832533462</ele>
        <time>2019-09-15T13:58:32Z</time>
      </trkpt>
      <trkpt lat="48.64089" lon="1.83324">
        <ele>149.94010642241</ele>
        <time>2019-09-15T13:58:39Z</time>
      </trkpt>
      <trkpt lat="48.64094" lon="1.83314">
        <ele>149.93214739783</ele>
        <time>2019-09-15T13:58:47Z</time>
      </trkpt>
      <trkpt lat="48.64099" lon="1.83304">
        <ele>149.94356506536</ele>
        <time>2019-09-15T13:58:55Z</time>
      </trkpt>
      <trkpt lat="48.64105" lon="1.83294">
        <ele>149.9563875422</ele>
        <time>2019-09-15T13:59:00Z</time>
      </trkpt>
      <trkpt lat="48.64112" lon="1.83286">
        <ele>149.98500363085</ele>
        <time>2019-09-15T13:59:09Z</time>
      </trkpt>
      <trkpt lat="48.64118" lon="1.83277">
        <ele>150.00111191047</ele>
        <time>2019-09-15T13:59:14Z</time>
      </trkpt>
      <trkpt lat="48.64124" lon="1.8327">
        <ele>150.02583271741</ele>
        <time>2019-09-15T13:59:22Z</time>
      </trkpt>
      <trkpt lat="48.64131" lon="1.83262">
        <ele>150.05378193177</ele>
        <time>2019-09-15T13:59:30Z</time>
      </trkpt>
      <trkpt lat="48.64136" lon="1.83252">
        <ele>150.07509602048</ele>
        <time>2019-09-15T13:59:36Z</time>
      </trkpt>
      <trkpt lat="48.64141" lon="1.83245">
        <ele>150.08709811987</ele>
        <time>2019-09-15T13:59:41Z</time>
      </trkpt>
      <trkpt lat="48.64147" lon="1.83236">
        <ele>150.09714135038</ele>
        <time>2019-09-15T13:59:46Z</time>
      </trkpt>
      <trkpt lat="48.64154" lon="1.83228">
        <ele>150.10594874775</ele>
        <time>2019-09-15T13:59:53Z</time>
      </trkpt>
      <trkpt lat="48.64158" lon="1.83219">
        <ele>150.10473904439</ele>
        <time>2019-09-15T13:59:59Z</time>
      </trkpt>
      <trkpt lat="48.64162" lon="1.83207">
        <ele>150.10175588642</ele>
        <time>2019-09-15T14:00:08Z</time>
      </trkpt>
      <trkpt lat="48.64166" lon="1.83197">
        <ele>150.1101931803</ele>
        <time>2019-09-15T14:00:16Z</time>
      </trkpt>
      <trkpt lat="48.64168" lon="1.83188">
        <ele>150.11684160712</ele>
        <time>2019-09-15T14:00:20Z</time>
      </trkpt>
      <trkpt lat="48.64173" lon="1.83175">
        <ele>150.12227746828</ele>
        <time>2019-09-15T14:00:25Z</time>
      </trkpt>
      <trkpt lat="48.6418" lon="1.83168">
        <ele>150.12663949557</ele>
        <time>2019-09-15T14:00:33Z</time>
      </trkpt>
      <trkpt lat="48.64184" lon="1.83158">
        <ele>150.1407426313</ele>
        <time>2019-09-15T14:00:39Z</time>
      </trkpt>
      <trkpt lat="48.64192" lon="1.83152">
        <ele>150.16247993841</ele>
        <time>2019-09-15T14:00:45Z</time>
      </trkpt>
      <trkpt lat="48.642" lon="1.83143">
        <ele>150.17992477971</ele>
        <time>2019-09-15T14:00:50Z</time>
      </trkpt>
      <trkpt lat="48.64207" lon="1.83137">
        <ele>150.1857275258</ele>
        <time>2019-09-15T14:00:54Z</time>
      </trkpt>
      <trkpt lat="48.64213" lon="1.83129">
        <ele>150.184802258</ele>
        <time>2019-09-15T14:01:00Z</time>
      </trkpt>
      <trkpt lat="48.64219" lon="1.83119">
        <ele>150.16532221898</ele>
        <time>2019-09-15T14:01:07Z</time>
      </trkpt>
      <trkpt lat="48.64225" lon="1.83111">
        <ele>150.11199754323</ele>
        <time>2019-09-15T14:01:16Z</time>
      </trkpt>
      <trkpt lat="48.64232" lon="1.83102">
        <ele>150.05198490619</ele>
        <time>2019-09-15T14:01:23Z</time>
      </trkpt>
      <trkpt lat="48.64238" lon="1.83094">
        <ele>149.99110733095</ele>
        <time>2019-09-15T14:01:29Z</time>
      </trkpt>
      <trkpt lat="48.64245" lon="1.83086">
        <ele>149.88573492955</ele>
        <time>2019-09-15T14:01:37Z</time>
      </trkpt>
      <trkpt lat="48.64252" lon="1.83079">
        <ele>149.74800583589</ele>
        <time>2019-09-15T14:01:45Z</time>
      </trkpt>
      <trkpt lat="48.64258" lon="1.8307">
        <ele>149.58414427186</ele>
        <time>2019-09-15T14:01:55Z</time>
      </trkpt>
      <trkpt lat="48.64264" lon="1.83062">
        <ele>149.48541948073</ele>
        <time>2019-09-15T14:02:03Z</time>
      </trkpt>
      <trkpt lat="48.64271" lon="1.83056">
        <ele>149.43386355226</ele>
        <time>2019-09-15T14:02:08Z</time>
      </trkpt>
      <trkpt lat="48.64276" lon="1.83046">
        <ele>149.35315662361</ele>
        <time>2019-09-15T14:02:15Z</time>
      </trkpt>
      <trkpt lat="48.64269" lon="1.83049">
        <ele>149.18420628633</ele>
        <time>2019-09-15T14:02:58Z</time>
      </trkpt>
      <trkpt lat="48.64262" lon="1.83044">
        <ele>148.95097898508</ele>
        <time>2019-09-15T14:03:03Z</time>
      </trkpt>
      <trkpt lat="48.64278" lon="1.82989">
        <ele>148.92001666806</ele>
        <time>2019-09-15T14:03:08Z</time>
      </trkpt>
      <trkpt lat="48.64286" lon="1.82991">
        <ele>148.90691207812</ele>
        <time>2019-09-15T14:03:12Z</time>
      </trkpt>
      <trkpt lat="48.64298" lon="1.83016">
        <ele>148.89154480171</ele>
        <time>2019-09-15T14:03:16Z</time>
      </trkpt>
      <trkpt lat="48.64304" lon="1.83025">
        <ele>148.86973579527</ele>
        <time>2019-09-15T14:03:23Z</time>
      </trkpt>
      <trkpt lat="48.64309" lon="1.83036">
        <ele>148.83735827478</ele>
        <time>2019-09-15T14:03:34Z</time>
      </trkpt>
      <trkpt lat="48.64315" lon="1.83046">
        <ele>148.82043189626</ele>
        <time>2019-09-15T14:03:40Z</time>
      </trkpt>
      <trkpt lat="48.64322" lon="1.83054">
        <ele>148.80723300894</ele>
        <time>2019-09-15T14:03:47Z</time>
      </trkpt>
      <trkpt lat="48.64328" lon="1.83062">
        <ele>148.79135434737</ele>
        <time>2019-09-15T14:03:55Z</time>
      </trkpt>
      <trkpt lat="48.64331" lon="1.83075">
        <ele>148.77917960693</ele>
        <time>2019-09-15T14:04:03Z</time>
      </trkpt>
      <trkpt lat="48.64336" lon="1.83086">
        <ele>148.78086242088</ele>
        <time>2019-09-15T14:04:12Z</time>
      </trkpt>
      <trkpt lat="48.64341" lon="1.83096">
        <ele>148.77963545196</ele>
        <time>2019-09-15T14:04:20Z</time>
      </trkpt>
      <trkpt lat="48.64346" lon="1.83105">
        <ele>148.77353370355</ele>
        <time>2019-09-15T14:04:25Z</time>
      </trkpt>
      <trkpt lat="48.64355" lon="1.83109">
        <ele>148.76700305403</ele>
        <time>2019-09-15T14:04:29Z</time>
      </trkpt>
      <trkpt lat="48.64361" lon="1.83117">
        <ele>148.75715902232</ele>
        <time>2019-09-15T14:04:35Z</time>
      </trkpt>
      <trkpt lat="48.64368" lon="1.83126">
        <ele>148.7497148684</ele>
        <time>2019-09-15T14:04:41Z</time>
      </trkpt>
      <trkpt lat="48.64373" lon="1.83136">
        <ele>148.75300057653</ele>
        <time>2019-09-15T14:04:50Z</time>
      </trkpt>
      <trkpt lat="48.64379" lon="1.83145">
        <ele>148.79348767687</ele>
        <time>2019-09-15T14:05:35Z</time>
      </trkpt>
      <trkpt lat="48.64379" lon="1.83146">
        <ele>148.80048331245</ele>
        <time>2019-09-15T14:05:48Z</time>
      </trkpt>
      <trkpt lat="48.64379" lon="1.83146">
        <ele>148.80048331245</ele>
        <time>2019-09-15T14:05:49Z</time>
      </trkpt>
    </trkseg>
  </trk>
</gpx>